<?xml version="1.0" encoding="utf-8"?>
<gpx xmlns:xsi="http://www.w3.org/2001/XMLSchema-instance" xmlns:xsd="http://www.w3.org/2001/XMLSchema" version="1.1" creator="Shapelink.com" xmlns="http://www.topografix.com/GPX/1/1" xmlns:gpxtpx="http://www.garmin.com/xmlschemas/TrackPointExtension/v1">
  <metadata>
    <name>Löpning 6.83 km, 2018-02-26</name>
    <desc></desc>
    <author><name>Bengt-Åke Forslund</name></author> 
    <time>2018-02-26T18:09:05Z</time>
  </metadata>
  <trk>
    <name>Löpning 6.83 km, 2018-02-26</name>
    <trkseg>
      <trkpt lat="62.637283570696" lon="17.965949783809">
        <ele>63.2</ele>
        <time>2018-02-26T18:09:05Z</time>
      </trkpt>
      <trkpt lat="62.637286671999" lon="17.965965960876">
        <ele>63.2</ele>
        <time>2018-02-26T18:09:06Z</time>
      </trkpt>
      <trkpt lat="62.637276865176" lon="17.96597819845">
        <ele>63.2</ele>
        <time>2018-02-26T18:09:07Z</time>
      </trkpt>
      <trkpt lat="62.637275943167" lon="17.965998985562">
        <ele>63.4</ele>
        <time>2018-02-26T18:09:08Z</time>
      </trkpt>
      <trkpt lat="62.637270159656" lon="17.96600669691">
        <ele>63.2</ele>
        <time>2018-02-26T18:09:09Z</time>
      </trkpt>
      <trkpt lat="62.637260352833" lon="17.966001164856">
        <ele>63.2</ele>
        <time>2018-02-26T18:09:10Z</time>
      </trkpt>
      <trkpt lat="62.637252725304" lon="17.965994794612">
        <ele>63.2</ele>
        <time>2018-02-26T18:09:11Z</time>
      </trkpt>
      <trkpt lat="62.637245935965" lon="17.965980293925">
        <ele>63</ele>
        <time>2018-02-26T18:09:12Z</time>
      </trkpt>
      <trkpt lat="62.637244091947" lon="17.965969313636">
        <ele>62.8</ele>
        <time>2018-02-26T18:09:13Z</time>
      </trkpt>
      <trkpt lat="62.637239062807" lon="17.965952130741">
        <ele>62.8</ele>
        <time>2018-02-26T18:09:14Z</time>
      </trkpt>
      <trkpt lat="62.637231938192" lon="17.965935115484">
        <ele>62.6</ele>
        <time>2018-02-26T18:09:15Z</time>
      </trkpt>
      <trkpt lat="62.637230345631" lon="17.965914160734">
        <ele>62.4</ele>
        <time>2018-02-26T18:09:16Z</time>
      </trkpt>
      <trkpt lat="62.637227998699" lon="17.965894547088">
        <ele>62.4</ele>
        <time>2018-02-26T18:09:17Z</time>
      </trkpt>
      <trkpt lat="62.637226573776" lon="17.965873592338">
        <ele>62.4</ele>
        <time>2018-02-26T18:09:18Z</time>
      </trkpt>
      <trkpt lat="62.637221376998" lon="17.965847021715">
        <ele>62.4</ele>
        <time>2018-02-26T18:09:19Z</time>
      </trkpt>
      <trkpt lat="62.637218275695" lon="17.965822546567">
        <ele>62.4</ele>
        <time>2018-02-26T18:09:20Z</time>
      </trkpt>
      <trkpt lat="62.637213833288" lon="17.965795808306">
        <ele>62.4</ele>
        <time>2018-02-26T18:09:21Z</time>
      </trkpt>
      <trkpt lat="62.637209055605" lon="17.965765801104">
        <ele>62.2</ele>
        <time>2018-02-26T18:09:22Z</time>
      </trkpt>
      <trkpt lat="62.637201008981" lon="17.965735877721">
        <ele>62.4</ele>
        <time>2018-02-26T18:09:23Z</time>
      </trkpt>
      <trkpt lat="62.637189777235" lon="17.965711737849">
        <ele>62.4</ele>
        <time>2018-02-26T18:09:24Z</time>
      </trkpt>
      <trkpt lat="62.637177120566" lon="17.965683574665">
        <ele>62.4</ele>
        <time>2018-02-26T18:09:25Z</time>
      </trkpt>
      <trkpt lat="62.637164463897" lon="17.965648286866">
        <ele>62.4</ele>
        <time>2018-02-26T18:09:26Z</time>
      </trkpt>
      <trkpt lat="62.637153986522" lon="17.965614507809">
        <ele>62.6</ele>
        <time>2018-02-26T18:09:27Z</time>
      </trkpt>
      <trkpt lat="62.637142838595" lon="17.965580225838">
        <ele>62.6</ele>
        <time>2018-02-26T18:09:28Z</time>
      </trkpt>
      <trkpt lat="62.637136971265" lon="17.965548626075">
        <ele>62.6</ele>
        <time>2018-02-26T18:09:29Z</time>
      </trkpt>
      <trkpt lat="62.637125990976" lon="17.965511494258">
        <ele>62.6</ele>
        <time>2018-02-26T18:09:30Z</time>
      </trkpt>
      <trkpt lat="62.63711559742" lon="17.965471512595">
        <ele>62.6</ele>
        <time>2018-02-26T18:09:31Z</time>
      </trkpt>
      <trkpt lat="62.637104030398" lon="17.965433458769">
        <ele>62.6</ele>
        <time>2018-02-26T18:09:32Z</time>
      </trkpt>
      <trkpt lat="62.63709045172" lon="17.965394734391">
        <ele>62.6</ele>
        <time>2018-02-26T18:09:33Z</time>
      </trkpt>
      <trkpt lat="62.637077627413" lon="17.965355842375">
        <ele>62.8</ele>
        <time>2018-02-26T18:09:34Z</time>
      </trkpt>
      <trkpt lat="62.637064300192" lon="17.96531099921">
        <ele>62.8</ele>
        <time>2018-02-26T18:09:35Z</time>
      </trkpt>
      <trkpt lat="62.637053738998" lon="17.965273448298">
        <ele>62.6</ele>
        <time>2018-02-26T18:09:36Z</time>
      </trkpt>
      <trkpt lat="62.637041166148" lon="17.965233131359">
        <ele>62.6</ele>
        <time>2018-02-26T18:09:37Z</time>
      </trkpt>
      <trkpt lat="62.637027336013" lon="17.965193904067">
        <ele>62.6</ele>
        <time>2018-02-26T18:09:38Z</time>
      </trkpt>
      <trkpt lat="62.637015601353" lon="17.965153084214">
        <ele>62.6</ele>
        <time>2018-02-26T18:09:39Z</time>
      </trkpt>
      <trkpt lat="62.637003363779" lon="17.965110839438">
        <ele>62.6</ele>
        <time>2018-02-26T18:09:40Z</time>
      </trkpt>
      <trkpt lat="62.636993976051" lon="17.96507295325">
        <ele>62.4</ele>
        <time>2018-02-26T18:09:41Z</time>
      </trkpt>
      <trkpt lat="62.636981151744" lon="17.965030121741">
        <ele>62.4</ele>
        <time>2018-02-26T18:09:42Z</time>
      </trkpt>
      <trkpt lat="62.636968997989" lon="17.964989218069">
        <ele>62.6</ele>
        <time>2018-02-26T18:09:43Z</time>
      </trkpt>
      <trkpt lat="62.636955251673" lon="17.964943536714">
        <ele>62.6</ele>
        <time>2018-02-26T18:09:44Z</time>
      </trkpt>
      <trkpt lat="62.636943014099" lon="17.964902297766">
        <ele>62.6</ele>
        <time>2018-02-26T18:09:45Z</time>
      </trkpt>
      <trkpt lat="62.636929686878" lon="17.9648592148">
        <ele>62.4</ele>
        <time>2018-02-26T18:09:46Z</time>
      </trkpt>
      <trkpt lat="62.636915186191" lon="17.964812779074">
        <ele>62.6</ele>
        <time>2018-02-26T18:09:47Z</time>
      </trkpt>
      <trkpt lat="62.636899931133" lon="17.96477204304">
        <ele>62.8</ele>
        <time>2018-02-26T18:09:48Z</time>
      </trkpt>
      <trkpt lat="62.636883167333" lon="17.964730887911">
        <ele>62.8</ele>
        <time>2018-02-26T18:09:49Z</time>
      </trkpt>
      <trkpt lat="62.636866738809" lon="17.96468654766">
        <ele>62.6</ele>
        <time>2018-02-26T18:09:50Z</time>
      </trkpt>
      <trkpt lat="62.636848382448" lon="17.964661821055">
        <ele>62.8</ele>
        <time>2018-02-26T18:09:51Z</time>
      </trkpt>
      <trkpt lat="62.636831199553" lon="17.964628964007">
        <ele>63</ele>
        <time>2018-02-26T18:09:52Z</time>
      </trkpt>
      <trkpt lat="62.636813681382" lon="17.964591580733">
        <ele>63</ele>
        <time>2018-02-26T18:09:53Z</time>
      </trkpt>
      <trkpt lat="62.636799264514" lon="17.964554616554">
        <ele>63</ele>
        <time>2018-02-26T18:09:54Z</time>
      </trkpt>
      <trkpt lat="62.636786104931" lon="17.964516981823">
        <ele>63</ele>
        <time>2018-02-26T18:09:55Z</time>
      </trkpt>
      <trkpt lat="62.636769927864" lon="17.964474904685">
        <ele>63</ele>
        <time>2018-02-26T18:09:56Z</time>
      </trkpt>
      <trkpt lat="62.636754169892" lon="17.96443006152">
        <ele>62.8</ele>
        <time>2018-02-26T18:09:57Z</time>
      </trkpt>
      <trkpt lat="62.6367400883" lon="17.964389493124">
        <ele>62.8</ele>
        <time>2018-02-26T18:09:58Z</time>
      </trkpt>
      <trkpt lat="62.636725252337" lon="17.964341800113">
        <ele>63</ele>
        <time>2018-02-26T18:09:59Z</time>
      </trkpt>
      <trkpt lat="62.636711338383" lon="17.964298549509">
        <ele>63</ele>
        <time>2018-02-26T18:10:00Z</time>
      </trkpt>
      <trkpt lat="62.63669398785" lon="17.96425236524">
        <ele>62.8</ele>
        <time>2018-02-26T18:10:01Z</time>
      </trkpt>
      <trkpt lat="62.636678397516" lon="17.96420710298">
        <ele>62.8</ele>
        <time>2018-02-26T18:10:02Z</time>
      </trkpt>
      <trkpt lat="62.636664483562" lon="17.964163265643">
        <ele>62.8</ele>
        <time>2018-02-26T18:10:03Z</time>
      </trkpt>
      <trkpt lat="62.636651072522" lon="17.964124373627">
        <ele>63</ele>
        <time>2018-02-26T18:10:04Z</time>
      </trkpt>
      <trkpt lat="62.636636907111" lon="17.964081625937">
        <ele>62.8</ele>
        <time>2018-02-26T18:10:05Z</time>
      </trkpt>
      <trkpt lat="62.636618718388" lon="17.964036028401">
        <ele>62.8</ele>
        <time>2018-02-26T18:10:06Z</time>
      </trkpt>
      <trkpt lat="62.636602960416" lon="17.963989676494">
        <ele>62.8</ele>
        <time>2018-02-26T18:10:07Z</time>
      </trkpt>
      <trkpt lat="62.636589130281" lon="17.963944833329">
        <ele>62.8</ele>
        <time>2018-02-26T18:10:08Z</time>
      </trkpt>
      <trkpt lat="62.636574378137" lon="17.963901331268">
        <ele>62.6</ele>
        <time>2018-02-26T18:10:09Z</time>
      </trkpt>
      <trkpt lat="62.63655987745" lon="17.963857493931">
        <ele>62.8</ele>
        <time>2018-02-26T18:10:10Z</time>
      </trkpt>
      <trkpt lat="62.63654395184" lon="17.963815249155">
        <ele>62.4</ele>
        <time>2018-02-26T18:10:11Z</time>
      </trkpt>
      <trkpt lat="62.63652886442" lon="17.963778620252">
        <ele>62.2</ele>
        <time>2018-02-26T18:10:12Z</time>
      </trkpt>
      <trkpt lat="62.636512352077" lon="17.963749954154">
        <ele>62.4</ele>
        <time>2018-02-26T18:10:13Z</time>
      </trkpt>
      <trkpt lat="62.636495169182" lon="17.963733190354">
        <ele>62.4</ele>
        <time>2018-02-26T18:10:14Z</time>
      </trkpt>
      <trkpt lat="62.636475723174" lon="17.963729250861">
        <ele>62.2</ele>
        <time>2018-02-26T18:10:15Z</time>
      </trkpt>
      <trkpt lat="62.636455774252" lon="17.96373939296">
        <ele>62.2</ele>
        <time>2018-02-26T18:10:16Z</time>
      </trkpt>
      <trkpt lat="62.63643414895" lon="17.963765293031">
        <ele>62.4</ele>
        <time>2018-02-26T18:10:17Z</time>
      </trkpt>
      <trkpt lat="62.636415960227" lon="17.963790690188">
        <ele>62.4</ele>
        <time>2018-02-26T18:10:18Z</time>
      </trkpt>
      <trkpt lat="62.636396095124" lon="17.963818853372">
        <ele>62.2</ele>
        <time>2018-02-26T18:10:19Z</time>
      </trkpt>
      <trkpt lat="62.636375978564" lon="17.963845591633">
        <ele>62.2</ele>
        <time>2018-02-26T18:10:20Z</time>
      </trkpt>
      <trkpt lat="62.636354185624" lon="17.963875347378">
        <ele>62.2</ele>
        <time>2018-02-26T18:10:21Z</time>
      </trkpt>
      <trkpt lat="62.63633440434" lon="17.963904935485">
        <ele>62.2</ele>
        <time>2018-02-26T18:10:22Z</time>
      </trkpt>
      <trkpt lat="62.636314036323" lon="17.963929745909">
        <ele>62.4</ele>
        <time>2018-02-26T18:10:23Z</time>
      </trkpt>
      <trkpt lat="62.63629417122" lon="17.963956903265">
        <ele>62.2</ele>
        <time>2018-02-26T18:10:24Z</time>
      </trkpt>
      <trkpt lat="62.636274641393" lon="17.963982803336">
        <ele>62.4</ele>
        <time>2018-02-26T18:10:25Z</time>
      </trkpt>
      <trkpt lat="62.636255195385" lon="17.964011050339">
        <ele>62.6</ele>
        <time>2018-02-26T18:10:26Z</time>
      </trkpt>
      <trkpt lat="62.636236671386" lon="17.96403443584">
        <ele>62.6</ele>
        <time>2018-02-26T18:10:27Z</time>
      </trkpt>
      <trkpt lat="62.636219488491" lon="17.964055893504">
        <ele>62.6</ele>
        <time>2018-02-26T18:10:28Z</time>
      </trkpt>
      <trkpt lat="62.636199204293" lon="17.964086487439">
        <ele>62.8</ele>
        <time>2018-02-26T18:10:29Z</time>
      </trkpt>
      <trkpt lat="62.636178333362" lon="17.964109202388">
        <ele>63</ele>
        <time>2018-02-26T18:10:30Z</time>
      </trkpt>
      <trkpt lat="62.636153690576" lon="17.964131749699">
        <ele>63</ele>
        <time>2018-02-26T18:10:31Z</time>
      </trkpt>
      <trkpt lat="62.636129969799" lon="17.964149016413">
        <ele>63</ele>
        <time>2018-02-26T18:10:32Z</time>
      </trkpt>
      <trkpt lat="62.636108344497" lon="17.964168127145">
        <ele>63</ele>
        <time>2018-02-26T18:10:33Z</time>
      </trkpt>
      <trkpt lat="62.636090323412" lon="17.964188411343">
        <ele>63</ele>
        <time>2018-02-26T18:10:34Z</time>
      </trkpt>
      <trkpt lat="62.636071464137" lon="17.964210707197">
        <ele>62.8</ele>
        <time>2018-02-26T18:10:35Z</time>
      </trkpt>
      <trkpt lat="62.636048413912" lon="17.964233589784">
        <ele>63</ele>
        <time>2018-02-26T18:10:36Z</time>
      </trkpt>
      <trkpt lat="62.636025615144" lon="17.964253538706">
        <ele>63</ele>
        <time>2018-02-26T18:10:37Z</time>
      </trkpt>
      <trkpt lat="62.636003570747" lon="17.964273487628">
        <ele>63</ele>
        <time>2018-02-26T18:10:38Z</time>
      </trkpt>
      <trkpt lat="62.635980017608" lon="17.964294358559">
        <ele>63.2</ele>
        <time>2018-02-26T18:10:39Z</time>
      </trkpt>
      <trkpt lat="62.635956129193" lon="17.964314307481">
        <ele>63.2</ele>
        <time>2018-02-26T18:10:40Z</time>
      </trkpt>
      <trkpt lat="62.635940287402" lon="17.964332328566">
        <ele>63.4</ele>
        <time>2018-02-26T18:10:41Z</time>
      </trkpt>
      <trkpt lat="62.635911202209" lon="17.964356552257">
        <ele>63.4</ele>
        <time>2018-02-26T18:10:42Z</time>
      </trkpt>
      <trkpt lat="62.635887984346" lon="17.964377507007">
        <ele>63.4</ele>
        <time>2018-02-26T18:10:43Z</time>
      </trkpt>
      <trkpt lat="62.635863006284" lon="17.964385805088">
        <ele>63.6</ele>
        <time>2018-02-26T18:10:44Z</time>
      </trkpt>
      <trkpt lat="62.635841716258" lon="17.964394354626">
        <ele>63.4</ele>
        <time>2018-02-26T18:10:45Z</time>
      </trkpt>
      <trkpt lat="62.635816067644" lon="17.964396366282">
        <ele>63.2</ele>
        <time>2018-02-26T18:10:46Z</time>
      </trkpt>
      <trkpt lat="62.63579377179" lon="17.96440323944">
        <ele>63.4</ele>
        <time>2018-02-26T18:10:47Z</time>
      </trkpt>
      <trkpt lat="62.63577114066" lon="17.964410866969">
        <ele>63.4</ele>
        <time>2018-02-26T18:10:48Z</time>
      </trkpt>
      <trkpt lat="62.635747838978" lon="17.964422014896">
        <ele>63.4</ele>
        <time>2018-02-26T18:10:49Z</time>
      </trkpt>
      <trkpt lat="62.635728476789" lon="17.964435845031">
        <ele>63.6</ele>
        <time>2018-02-26T18:10:50Z</time>
      </trkpt>
      <trkpt lat="62.6357007327" lon="17.964458476161">
        <ele>63.6</ele>
        <time>2018-02-26T18:10:51Z</time>
      </trkpt>
      <trkpt lat="62.63567893976" lon="17.964475994332">
        <ele>63.6</ele>
        <time>2018-02-26T18:10:52Z</time>
      </trkpt>
      <trkpt lat="62.635652285318" lon="17.964493093408">
        <ele>63.8</ele>
        <time>2018-02-26T18:10:53Z</time>
      </trkpt>
      <trkpt lat="62.635628396903" lon="17.964511701226">
        <ele>63.8</ele>
        <time>2018-02-26T18:10:54Z</time>
      </trkpt>
      <trkpt lat="62.635600568995" lon="17.964525279904">
        <ele>63.8</ele>
        <time>2018-02-26T18:10:55Z</time>
      </trkpt>
      <trkpt lat="62.635574920381" lon="17.964542965713">
        <ele>63.8</ele>
        <time>2018-02-26T18:10:56Z</time>
      </trkpt>
      <trkpt lat="62.635549355586" lon="17.964559813332">
        <ele>63.8</ele>
        <time>2018-02-26T18:10:57Z</time>
      </trkpt>
      <trkpt lat="62.635526975913" lon="17.964576493313">
        <ele>63.8</ele>
        <time>2018-02-26T18:10:58Z</time>
      </trkpt>
      <trkpt lat="62.635503255136" lon="17.964596945149">
        <ele>63.8</ele>
        <time>2018-02-26T18:10:59Z</time>
      </trkpt>
      <trkpt lat="62.635482132748" lon="17.964613541311">
        <ele>64.2</ele>
        <time>2018-02-26T18:11:00Z</time>
      </trkpt>
      <trkpt lat="62.635462938197" lon="17.964628461093">
        <ele>64.2</ele>
        <time>2018-02-26T18:11:01Z</time>
      </trkpt>
      <trkpt lat="62.635435277927" lon="17.96464379997">
        <ele>64.2</ele>
        <time>2018-02-26T18:11:02Z</time>
      </trkpt>
      <trkpt lat="62.635411892426" lon="17.964655031716">
        <ele>64.4</ele>
        <time>2018-02-26T18:11:03Z</time>
      </trkpt>
      <trkpt lat="62.635390853857" lon="17.964665257634">
        <ele>64.6</ele>
        <time>2018-02-26T18:11:04Z</time>
      </trkpt>
      <trkpt lat="62.635368641822" lon="17.964676070285">
        <ele>64.6</ele>
        <time>2018-02-26T18:11:05Z</time>
      </trkpt>
      <trkpt lat="62.635344585769" lon="17.964688475497">
        <ele>64.4</ele>
        <time>2018-02-26T18:11:06Z</time>
      </trkpt>
      <trkpt lat="62.635321200268" lon="17.964694007551">
        <ele>64.4</ele>
        <time>2018-02-26T18:11:07Z</time>
      </trkpt>
      <trkpt lat="62.635299742604" lon="17.964701970356">
        <ele>64.6</ele>
        <time>2018-02-26T18:11:08Z</time>
      </trkpt>
      <trkpt lat="62.63527828494" lon="17.964709011152">
        <ele>64.6</ele>
        <time>2018-02-26T18:11:09Z</time>
      </trkpt>
      <trkpt lat="62.635257162552" lon="17.964715632853">
        <ele>64.6</ele>
        <time>2018-02-26T18:11:10Z</time>
      </trkpt>
      <trkpt lat="62.635233441775" lon="17.964717812147">
        <ele>64.6</ele>
        <time>2018-02-26T18:11:11Z</time>
      </trkpt>
      <trkpt lat="62.635210894464" lon="17.964723092744">
        <ele>64.6</ele>
        <time>2018-02-26T18:11:12Z</time>
      </trkpt>
      <trkpt lat="62.635188095696" lon="17.964732564291">
        <ele>64.8</ele>
        <time>2018-02-26T18:11:13Z</time>
      </trkpt>
      <trkpt lat="62.635162195625" lon="17.964739688906">
        <ele>64.8</ele>
        <time>2018-02-26T18:11:14Z</time>
      </trkpt>
      <trkpt lat="62.635137217563" lon="17.96474857372">
        <ele>64.6</ele>
        <time>2018-02-26T18:11:15Z</time>
      </trkpt>
      <trkpt lat="62.635112574777" lon="17.964758212905">
        <ele>64.6</ele>
        <time>2018-02-26T18:11:16Z</time>
      </trkpt>
      <trkpt lat="62.635083992498" lon="17.964765002244">
        <ele>64.8</ele>
        <time>2018-02-26T18:11:17Z</time>
      </trkpt>
      <trkpt lat="62.635061445187" lon="17.964773467963">
        <ele>65</ele>
        <time>2018-02-26T18:11:18Z</time>
      </trkpt>
      <trkpt lat="62.635034958383" lon="17.964779838207">
        <ele>65.2</ele>
        <time>2018-02-26T18:11:19Z</time>
      </trkpt>
      <trkpt lat="62.635012830167" lon="17.964782520415">
        <ele>65.2</ele>
        <time>2018-02-26T18:11:20Z</time>
      </trkpt>
      <trkpt lat="62.634987684467" lon="17.964789728849">
        <ele>65.4</ele>
        <time>2018-02-26T18:11:21Z</time>
      </trkpt>
      <trkpt lat="62.63496396369" lon="17.964795679998">
        <ele>65.4</ele>
        <time>2018-02-26T18:11:22Z</time>
      </trkpt>
      <trkpt lat="62.634936722515" lon="17.964803307527">
        <ele>65.4</ele>
        <time>2018-02-26T18:11:23Z</time>
      </trkpt>
      <trkpt lat="62.634908475512" lon="17.964808336667">
        <ele>65.6</ele>
        <time>2018-02-26T18:11:24Z</time>
      </trkpt>
      <trkpt lat="62.634885844382" lon="17.964808755762">
        <ele>65.8</ele>
        <time>2018-02-26T18:11:25Z</time>
      </trkpt>
      <trkpt lat="62.63485918994" lon="17.964811354151">
        <ele>65.6</ele>
        <time>2018-02-26T18:11:26Z</time>
      </trkpt>
      <trkpt lat="62.634832954593" lon="17.964816048015">
        <ele>65.6</ele>
        <time>2018-02-26T18:11:27Z</time>
      </trkpt>
      <trkpt lat="62.634810742558" lon="17.964819233137">
        <ele>65.8</ele>
        <time>2018-02-26T18:11:28Z</time>
      </trkpt>
      <trkpt lat="62.634781489727" lon="17.96481981987">
        <ele>65.8</ele>
        <time>2018-02-26T18:11:29Z</time>
      </trkpt>
      <trkpt lat="62.634757936588" lon="17.964820406603">
        <ele>66</ele>
        <time>2018-02-26T18:11:30Z</time>
      </trkpt>
      <trkpt lat="62.634729186671" lon="17.96482149625">
        <ele>66</ele>
        <time>2018-02-26T18:11:31Z</time>
      </trkpt>
      <trkpt lat="62.634703035143" lon="17.964824765191">
        <ele>65.8</ele>
        <time>2018-02-26T18:11:32Z</time>
      </trkpt>
      <trkpt lat="62.6346781409" lon="17.964828872322">
        <ele>65.8</ele>
        <time>2018-02-26T18:11:33Z</time>
      </trkpt>
      <trkpt lat="62.63465383339" lon="17.964832225082">
        <ele>66</ele>
        <time>2018-02-26T18:11:34Z</time>
      </trkpt>
      <trkpt lat="62.634631453717" lon="17.964834739652">
        <ele>66</ele>
        <time>2018-02-26T18:11:35Z</time>
      </trkpt>
      <trkpt lat="62.634600692144" lon="17.964832895634">
        <ele>66</ele>
        <time>2018-02-26T18:11:36Z</time>
      </trkpt>
      <trkpt lat="62.63457671991" lon="17.964831135435">
        <ele>66</ele>
        <time>2018-02-26T18:11:37Z</time>
      </trkpt>
      <trkpt lat="62.634550987477" lon="17.964831973625">
        <ele>66.2</ele>
        <time>2018-02-26T18:11:38Z</time>
      </trkpt>
      <trkpt lat="62.634525171225" lon="17.964832225082">
        <ele>66.4</ele>
        <time>2018-02-26T18:11:39Z</time>
      </trkpt>
      <trkpt lat="62.634503126828" lon="17.964830464883">
        <ele>66.4</ele>
        <time>2018-02-26T18:11:40Z</time>
      </trkpt>
      <trkpt lat="62.634472532893" lon="17.964826693028">
        <ele>66.4</ele>
        <time>2018-02-26T18:11:41Z</time>
      </trkpt>
      <trkpt lat="62.634447973926" lon="17.964827279761">
        <ele>66.4</ele>
        <time>2018-02-26T18:11:42Z</time>
      </trkpt>
      <trkpt lat="62.634421403303" lon="17.964829961969">
        <ele>66.6</ele>
        <time>2018-02-26T18:11:43Z</time>
      </trkpt>
      <trkpt lat="62.634396089965" lon="17.964830883978">
        <ele>66.6</ele>
        <time>2018-02-26T18:11:44Z</time>
      </trkpt>
      <trkpt lat="62.634371195722" lon="17.964832727996">
        <ele>66.6</ele>
        <time>2018-02-26T18:11:45Z</time>
      </trkpt>
      <trkpt lat="62.634344792737" lon="17.964831805987">
        <ele>66.8</ele>
        <time>2018-02-26T18:11:46Z</time>
      </trkpt>
      <trkpt lat="62.634319814675" lon="17.964830883978">
        <ele>66.8</ele>
        <time>2018-02-26T18:11:47Z</time>
      </trkpt>
      <trkpt lat="62.634293160233" lon="17.964831805987">
        <ele>66.8</ele>
        <time>2018-02-26T18:11:48Z</time>
      </trkpt>
      <trkpt lat="62.634269523275" lon="17.964836248394">
        <ele>67</ele>
        <time>2018-02-26T18:11:49Z</time>
      </trkpt>
      <trkpt lat="62.634246221593" lon="17.964835242566">
        <ele>67</ele>
        <time>2018-02-26T18:11:50Z</time>
      </trkpt>
      <trkpt lat="62.634217890771" lon="17.964835829299">
        <ele>67</ele>
        <time>2018-02-26T18:11:51Z</time>
      </trkpt>
      <trkpt lat="62.634194086175" lon="17.964836751308">
        <ele>67</ele>
        <time>2018-02-26T18:11:52Z</time>
      </trkpt>
      <trkpt lat="62.634167096457" lon="17.964833482367">
        <ele>67.2</ele>
        <time>2018-02-26T18:11:53Z</time>
      </trkpt>
      <trkpt lat="62.634142956585" lon="17.964833650005">
        <ele>67.4</ele>
        <time>2018-02-26T18:11:54Z</time>
      </trkpt>
      <trkpt lat="62.63411822998" lon="17.964834404376">
        <ele>67.4</ele>
        <time>2018-02-26T18:11:55Z</time>
      </trkpt>
      <trkpt lat="62.634092916642" lon="17.964834152919">
        <ele>67.4</ele>
        <time>2018-02-26T18:11:56Z</time>
      </trkpt>
      <trkpt lat="62.634068190037" lon="17.964848653606">
        <ele>67.4</ele>
        <time>2018-02-26T18:11:57Z</time>
      </trkpt>
      <trkpt lat="62.634046061821" lon="17.964854520936">
        <ele>67.4</ele>
        <time>2018-02-26T18:11:58Z</time>
      </trkpt>
      <trkpt lat="62.634019155922" lon="17.964858544248">
        <ele>67.6</ele>
        <time>2018-02-26T18:11:59Z</time>
      </trkpt>
      <trkpt lat="62.633996943887" lon="17.964847312502">
        <ele>67.6</ele>
        <time>2018-02-26T18:12:00Z</time>
      </trkpt>
      <trkpt lat="62.633973139291" lon="17.964840858439">
        <ele>67.6</ele>
        <time>2018-02-26T18:12:01Z</time>
      </trkpt>
      <trkpt lat="62.63395143017" lon="17.964837840955">
        <ele>67.6</ele>
        <time>2018-02-26T18:12:02Z</time>
      </trkpt>
      <trkpt lat="62.633932403257" lon="17.964850413805">
        <ele>67.8</ele>
        <time>2018-02-26T18:12:03Z</time>
      </trkpt>
      <trkpt lat="62.633915555638" lon="17.964882935577">
        <ele>67.8</ele>
        <time>2018-02-26T18:12:04Z</time>
      </trkpt>
      <trkpt lat="62.633902144598" lon="17.964918307195">
        <ele>67.8</ele>
        <time>2018-02-26T18:12:05Z</time>
      </trkpt>
      <trkpt lat="62.633884961703" lon="17.964962982722">
        <ele>67.8</ele>
        <time>2018-02-26T18:12:06Z</time>
      </trkpt>
      <trkpt lat="62.633875238699" lon="17.964999443987">
        <ele>67.8</ele>
        <time>2018-02-26T18:12:07Z</time>
      </trkpt>
      <trkpt lat="62.633867024437" lon="17.965033977415">
        <ele>67.8</ele>
        <time>2018-02-26T18:12:08Z</time>
      </trkpt>
      <trkpt lat="62.633860235098" lon="17.965075719277">
        <ele>67.6</ele>
        <time>2018-02-26T18:12:09Z</time>
      </trkpt>
      <trkpt lat="62.63385755289" lon="17.965110085067">
        <ele>67.6</ele>
        <time>2018-02-26T18:12:10Z</time>
      </trkpt>
      <trkpt lat="62.633857133795" lon="17.965155514965">
        <ele>67.6</ele>
        <time>2018-02-26T18:12:11Z</time>
      </trkpt>
      <trkpt lat="62.633859061632" lon="17.965197340646">
        <ele>67.8</ele>
        <time>2018-02-26T18:12:12Z</time>
      </trkpt>
      <trkpt lat="62.633861995297" lon="17.965237909042">
        <ele>67.8</ele>
        <time>2018-02-26T18:12:13Z</time>
      </trkpt>
      <trkpt lat="62.633862749668" lon="17.965282165474">
        <ele>68.2</ele>
        <time>2018-02-26T18:12:14Z</time>
      </trkpt>
      <trkpt lat="62.633864593686" lon="17.9653202193">
        <ele>68.6</ele>
        <time>2018-02-26T18:12:15Z</time>
      </trkpt>
      <trkpt lat="62.633867359713" lon="17.965350142683">
        <ele>68.6</ele>
        <time>2018-02-26T18:12:16Z</time>
      </trkpt>
      <trkpt lat="62.633870041921" lon="17.965415521503">
        <ele>68.8</ele>
        <time>2018-02-26T18:12:17Z</time>
      </trkpt>
      <trkpt lat="62.633869874283" lon="17.965469249482">
        <ele>69.2</ele>
        <time>2018-02-26T18:12:18Z</time>
      </trkpt>
      <trkpt lat="62.633871131568" lon="17.965523396556">
        <ele>69.6</ele>
        <time>2018-02-26T18:12:19Z</time>
      </trkpt>
      <trkpt lat="62.633870209559" lon="17.96555910345">
        <ele>69.8</ele>
        <time>2018-02-26T18:12:20Z</time>
      </trkpt>
      <trkpt lat="62.633871215387" lon="17.965615094542">
        <ele>70</ele>
        <time>2018-02-26T18:12:21Z</time>
      </trkpt>
      <trkpt lat="62.633869455188" lon="17.965657842232">
        <ele>70.2</ele>
        <time>2018-02-26T18:12:22Z</time>
      </trkpt>
      <trkpt lat="62.633862665849" lon="17.965701931026">
        <ele>70.2</ele>
        <time>2018-02-26T18:12:23Z</time>
      </trkpt>
      <trkpt lat="62.633859648365" lon="17.965748031476">
        <ele>70.2</ele>
        <time>2018-02-26T18:12:24Z</time>
      </trkpt>
      <trkpt lat="62.633861240926" lon="17.965782816361">
        <ele>70.4</ele>
        <time>2018-02-26T18:12:25Z</time>
      </trkpt>
      <trkpt lat="62.633855373596" lon="17.965833945951">
        <ele>70.6</ele>
        <time>2018-02-26T18:12:26Z</time>
      </trkpt>
      <trkpt lat="62.633852775207" lon="17.965872418872">
        <ele>70.8</ele>
        <time>2018-02-26T18:12:27Z</time>
      </trkpt>
      <trkpt lat="62.633843638936" lon="17.96591449601">
        <ele>70.8</ele>
        <time>2018-02-26T18:12:28Z</time>
      </trkpt>
      <trkpt lat="62.633833832113" lon="17.965961350831">
        <ele>71</ele>
        <time>2018-02-26T18:12:29Z</time>
      </trkpt>
      <trkpt lat="62.633826958955" lon="17.966002254503">
        <ele>71.2</ele>
        <time>2018-02-26T18:12:30Z</time>
      </trkpt>
      <trkpt lat="62.633815056657" lon="17.966055814844">
        <ele>71.2</ele>
        <time>2018-02-26T18:12:31Z</time>
      </trkpt>
      <trkpt lat="62.633807010033" lon="17.966092695204">
        <ele>71.4</ele>
        <time>2018-02-26T18:12:32Z</time>
      </trkpt>
      <trkpt lat="62.633798125219" lon="17.966143070423">
        <ele>71.6</ele>
        <time>2018-02-26T18:12:33Z</time>
      </trkpt>
      <trkpt lat="62.633789324224" lon="17.966176598023">
        <ele>71.8</ele>
        <time>2018-02-26T18:12:34Z</time>
      </trkpt>
      <trkpt lat="62.633776416098" lon="17.966214903306">
        <ele>71.8</ele>
        <time>2018-02-26T18:12:35Z</time>
      </trkpt>
      <trkpt lat="62.633759819936" lon="17.96625396296">
        <ele>72</ele>
        <time>2018-02-26T18:12:36Z</time>
      </trkpt>
      <trkpt lat="62.633738362272" lon="17.966277767556">
        <ele>72.4</ele>
        <time>2018-02-26T18:12:37Z</time>
      </trkpt>
      <trkpt lat="62.633712797477" lon="17.966291597691">
        <ele>72.6</ele>
        <time>2018-02-26T18:12:38Z</time>
      </trkpt>
      <trkpt lat="62.633690082528" lon="17.966292687338">
        <ele>72.8</ele>
        <time>2018-02-26T18:12:39Z</time>
      </trkpt>
      <trkpt lat="62.633668205769" lon="17.966302075066">
        <ele>73</ele>
        <time>2018-02-26T18:12:40Z</time>
      </trkpt>
      <trkpt lat="62.633641216051" lon="17.966311378975">
        <ele>73.2</ele>
        <time>2018-02-26T18:12:41Z</time>
      </trkpt>
      <trkpt lat="62.633619255473" lon="17.966320934341">
        <ele>73.2</ele>
        <time>2018-02-26T18:12:42Z</time>
      </trkpt>
      <trkpt lat="62.633592601031" lon="17.96633107644">
        <ele>73.2</ele>
        <time>2018-02-26T18:12:43Z</time>
      </trkpt>
      <trkpt lat="62.633569718444" lon="17.966338871607">
        <ele>73.4</ele>
        <time>2018-02-26T18:12:44Z</time>
      </trkpt>
      <trkpt lat="62.633548847513" lon="17.966348594611">
        <ele>73.4</ele>
        <time>2018-02-26T18:12:45Z</time>
      </trkpt>
      <trkpt lat="62.633521522519" lon="17.966347924059">
        <ele>73.2</ele>
        <time>2018-02-26T18:12:46Z</time>
      </trkpt>
      <trkpt lat="62.633496963552" lon="17.966355551588">
        <ele>73.2</ele>
        <time>2018-02-26T18:12:47Z</time>
      </trkpt>
      <trkpt lat="62.633468548911" lon="17.966357227968">
        <ele>73.4</ele>
        <time>2018-02-26T18:12:48Z</time>
      </trkpt>
      <trkpt lat="62.633443319392" lon="17.966359491081">
        <ele>73.4</ele>
        <time>2018-02-26T18:12:49Z</time>
      </trkpt>
      <trkpt lat="62.633421777909" lon="17.966360664547">
        <ele>73.2</ele>
        <time>2018-02-26T18:12:50Z</time>
      </trkpt>
      <trkpt lat="62.633391854526" lon="17.966362592384">
        <ele>73.2</ele>
        <time>2018-02-26T18:12:51Z</time>
      </trkpt>
      <trkpt lat="62.633370229224" lon="17.966364855497">
        <ele>73.2</ele>
        <time>2018-02-26T18:12:52Z</time>
      </trkpt>
      <trkpt lat="62.633339216194" lon="17.966360999823">
        <ele>73.2</ele>
        <time>2018-02-26T18:12:53Z</time>
      </trkpt>
      <trkpt lat="62.633315914512" lon="17.966360832185">
        <ele>73.2</ele>
        <time>2018-02-26T18:12:54Z</time>
      </trkpt>
      <trkpt lat="62.633292445192" lon="17.966365693687">
        <ele>73</ele>
        <time>2018-02-26T18:12:55Z</time>
      </trkpt>
      <trkpt lat="62.633261683619" lon="17.966365023135">
        <ele>72.8</ele>
        <time>2018-02-26T18:12:56Z</time>
      </trkpt>
      <trkpt lat="62.633238465756" lon="17.966368711171">
        <ele>73</ele>
        <time>2018-02-26T18:12:57Z</time>
      </trkpt>
      <trkpt lat="62.633211895133" lon="17.966370890465">
        <ele>73</ele>
        <time>2018-02-26T18:12:58Z</time>
      </trkpt>
      <trkpt lat="62.63318532451" lon="17.96637550051">
        <ele>72.8</ele>
        <time>2018-02-26T18:12:59Z</time>
      </trkpt>
      <trkpt lat="62.633161100819" lon="17.966369381723">
        <ele>72.6</ele>
        <time>2018-02-26T18:13:00Z</time>
      </trkpt>
      <trkpt lat="62.633131764169" lon="17.966372902121">
        <ele>72.8</ele>
        <time>2018-02-26T18:13:01Z</time>
      </trkpt>
      <trkpt lat="62.633107624297" lon="17.966379859098">
        <ele>72.6</ele>
        <time>2018-02-26T18:13:02Z</time>
      </trkpt>
      <trkpt lat="62.633081556588" lon="17.966384301505">
        <ele>72.4</ele>
        <time>2018-02-26T18:13:03Z</time>
      </trkpt>
      <trkpt lat="62.633059176915" lon="17.966386648437">
        <ele>72.4</ele>
        <time>2018-02-26T18:13:04Z</time>
      </trkpt>
      <trkpt lat="62.633035372319" lon="17.96638891155">
        <ele>72.4</ele>
        <time>2018-02-26T18:13:05Z</time>
      </trkpt>
      <trkpt lat="62.633006287126" lon="17.966390336473">
        <ele>72.2</ele>
        <time>2018-02-26T18:13:06Z</time>
      </trkpt>
      <trkpt lat="62.632982147254" lon="17.966389246826">
        <ele>72.2</ele>
        <time>2018-02-26T18:13:07Z</time>
      </trkpt>
      <trkpt lat="62.63295230769" lon="17.966388743912">
        <ele>72</ele>
        <time>2018-02-26T18:13:08Z</time>
      </trkpt>
      <trkpt lat="62.632928419275" lon="17.966390085016">
        <ele>72</ele>
        <time>2018-02-26T18:13:09Z</time>
      </trkpt>
      <trkpt lat="62.632904027946" lon="17.966392683405">
        <ele>72</ele>
        <time>2018-02-26T18:13:10Z</time>
      </trkpt>
      <trkpt lat="62.632875864762" lon="17.966401316762">
        <ele>71.8</ele>
        <time>2018-02-26T18:13:11Z</time>
      </trkpt>
      <trkpt lat="62.632851976347" lon="17.966406262083">
        <ele>71.8</ele>
        <time>2018-02-26T18:13:12Z</time>
      </trkpt>
      <trkpt lat="62.63282322643" lon="17.966405842988">
        <ele>71.8</ele>
        <time>2018-02-26T18:13:13Z</time>
      </trkpt>
      <trkpt lat="62.632798835101" lon="17.966408609015">
        <ele>71.8</ele>
        <time>2018-02-26T18:13:14Z</time>
      </trkpt>
      <trkpt lat="62.632772683573" lon="17.966407435549">
        <ele>71.8</ele>
        <time>2018-02-26T18:13:15Z</time>
      </trkpt>
      <trkpt lat="62.632747956968" lon="17.96641405725">
        <ele>71.8</ele>
        <time>2018-02-26T18:13:16Z</time>
      </trkpt>
      <trkpt lat="62.632720296698" lon="17.966414979259">
        <ele>71.6</ele>
        <time>2018-02-26T18:13:17Z</time>
      </trkpt>
      <trkpt lat="62.632691295324" lon="17.966415146897">
        <ele>71.6</ele>
        <time>2018-02-26T18:13:18Z</time>
      </trkpt>
      <trkpt lat="62.632664221787" lon="17.966413721974">
        <ele>71.6</ele>
        <time>2018-02-26T18:13:19Z</time>
      </trkpt>
      <trkpt lat="62.63263714825" lon="17.966404418065">
        <ele>71.4</ele>
        <time>2018-02-26T18:13:20Z</time>
      </trkpt>
      <trkpt lat="62.632609990894" lon="17.966405759169">
        <ele>71.2</ele>
        <time>2018-02-26T18:13:21Z</time>
      </trkpt>
      <trkpt lat="62.632581240977" lon="17.966398299278">
        <ele>71</ele>
        <time>2018-02-26T18:13:22Z</time>
      </trkpt>
      <trkpt lat="62.632560202408" lon="17.966391509939">
        <ele>71</ele>
        <time>2018-02-26T18:13:23Z</time>
      </trkpt>
      <trkpt lat="62.632527932093" lon="17.966379607641">
        <ele>71</ele>
        <time>2018-02-26T18:13:24Z</time>
      </trkpt>
      <trkpt lat="62.632500355642" lon="17.966369800818">
        <ele>71</ele>
        <time>2018-02-26T18:13:25Z</time>
      </trkpt>
      <trkpt lat="62.632474874666" lon="17.966363179117">
        <ele>71</ele>
        <time>2018-02-26T18:13:26Z</time>
      </trkpt>
      <trkpt lat="62.632446124749" lon="17.966354126665">
        <ele>70.8</ele>
        <time>2018-02-26T18:13:27Z</time>
      </trkpt>
      <trkpt lat="62.632422403972" lon="17.96634951662">
        <ele>70.8</ele>
        <time>2018-02-26T18:13:28Z</time>
      </trkpt>
      <trkpt lat="62.632393737874" lon="17.966339709797">
        <ele>70.6</ele>
        <time>2018-02-26T18:13:29Z</time>
      </trkpt>
      <trkpt lat="62.632365239414" lon="17.966335518847">
        <ele>70.6</ele>
        <time>2018-02-26T18:13:30Z</time>
      </trkpt>
      <trkpt lat="62.632339004067" lon="17.96633107644">
        <ele>70.6</ele>
        <time>2018-02-26T18:13:31Z</time>
      </trkpt>
      <trkpt lat="62.632307907218" lon="17.966326801671">
        <ele>70.6</ele>
        <time>2018-02-26T18:13:32Z</time>
      </trkpt>
      <trkpt lat="62.632283180613" lon="17.966326717852">
        <ele>70.4</ele>
        <time>2018-02-26T18:13:33Z</time>
      </trkpt>
      <trkpt lat="62.632261974406" lon="17.966341889091">
        <ele>70.2</ele>
        <time>2018-02-26T18:13:34Z</time>
      </trkpt>
      <trkpt lat="62.632237247801" lon="17.966374075587">
        <ele>70.2</ele>
        <time>2018-02-26T18:13:35Z</time>
      </trkpt>
      <trkpt lat="62.63221972963" lon="17.966421181865">
        <ele>70</ele>
        <time>2018-02-26T18:13:36Z</time>
      </trkpt>
      <trkpt lat="62.632207659694" lon="17.966478849337">
        <ele>70.2</ele>
        <time>2018-02-26T18:13:37Z</time>
      </trkpt>
      <trkpt lat="62.632202714373" lon="17.966529895108">
        <ele>70</ele>
        <time>2018-02-26T18:13:38Z</time>
      </trkpt>
      <trkpt lat="62.632195338301" lon="17.966578845404">
        <ele>69.6</ele>
        <time>2018-02-26T18:13:39Z</time>
      </trkpt>
      <trkpt lat="62.632192991369" lon="17.966618491791">
        <ele>69.6</ele>
        <time>2018-02-26T18:13:40Z</time>
      </trkpt>
      <trkpt lat="62.632190057704" lon="17.966665430431">
        <ele>69.8</ele>
        <time>2018-02-26T18:13:41Z</time>
      </trkpt>
      <trkpt lat="62.632183100727" lon="17.966709686863">
        <ele>69.8</ele>
        <time>2018-02-26T18:13:42Z</time>
      </trkpt>
      <trkpt lat="62.632180837614" lon="17.966759056254">
        <ele>70</ele>
        <time>2018-02-26T18:13:43Z</time>
      </trkpt>
      <trkpt lat="62.632175137922" lon="17.966813370966">
        <ele>70.2</ele>
        <time>2018-02-26T18:13:44Z</time>
      </trkpt>
      <trkpt lat="62.632170611696" lon="17.966857627398">
        <ele>70.6</ele>
        <time>2018-02-26T18:13:45Z</time>
      </trkpt>
      <trkpt lat="62.632164492909" lon="17.966913534671">
        <ele>70.8</ele>
        <time>2018-02-26T18:13:46Z</time>
      </trkpt>
      <trkpt lat="62.632163906176" lon="17.966962736424">
        <ele>71</ele>
        <time>2018-02-26T18:13:47Z</time>
      </trkpt>
      <trkpt lat="62.632162313615" lon="17.967020655353">
        <ele>71.4</ele>
        <time>2018-02-26T18:13:48Z</time>
      </trkpt>
      <trkpt lat="62.632155943371" lon="17.96706784545">
        <ele>71.6</ele>
        <time>2018-02-26T18:13:49Z</time>
      </trkpt>
      <trkpt lat="62.632151668602" lon="17.967111012235">
        <ele>71.8</ele>
        <time>2018-02-26T18:13:50Z</time>
      </trkpt>
      <trkpt lat="62.632144879263" lon="17.967163985843">
        <ele>72</ele>
        <time>2018-02-26T18:13:51Z</time>
      </trkpt>
      <trkpt lat="62.632140017761" lon="17.967204218963">
        <ele>72</ele>
        <time>2018-02-26T18:13:52Z</time>
      </trkpt>
      <trkpt lat="62.632128450739" lon="17.967253672173">
        <ele>72.2</ele>
        <time>2018-02-26T18:13:53Z</time>
      </trkpt>
      <trkpt lat="62.632123170142" lon="17.967293821474">
        <ele>72.2</ele>
        <time>2018-02-26T18:13:54Z</time>
      </trkpt>
      <trkpt lat="62.632115961708" lon="17.967340341019">
        <ele>72.4</ele>
        <time>2018-02-26T18:13:55Z</time>
      </trkpt>
      <trkpt lat="62.632106322523" lon="17.967380993234">
        <ele>72.6</ele>
        <time>2018-02-26T18:13:56Z</time>
      </trkpt>
      <trkpt lat="62.632093330578" lon="17.967417119223">
        <ele>72.8</ele>
        <time>2018-02-26T18:13:57Z</time>
      </trkpt>
      <trkpt lat="62.632078662253" lon="17.967460621284">
        <ele>73</ele>
        <time>2018-02-26T18:13:58Z</time>
      </trkpt>
      <trkpt lat="62.632070196534" lon="17.967500686766">
        <ele>73.2</ele>
        <time>2018-02-26T18:13:59Z</time>
      </trkpt>
      <trkpt lat="62.632057791322" lon="17.967542680085">
        <ele>73.2</ele>
        <time>2018-02-26T18:14:00Z</time>
      </trkpt>
      <trkpt lat="62.632041362798" lon="17.967587690888">
        <ele>73.6</ele>
        <time>2018-02-26T18:14:01Z</time>
      </trkpt>
      <trkpt lat="62.632033986726" lon="17.967628343103">
        <ele>74</ele>
        <time>2018-02-26T18:14:02Z</time>
      </trkpt>
      <trkpt lat="62.63201940222" lon="17.967670839336">
        <ele>74.2</ele>
        <time>2018-02-26T18:14:03Z</time>
      </trkpt>
      <trkpt lat="62.632012529062" lon="17.967707300601">
        <ele>74.4</ele>
        <time>2018-02-26T18:14:04Z</time>
      </trkpt>
      <trkpt lat="62.632001716411" lon="17.967749629196">
        <ele>74.6</ele>
        <time>2018-02-26T18:14:05Z</time>
      </trkpt>
      <trkpt lat="62.631993334511" lon="17.967791454877">
        <ele>75</ele>
        <time>2018-02-26T18:14:06Z</time>
      </trkpt>
      <trkpt lat="62.631979252919" lon="17.967829676341">
        <ele>75.2</ele>
        <time>2018-02-26T18:14:07Z</time>
      </trkpt>
      <trkpt lat="62.631961986205" lon="17.967867981624">
        <ele>75.6</ele>
        <time>2018-02-26T18:14:08Z</time>
      </trkpt>
      <trkpt lat="62.63194647969" lon="17.967910896952">
        <ele>75.6</ele>
        <time>2018-02-26T18:14:09Z</time>
      </trkpt>
      <trkpt lat="62.63193390684" lon="17.96794962133">
        <ele>75.8</ele>
        <time>2018-02-26T18:14:10Z</time>
      </trkpt>
      <trkpt lat="62.631922004542" lon="17.967992536658">
        <ele>76</ele>
        <time>2018-02-26T18:14:11Z</time>
      </trkpt>
      <trkpt lat="62.631907168579" lon="17.968032183045">
        <ele>76.2</ele>
        <time>2018-02-26T18:14:12Z</time>
      </trkpt>
      <trkpt lat="62.631896104471" lon="17.968069901595">
        <ele>76.2</ele>
        <time>2018-02-26T18:14:13Z</time>
      </trkpt>
      <trkpt lat="62.631887135838" lon="17.968106279041">
        <ele>76.6</ele>
        <time>2018-02-26T18:14:14Z</time>
      </trkpt>
      <trkpt lat="62.631872299875" lon="17.968143913772">
        <ele>76.6</ele>
        <time>2018-02-26T18:14:15Z</time>
      </trkpt>
      <trkpt lat="62.6318618225" lon="17.968181213227">
        <ele>76.8</ele>
        <time>2018-02-26T18:14:16Z</time>
      </trkpt>
      <trkpt lat="62.631841789759" lon="17.968221949261">
        <ele>77</ele>
        <time>2018-02-26T18:14:17Z</time>
      </trkpt>
      <trkpt lat="62.631835084239" lon="17.968255895956">
        <ele>77</ele>
        <time>2018-02-26T18:14:18Z</time>
      </trkpt>
      <trkpt lat="62.631819493905" lon="17.968304091881">
        <ele>77</ele>
        <time>2018-02-26T18:14:19Z</time>
      </trkpt>
      <trkpt lat="62.631810609091" lon="17.968340804603">
        <ele>77.2</ele>
        <time>2018-02-26T18:14:20Z</time>
      </trkpt>
      <trkpt lat="62.631799880259" lon="17.968386653596">
        <ele>77.6</ele>
        <time>2018-02-26T18:14:21Z</time>
      </trkpt>
      <trkpt lat="62.631783954649" lon="17.968425210336">
        <ele>77.8</ele>
        <time>2018-02-26T18:14:22Z</time>
      </trkpt>
      <trkpt lat="62.631769453962" lon="17.968464102352">
        <ele>77.8</ele>
        <time>2018-02-26T18:14:23Z</time>
      </trkpt>
      <trkpt lat="62.631757551664" lon="17.968505089843">
        <ele>78.2</ele>
        <time>2018-02-26T18:14:24Z</time>
      </trkpt>
      <trkpt lat="62.631746068461" lon="17.968551777026">
        <ele>78.6</ele>
        <time>2018-02-26T18:14:25Z</time>
      </trkpt>
      <trkpt lat="62.631737267466" lon="17.96858999849">
        <ele>78.6</ele>
        <time>2018-02-26T18:14:26Z</time>
      </trkpt>
      <trkpt lat="62.631724275521" lon="17.968635931302">
        <ele>79</ele>
        <time>2018-02-26T18:14:27Z</time>
      </trkpt>
      <trkpt lat="62.631716396535" lon="17.96866962654">
        <ele>79.4</ele>
        <time>2018-02-26T18:14:28Z</time>
      </trkpt>
      <trkpt lat="62.63170424278" lon="17.968721007587">
        <ele>79.6</ele>
        <time>2018-02-26T18:14:29Z</time>
      </trkpt>
      <trkpt lat="62.631695190328" lon="17.96875596011">
        <ele>79.8</ele>
        <time>2018-02-26T18:14:30Z</time>
      </trkpt>
      <trkpt lat="62.63169586088" lon="17.968801557646">
        <ele>80</ele>
        <time>2018-02-26T18:14:31Z</time>
      </trkpt>
      <trkpt lat="62.631688484808" lon="17.968850507942">
        <ele>80.2</ele>
        <time>2018-02-26T18:14:32Z</time>
      </trkpt>
      <trkpt lat="62.631687898075" lon="17.968892417442">
        <ele>80.2</ele>
        <time>2018-02-26T18:14:33Z</time>
      </trkpt>
      <trkpt lat="62.631689909731" lon="17.968944804317">
        <ele>80.4</ele>
        <time>2018-02-26T18:14:34Z</time>
      </trkpt>
      <trkpt lat="62.631691250835" lon="17.96899232969">
        <ele>80.4</ele>
        <time>2018-02-26T18:14:35Z</time>
      </trkpt>
      <trkpt lat="62.631694100681" lon="17.969042704909">
        <ele>80.6</ele>
        <time>2018-02-26T18:14:36Z</time>
      </trkpt>
      <trkpt lat="62.631699716554" lon="17.969094002137">
        <ele>80.8</ele>
        <time>2018-02-26T18:14:37Z</time>
      </trkpt>
      <trkpt lat="62.631707846997" lon="17.969134654352">
        <ele>81</ele>
        <time>2018-02-26T18:14:38Z</time>
      </trkpt>
      <trkpt lat="62.631714384879" lon="17.969180754802">
        <ele>81.2</ele>
        <time>2018-02-26T18:14:39Z</time>
      </trkpt>
      <trkpt lat="62.631724610797" lon="17.969215791144">
        <ele>81.2</ele>
        <time>2018-02-26T18:14:40Z</time>
      </trkpt>
      <trkpt lat="62.631738692389" lon="17.969261556318">
        <ele>81.4</ele>
        <time>2018-02-26T18:14:41Z</time>
      </trkpt>
      <trkpt lat="62.631746319918" lon="17.969305058379">
        <ele>81.6</ele>
        <time>2018-02-26T18:14:42Z</time>
      </trkpt>
      <trkpt lat="62.631753612171" lon="17.969338585979">
        <ele>82</ele>
        <time>2018-02-26T18:14:43Z</time>
      </trkpt>
      <trkpt lat="62.631763083718" lon="17.96938627899">
        <ele>82</ele>
        <time>2018-02-26T18:14:44Z</time>
      </trkpt>
      <trkpt lat="62.631770375971" lon="17.969420393323">
        <ele>82.2</ele>
        <time>2018-02-26T18:14:45Z</time>
      </trkpt>
      <trkpt lat="62.631783619373" lon="17.969454004742">
        <ele>82.6</ele>
        <time>2018-02-26T18:14:46Z</time>
      </trkpt>
      <trkpt lat="62.631797030413" lon="17.969490717464">
        <ele>82.8</ele>
        <time>2018-02-26T18:14:47Z</time>
      </trkpt>
      <trkpt lat="62.631815051498" lon="17.969515108793">
        <ele>82.8</ele>
        <time>2018-02-26T18:14:48Z</time>
      </trkpt>
      <trkpt lat="62.631830055099" lon="17.969545702728">
        <ele>83.2</ele>
        <time>2018-02-26T18:14:49Z</time>
      </trkpt>
      <trkpt lat="62.63184673508" lon="17.969560035777">
        <ele>83.2</ele>
        <time>2018-02-26T18:14:50Z</time>
      </trkpt>
      <trkpt lat="62.631868360382" lon="17.969579984699">
        <ele>83.6</ele>
        <time>2018-02-26T18:14:51Z</time>
      </trkpt>
      <trkpt lat="62.631890237141" lon="17.969587360771">
        <ele>83.6</ele>
        <time>2018-02-26T18:14:52Z</time>
      </trkpt>
      <trkpt lat="62.631909515511" lon="17.969595575033">
        <ele>83.8</ele>
        <time>2018-02-26T18:14:53Z</time>
      </trkpt>
      <trkpt lat="62.631933403926" lon="17.969599430707">
        <ele>84</ele>
        <time>2018-02-26T18:14:54Z</time>
      </trkpt>
      <trkpt lat="62.631954610133" lon="17.969600520354">
        <ele>84.2</ele>
        <time>2018-02-26T18:14:55Z</time>
      </trkpt>
      <trkpt lat="62.631977241263" lon="17.969591886997">
        <ele>84.4</ele>
        <time>2018-02-26T18:14:56Z</time>
      </trkpt>
      <trkpt lat="62.631998531289" lon="17.96958995916">
        <ele>84.4</ele>
        <time>2018-02-26T18:14:57Z</time>
      </trkpt>
      <trkpt lat="62.63201688765" lon="17.969584008011">
        <ele>84.4</ele>
        <time>2018-02-26T18:14:58Z</time>
      </trkpt>
      <trkpt lat="62.632040524608" lon="17.969574620283">
        <ele>84.6</ele>
        <time>2018-02-26T18:14:59Z</time>
      </trkpt>
      <trkpt lat="62.632058713331" lon="17.969573614455">
        <ele>84.8</ele>
        <time>2018-02-26T18:15:00Z</time>
      </trkpt>
      <trkpt lat="62.632083775212" lon="17.969566657478">
        <ele>85</ele>
        <time>2018-02-26T18:15:01Z</time>
      </trkpt>
      <trkpt lat="62.632103472677" lon="17.969560287234">
        <ele>84.8</ele>
        <time>2018-02-26T18:15:02Z</time>
      </trkpt>
      <trkpt lat="62.632128450739" lon="17.9695530788">
        <ele>85</ele>
        <time>2018-02-26T18:15:03Z</time>
      </trkpt>
      <trkpt lat="62.632147896747" lon="17.969543188158">
        <ele>85</ele>
        <time>2018-02-26T18:15:04Z</time>
      </trkpt>
      <trkpt lat="62.632175976112" lon="17.969535560629">
        <ele>85</ele>
        <time>2018-02-26T18:15:05Z</time>
      </trkpt>
      <trkpt lat="62.632200283622" lon="17.969526591996">
        <ele>85</ele>
        <time>2018-02-26T18:15:06Z</time>
      </trkpt>
      <trkpt lat="62.632228362987" lon="17.969519886476">
        <ele>85</ele>
        <time>2018-02-26T18:15:07Z</time>
      </trkpt>
      <trkpt lat="62.632250155927" lon="17.969510414929">
        <ele>85</ele>
        <time>2018-02-26T18:15:08Z</time>
      </trkpt>
      <trkpt lat="62.632271194496" lon="17.969495830423">
        <ele>85.2</ele>
        <time>2018-02-26T18:15:09Z</time>
      </trkpt>
      <trkpt lat="62.632296256377" lon="17.969492980577">
        <ele>85</ele>
        <time>2018-02-26T18:15:10Z</time>
      </trkpt>
      <trkpt lat="62.632318216955" lon="17.969489963093">
        <ele>85</ele>
        <time>2018-02-26T18:15:11Z</time>
      </trkpt>
      <trkpt lat="62.632341434818" lon="17.969486694152">
        <ele>85.2</ele>
        <time>2018-02-26T18:15:12Z</time>
      </trkpt>
      <trkpt lat="62.632369430364" lon="17.969484263401">
        <ele>85</ele>
        <time>2018-02-26T18:15:13Z</time>
      </trkpt>
      <trkpt lat="62.632391390942" lon="17.969472109646">
        <ele>84.8</ele>
        <time>2018-02-26T18:15:14Z</time>
      </trkpt>
      <trkpt lat="62.632415698452" lon="17.969472444922">
        <ele>84.8</ele>
        <time>2018-02-26T18:15:15Z</time>
      </trkpt>
      <trkpt lat="62.632436569383" lon="17.969468589248">
        <ele>85</ele>
        <time>2018-02-26T18:15:16Z</time>
      </trkpt>
      <trkpt lat="62.632463056187" lon="17.96947093618">
        <ele>84.8</ele>
        <time>2018-02-26T18:15:17Z</time>
      </trkpt>
      <trkpt lat="62.632488034249" lon="17.969477054967">
        <ele>84.6</ele>
        <time>2018-02-26T18:15:18Z</time>
      </trkpt>
      <trkpt lat="62.632510078646" lon="17.969479066623">
        <ele>84.8</ele>
        <time>2018-02-26T18:15:19Z</time>
      </trkpt>
      <trkpt lat="62.632535056708" lon="17.969485520686">
        <ele>85</ele>
        <time>2018-02-26T18:15:20Z</time>
      </trkpt>
      <trkpt lat="62.632558106933" lon="17.969485017772">
        <ele>85</ele>
        <time>2018-02-26T18:15:21Z</time>
      </trkpt>
      <trkpt lat="62.632579648416" lon="17.969485520686">
        <ele>84.8</ele>
        <time>2018-02-26T18:15:22Z</time>
      </trkpt>
      <trkpt lat="62.632607057229" lon="17.969495076052">
        <ele>84.8</ele>
        <time>2018-02-26T18:15:23Z</time>
      </trkpt>
      <trkpt lat="62.63263044273" lon="17.969491471835">
        <ele>85</ele>
        <time>2018-02-26T18:15:24Z</time>
      </trkpt>
      <trkpt lat="62.632656510439" lon="17.969499015545">
        <ele>85</ele>
        <time>2018-02-26T18:15:25Z</time>
      </trkpt>
      <trkpt lat="62.632681907596" lon="17.969502033029">
        <ele>85</ele>
        <time>2018-02-26T18:15:26Z</time>
      </trkpt>
      <trkpt lat="62.632703449079" lon="17.969507313626">
        <ele>85.2</ele>
        <time>2018-02-26T18:15:27Z</time>
      </trkpt>
      <trkpt lat="62.632727924227" lon="17.969509241463">
        <ele>85.4</ele>
        <time>2018-02-26T18:15:28Z</time>
      </trkpt>
      <trkpt lat="62.632749884805" lon="17.969514438241">
        <ele>85.4</ele>
        <time>2018-02-26T18:15:29Z</time>
      </trkpt>
      <trkpt lat="62.632771342469" lon="17.969516366078">
        <ele>85.4</ele>
        <time>2018-02-26T18:15:30Z</time>
      </trkpt>
      <trkpt lat="62.632792716314" lon="17.969523909788">
        <ele>85.6</ele>
        <time>2018-02-26T18:15:31Z</time>
      </trkpt>
      <trkpt lat="62.632814760711" lon="17.969524915616">
        <ele>85.4</ele>
        <time>2018-02-26T18:15:32Z</time>
      </trkpt>
      <trkpt lat="62.632839738773" lon="17.96952960948">
        <ele>85.4</ele>
        <time>2018-02-26T18:15:33Z</time>
      </trkpt>
      <trkpt lat="62.632857676039" lon="17.969528938928">
        <ele>85.4</ele>
        <time>2018-02-26T18:15:34Z</time>
      </trkpt>
      <trkpt lat="62.632880642445" lon="17.969530196213">
        <ele>85.6</ele>
        <time>2018-02-26T18:15:35Z</time>
      </trkpt>
      <trkpt lat="62.632907380706" lon="17.969530950584">
        <ele>85.6</ele>
        <time>2018-02-26T18:15:36Z</time>
      </trkpt>
      <trkpt lat="62.632929425103" lon="17.969531537317">
        <ele>85.6</ele>
        <time>2018-02-26T18:15:37Z</time>
      </trkpt>
      <trkpt lat="62.632952726785" lon="17.969542769063">
        <ele>85.8</ele>
        <time>2018-02-26T18:15:38Z</time>
      </trkpt>
      <trkpt lat="62.632975860829" lon="17.969551905334">
        <ele>86</ele>
        <time>2018-02-26T18:15:39Z</time>
      </trkpt>
      <trkpt lat="62.632995223018" lon="17.969562634166">
        <ele>86</ele>
        <time>2018-02-26T18:15:40Z</time>
      </trkpt>
      <trkpt lat="62.633021961279" lon="17.969569088229">
        <ele>85.8</ele>
        <time>2018-02-26T18:15:41Z</time>
      </trkpt>
      <trkpt lat="62.633043335124" lon="17.969578643595">
        <ele>86</ele>
        <time>2018-02-26T18:15:42Z</time>
      </trkpt>
      <trkpt lat="62.63306797791" lon="17.969585349115">
        <ele>86</ele>
        <time>2018-02-26T18:15:43Z</time>
      </trkpt>
      <trkpt lat="62.63309312361" lon="17.969588115142">
        <ele>86.2</ele>
        <time>2018-02-26T18:15:44Z</time>
      </trkpt>
      <trkpt lat="62.633116928206" lon="17.969596329404">
        <ele>86.2</ele>
        <time>2018-02-26T18:15:45Z</time>
      </trkpt>
      <trkpt lat="62.633142995915" lon="17.969603705476">
        <ele>86.4</ele>
        <time>2018-02-26T18:15:46Z</time>
      </trkpt>
      <trkpt lat="62.633165375588" lon="17.969604711304">
        <ele>86.4</ele>
        <time>2018-02-26T18:15:47Z</time>
      </trkpt>
      <trkpt lat="62.633190521288" lon="17.969611081548">
        <ele>86.4</ele>
        <time>2018-02-26T18:15:48Z</time>
      </trkpt>
      <trkpt lat="62.63321382297" lon="17.969620217819">
        <ele>86.4</ele>
        <time>2018-02-26T18:15:49Z</time>
      </trkpt>
      <trkpt lat="62.633237962842" lon="17.969639077094">
        <ele>86.4</ele>
        <time>2018-02-26T18:15:50Z</time>
      </trkpt>
      <trkpt lat="62.633263359999" lon="17.9696536616">
        <ele>86.4</ele>
        <time>2018-02-26T18:15:51Z</time>
      </trkpt>
      <trkpt lat="62.633284901482" lon="17.969667575554">
        <ele>86.2</ele>
        <time>2018-02-26T18:15:52Z</time>
      </trkpt>
      <trkpt lat="62.633311555924" lon="17.969702025163">
        <ele>86.4</ele>
        <time>2018-02-26T18:15:53Z</time>
      </trkpt>
      <trkpt lat="62.633335109063" lon="17.969722896094">
        <ele>86.6</ele>
        <time>2018-02-26T18:15:54Z</time>
      </trkpt>
      <trkpt lat="62.633352040501" lon="17.969755166409">
        <ele>86.6</ele>
        <time>2018-02-26T18:15:55Z</time>
      </trkpt>
      <trkpt lat="62.633370648319" lon="17.969796572995">
        <ele>86.6</ele>
        <time>2018-02-26T18:15:56Z</time>
      </trkpt>
      <trkpt lat="62.633384562273" lon="17.969841080884">
        <ele>86.8</ele>
        <time>2018-02-26T18:15:57Z</time>
      </trkpt>
      <trkpt lat="62.633388501766" lon="17.969895144139">
        <ele>87</ele>
        <time>2018-02-26T18:15:58Z</time>
      </trkpt>
      <trkpt lat="62.633394788191" lon="17.969948872118">
        <ele>87</ele>
        <time>2018-02-26T18:15:59Z</time>
      </trkpt>
      <trkpt lat="62.63340073934" lon="17.970001342812">
        <ele>87.2</ele>
        <time>2018-02-26T18:16:00Z</time>
      </trkpt>
      <trkpt lat="62.633407109584" lon="17.970053981144">
        <ele>87.2</ele>
        <time>2018-02-26T18:16:01Z</time>
      </trkpt>
      <trkpt lat="62.633408618326" lon="17.970102763802">
        <ele>87.2</ele>
        <time>2018-02-26T18:16:02Z</time>
      </trkpt>
      <trkpt lat="62.633412054905" lon="17.970153809573">
        <ele>87.4</ele>
        <time>2018-02-26T18:16:03Z</time>
      </trkpt>
      <trkpt lat="62.633414401837" lon="17.970195048521">
        <ele>87.6</ele>
        <time>2018-02-26T18:16:04Z</time>
      </trkpt>
      <trkpt lat="62.633417586959" lon="17.970254308554">
        <ele>87.6</ele>
        <time>2018-02-26T18:16:05Z</time>
      </trkpt>
      <trkpt lat="62.633421945547" lon="17.970300911918">
        <ele>87.8</ele>
        <time>2018-02-26T18:16:06Z</time>
      </trkpt>
      <trkpt lat="62.633426220316" lon="17.970351790051">
        <ele>87.6</ele>
        <time>2018-02-26T18:16:07Z</time>
      </trkpt>
      <trkpt lat="62.633429153981" lon="17.970405350392">
        <ele>87.8</ele>
        <time>2018-02-26T18:16:08Z</time>
      </trkpt>
      <trkpt lat="62.633433261112" lon="17.970444242408">
        <ele>88.2</ele>
        <time>2018-02-26T18:16:09Z</time>
      </trkpt>
      <trkpt lat="62.633437954976" lon="17.970490259039">
        <ele>88.2</ele>
        <time>2018-02-26T18:16:10Z</time>
      </trkpt>
      <trkpt lat="62.633440637184" lon="17.970543232647">
        <ele>88.2</ele>
        <time>2018-02-26T18:16:11Z</time>
      </trkpt>
      <trkpt lat="62.633445833962" lon="17.970600061929">
        <ele>88.4</ele>
        <time>2018-02-26T18:16:12Z</time>
      </trkpt>
      <trkpt lat="62.633448935265" lon="17.970651610614">
        <ele>88.8</ele>
        <time>2018-02-26T18:16:13Z</time>
      </trkpt>
      <trkpt lat="62.633448851446" lon="17.970702488747">
        <ele>88.6</ele>
        <time>2018-02-26T18:16:14Z</time>
      </trkpt>
      <trkpt lat="62.633450108731" lon="17.970753534518">
        <ele>88.8</ele>
        <time>2018-02-26T18:16:15Z</time>
      </trkpt>
      <trkpt lat="62.633452623301" lon="17.970789492869">
        <ele>88.8</ele>
        <time>2018-02-26T18:16:16Z</time>
      </trkpt>
      <trkpt lat="62.633453293853" lon="17.970859397915">
        <ele>89</ele>
        <time>2018-02-26T18:16:17Z</time>
      </trkpt>
      <trkpt lat="62.633455556966" lon="17.970905330727">
        <ele>89</ele>
        <time>2018-02-26T18:16:18Z</time>
      </trkpt>
      <trkpt lat="62.633459161183" lon="17.970952939919">
        <ele>89.2</ele>
        <time>2018-02-26T18:16:19Z</time>
      </trkpt>
      <trkpt lat="62.633461172839" lon="17.971008009002">
        <ele>89.2</ele>
        <time>2018-02-26T18:16:20Z</time>
      </trkpt>
      <trkpt lat="62.633461424296" lon="17.971062742809">
        <ele>89.4</ele>
        <time>2018-02-26T18:16:21Z</time>
      </trkpt>
      <trkpt lat="62.633461340477" lon="17.971112615114">
        <ele>89.6</ele>
        <time>2018-02-26T18:16:22Z</time>
      </trkpt>
      <trkpt lat="62.633461424296" lon="17.971164163799">
        <ele>89.8</ele>
        <time>2018-02-26T18:16:23Z</time>
      </trkpt>
      <trkpt lat="62.633461759572" lon="17.971217891778">
        <ele>89.8</ele>
        <time>2018-02-26T18:16:24Z</time>
      </trkpt>
      <trkpt lat="62.633458322993" lon="17.971272960861">
        <ele>89.8</ele>
        <time>2018-02-26T18:16:25Z</time>
      </trkpt>
      <trkpt lat="62.633457652441" lon="17.971325096279">
        <ele>90</ele>
        <time>2018-02-26T18:16:26Z</time>
      </trkpt>
      <trkpt lat="62.633456311337" lon="17.971383518122">
        <ele>90</ele>
        <time>2018-02-26T18:16:27Z</time>
      </trkpt>
      <trkpt lat="62.633455724604" lon="17.971429618572">
        <ele>90.2</ele>
        <time>2018-02-26T18:16:28Z</time>
      </trkpt>
      <trkpt lat="62.63345186893" lon="17.97149181227">
        <ele>90</ele>
        <time>2018-02-26T18:16:29Z</time>
      </trkpt>
      <trkpt lat="62.633447342704" lon="17.971541852213">
        <ele>90.2</ele>
        <time>2018-02-26T18:16:30Z</time>
      </trkpt>
      <trkpt lat="62.633443570849" lon="17.971598932952">
        <ele>90.4</ele>
        <time>2018-02-26T18:16:31Z</time>
      </trkpt>
      <trkpt lat="62.633440469546" lon="17.97165777389">
        <ele>90.6</ele>
        <time>2018-02-26T18:16:32Z</time>
      </trkpt>
      <trkpt lat="62.633436278596" lon="17.97171225624">
        <ele>90.6</ele>
        <time>2018-02-26T18:16:33Z</time>
      </trkpt>
      <trkpt lat="62.63343426694" lon="17.971769839893">
        <ele>90.8</ele>
        <time>2018-02-26T18:16:34Z</time>
      </trkpt>
      <trkpt lat="62.633433680207" lon="17.971829267564">
        <ele>90.8</ele>
        <time>2018-02-26T18:16:35Z</time>
      </trkpt>
      <trkpt lat="62.63342839961" lon="17.971894562565">
        <ele>90.8</ele>
        <time>2018-02-26T18:16:36Z</time>
      </trkpt>
      <trkpt lat="62.63342672323" lon="17.971941333567">
        <ele>91</ele>
        <time>2018-02-26T18:16:37Z</time>
      </trkpt>
      <trkpt lat="62.633419598615" lon="17.971993720442">
        <ele>91.4</ele>
        <time>2018-02-26T18:16:38Z</time>
      </trkpt>
      <trkpt lat="62.633412054905" lon="17.972047951335">
        <ele>91.4</ele>
        <time>2018-02-26T18:16:39Z</time>
      </trkpt>
      <trkpt lat="62.63340493029" lon="17.972087010989">
        <ele>91.4</ele>
        <time>2018-02-26T18:16:40Z</time>
      </trkpt>
      <trkpt lat="62.633395626381" lon="17.972146103384">
        <ele>91.6</ele>
        <time>2018-02-26T18:16:41Z</time>
      </trkpt>
      <trkpt lat="62.633389507594" lon="17.972189773083">
        <ele>91.8</ele>
        <time>2018-02-26T18:16:42Z</time>
      </trkpt>
      <trkpt lat="62.633379197857" lon="17.97224785965">
        <ele>91.6</ele>
        <time>2018-02-26T18:16:43Z</time>
      </trkpt>
      <trkpt lat="62.633373414346" lon="17.972294379195">
        <ele>91.6</ele>
        <time>2018-02-26T18:16:44Z</time>
      </trkpt>
      <trkpt lat="62.633366205912" lon="17.97233670779">
        <ele>91.6</ele>
        <time>2018-02-26T18:16:45Z</time>
      </trkpt>
      <trkpt lat="62.633353884519" lon="17.972391106321">
        <ele>91.6</ele>
        <time>2018-02-26T18:16:46Z</time>
      </trkpt>
      <trkpt lat="62.633346005533" lon="17.972436536219">
        <ele>91.8</ele>
        <time>2018-02-26T18:16:47Z</time>
      </trkpt>
      <trkpt lat="62.633332929769" lon="17.972494622786">
        <ele>91.8</ele>
        <time>2018-02-26T18:16:48Z</time>
      </trkpt>
      <trkpt lat="62.633325888973" lon="17.972541477607">
        <ele>91.8</ele>
        <time>2018-02-26T18:16:49Z</time>
      </trkpt>
      <trkpt lat="62.633317423254" lon="17.972591601369">
        <ele>91.8</ele>
        <time>2018-02-26T18:16:50Z</time>
      </trkpt>
      <trkpt lat="62.633305772413" lon="17.972641725131">
        <ele>92</ele>
        <time>2018-02-26T18:16:51Z</time>
      </trkpt>
      <trkpt lat="62.633299988902" lon="17.972684808097">
        <ele>92.2</ele>
        <time>2018-02-26T18:16:52Z</time>
      </trkpt>
      <trkpt lat="62.633289176251" lon="17.972743313759">
        <ele>92.4</ele>
        <time>2018-02-26T18:16:53Z</time>
      </trkpt>
      <trkpt lat="62.633279453247" lon="17.972793186064">
        <ele>92.4</ele>
        <time>2018-02-26T18:16:54Z</time>
      </trkpt>
      <trkpt lat="62.633269897881" lon="17.97283794541">
        <ele>92.6</ele>
        <time>2018-02-26T18:16:55Z</time>
      </trkpt>
      <trkpt lat="62.633258833773" lon="17.972889158819">
        <ele>92.6</ele>
        <time>2018-02-26T18:16:56Z</time>
      </trkpt>
      <trkpt lat="62.633248607855" lon="17.972933163794">
        <ele>92.6</ele>
        <time>2018-02-26T18:16:57Z</time>
      </trkpt>
      <trkpt lat="62.63323896867" lon="17.972980270072">
        <ele>92.6</ele>
        <time>2018-02-26T18:16:58Z</time>
      </trkpt>
      <trkpt lat="62.633230754408" lon="17.973026370522">
        <ele>92.8</ele>
        <time>2018-02-26T18:16:59Z</time>
      </trkpt>
      <trkpt lat="62.633217259549" lon="17.973074650266">
        <ele>93</ele>
        <time>2018-02-26T18:17:00Z</time>
      </trkpt>
      <trkpt lat="62.633205105794" lon="17.973120247802">
        <ele>92.8</ele>
        <time>2018-02-26T18:17:01Z</time>
      </trkpt>
      <trkpt lat="62.633194460781" lon="17.973168443727">
        <ele>93</ele>
        <time>2018-02-26T18:17:02Z</time>
      </trkpt>
      <trkpt lat="62.633182558483" lon="17.97321764548">
        <ele>93</ele>
        <time>2018-02-26T18:17:03Z</time>
      </trkpt>
      <trkpt lat="62.633173338393" lon="17.973256369858">
        <ele>93</ele>
        <time>2018-02-26T18:17:04Z</time>
      </trkpt>
      <trkpt lat="62.63316017881" lon="17.973311355122">
        <ele>93</ele>
        <time>2018-02-26T18:17:05Z</time>
      </trkpt>
      <trkpt lat="62.633150623444" lon="17.97336265235">
        <ele>93.2</ele>
        <time>2018-02-26T18:17:06Z</time>
      </trkpt>
      <trkpt lat="62.633139810793" lon="17.973418140528">
        <ele>93.2</ele>
        <time>2018-02-26T18:17:07Z</time>
      </trkpt>
      <trkpt lat="62.633129333418" lon="17.973463318969">
        <ele>93.4</ele>
        <time>2018-02-26T18:17:08Z</time>
      </trkpt>
      <trkpt lat="62.633118436948" lon="17.973510257609">
        <ele>93.4</ele>
        <time>2018-02-26T18:17:09Z</time>
      </trkpt>
      <trkpt lat="62.633106031736" lon="17.973551831833">
        <ele>93.6</ele>
        <time>2018-02-26T18:17:10Z</time>
      </trkpt>
      <trkpt lat="62.633097146922" lon="17.973601368862">
        <ele>93.6</ele>
        <time>2018-02-26T18:17:11Z</time>
      </trkpt>
      <trkpt lat="62.633086669547" lon="17.973652414633">
        <ele>93.8</ele>
        <time>2018-02-26T18:17:12Z</time>
      </trkpt>
      <trkpt lat="62.633076862724" lon="17.973693150667">
        <ele>93.6</ele>
        <time>2018-02-26T18:17:13Z</time>
      </trkpt>
      <trkpt lat="62.63306462515" lon="17.973738412927">
        <ele>93.8</ele>
        <time>2018-02-26T18:17:14Z</time>
      </trkpt>
      <trkpt lat="62.633051800843" lon="17.97377671821">
        <ele>94</ele>
        <time>2018-02-26T18:17:15Z</time>
      </trkpt>
      <trkpt lat="62.63304031764" lon="17.973827093429">
        <ele>94</ele>
        <time>2018-02-26T18:17:16Z</time>
      </trkpt>
      <trkpt lat="62.633025146401" lon="17.973877636286">
        <ele>94</ele>
        <time>2018-02-26T18:17:17Z</time>
      </trkpt>
      <trkpt lat="62.633014585207" lon="17.973921892718">
        <ele>94.2</ele>
        <time>2018-02-26T18:17:18Z</time>
      </trkpt>
      <trkpt lat="62.633002515271" lon="17.973970591557">
        <ele>94.4</ele>
        <time>2018-02-26T18:17:19Z</time>
      </trkpt>
      <trkpt lat="62.632992205534" lon="17.974009902668">
        <ele>94.6</ele>
        <time>2018-02-26T18:17:20Z</time>
      </trkpt>
      <trkpt lat="62.632980303236" lon="17.974057092765">
        <ele>94.6</ele>
        <time>2018-02-26T18:17:21Z</time>
      </trkpt>
      <trkpt lat="62.632964461445" lon="17.974103444672">
        <ele>94.6</ele>
        <time>2018-02-26T18:17:22Z</time>
      </trkpt>
      <trkpt lat="62.632952642966" lon="17.974152897882">
        <ele>94.8</ele>
        <time>2018-02-26T18:17:23Z</time>
      </trkpt>
      <trkpt lat="62.632938477555" lon="17.97419916597">
        <ele>94.8</ele>
        <time>2018-02-26T18:17:24Z</time>
      </trkpt>
      <trkpt lat="62.632928670732" lon="17.974241243108">
        <ele>94.8</ele>
        <time>2018-02-26T18:17:25Z</time>
      </trkpt>
      <trkpt lat="62.632915175873" lon="17.974292959431">
        <ele>94.8</ele>
        <time>2018-02-26T18:17:26Z</time>
      </trkpt>
      <trkpt lat="62.632900842824" lon="17.9743391437">
        <ele>94.8</ele>
        <time>2018-02-26T18:17:27Z</time>
      </trkpt>
      <trkpt lat="62.632892041829" lon="17.974376107879">
        <ele>94.8</ele>
        <time>2018-02-26T18:17:28Z</time>
      </trkpt>
      <trkpt lat="62.632877624961" lon="17.974431596057">
        <ele>95</ele>
        <time>2018-02-26T18:17:29Z</time>
      </trkpt>
      <trkpt lat="62.632866979948" lon="17.974477864145">
        <ele>95</ele>
        <time>2018-02-26T18:17:30Z</time>
      </trkpt>
      <trkpt lat="62.632853485089" lon="17.97452689826">
        <ele>94.8</ele>
        <time>2018-02-26T18:17:31Z</time>
      </trkpt>
      <trkpt lat="62.632836805108" lon="17.974575094185">
        <ele>94.8</ele>
        <time>2018-02-26T18:17:32Z</time>
      </trkpt>
      <trkpt lat="62.632828842303" lon="17.974621110816">
        <ele>95</ele>
        <time>2018-02-26T18:17:33Z</time>
      </trkpt>
      <trkpt lat="62.632822052964" lon="17.974675425528">
        <ele>95</ele>
        <time>2018-02-26T18:17:34Z</time>
      </trkpt>
      <trkpt lat="62.632811407951" lon="17.974724208186">
        <ele>94.8</ele>
        <time>2018-02-26T18:17:35Z</time>
      </trkpt>
      <trkpt lat="62.632798667463" lon="17.974770979188">
        <ele>95</ele>
        <time>2018-02-26T18:17:36Z</time>
      </trkpt>
      <trkpt lat="62.632781652206" lon="17.974824790986">
        <ele>95</ele>
        <time>2018-02-26T18:17:37Z</time>
      </trkpt>
      <trkpt lat="62.632773605582" lon="17.974870220884">
        <ele>95</ele>
        <time>2018-02-26T18:17:38Z</time>
      </trkpt>
      <trkpt lat="62.632758769619" lon="17.974927804537">
        <ele>95.2</ele>
        <time>2018-02-26T18:17:39Z</time>
      </trkpt>
      <trkpt lat="62.632747956968" lon="17.974970887503">
        <ele>95.4</ele>
        <time>2018-02-26T18:17:40Z</time>
      </trkpt>
      <trkpt lat="62.632730774073" lon="17.975029560803">
        <ele>95.2</ele>
        <time>2018-02-26T18:17:41Z</time>
      </trkpt>
      <trkpt lat="62.632716105748" lon="17.975084462248">
        <ele>95.4</ele>
        <time>2018-02-26T18:17:42Z</time>
      </trkpt>
      <trkpt lat="62.63270504164" lon="17.975131736164">
        <ele>95.4</ele>
        <time>2018-02-26T18:17:43Z</time>
      </trkpt>
      <trkpt lat="62.632692301152" lon="17.97518823017">
        <ele>95.4</ele>
        <time>2018-02-26T18:17:44Z</time>
      </trkpt>
      <trkpt lat="62.632683332519" lon="17.97523684519">
        <ele>95.4</ele>
        <time>2018-02-26T18:17:45Z</time>
      </trkpt>
      <trkpt lat="62.632672519868" lon="17.975283867649">
        <ele>95.4</ele>
        <time>2018-02-26T18:17:46Z</time>
      </trkpt>
      <trkpt lat="62.63265223567" lon="17.975353269781">
        <ele>95.4</ele>
        <time>2018-02-26T18:17:47Z</time>
      </trkpt>
      <trkpt lat="62.632643350856" lon="17.97540532138">
        <ele>95.2</ele>
        <time>2018-02-26T18:17:48Z</time>
      </trkpt>
      <trkpt lat="62.632630107454" lon="17.975460390463">
        <ele>95.4</ele>
        <time>2018-02-26T18:17:49Z</time>
      </trkpt>
      <trkpt lat="62.632620719726" lon="17.975507999655">
        <ele>95.4</ele>
        <time>2018-02-26T18:17:50Z</time>
      </trkpt>
      <trkpt lat="62.632605548487" lon="17.975570528629">
        <ele>95.4</ele>
        <time>2018-02-26T18:17:51Z</time>
      </trkpt>
      <trkpt lat="62.632594652017" lon="17.975617131993">
        <ele>95.4</ele>
        <time>2018-02-26T18:17:52Z</time>
      </trkpt>
      <trkpt lat="62.632581911529" lon="17.975676811121">
        <ele>95.4</ele>
        <time>2018-02-26T18:17:53Z</time>
      </trkpt>
      <trkpt lat="62.632570176869" lon="17.975731125833">
        <ele>95.8</ele>
        <time>2018-02-26T18:17:54Z</time>
      </trkpt>
      <trkpt lat="62.632561459693" lon="17.97577496317">
        <ele>95.8</ele>
        <time>2018-02-26T18:17:55Z</time>
      </trkpt>
      <trkpt lat="62.632548216291" lon="17.975836067221">
        <ele>95.8</ele>
        <time>2018-02-26T18:17:56Z</time>
      </trkpt>
      <trkpt lat="62.632538660925" lon="17.975886610078">
        <ele>96</ele>
        <time>2018-02-26T18:17:57Z</time>
      </trkpt>
      <trkpt lat="62.632527596817" lon="17.975940338057">
        <ele>96.2</ele>
        <time>2018-02-26T18:17:58Z</time>
      </trkpt>
      <trkpt lat="62.632515443062" lon="17.976004124316">
        <ele>96.2</ele>
        <time>2018-02-26T18:17:59Z</time>
      </trkpt>
      <trkpt lat="62.632507061162" lon="17.976051398232">
        <ele>96.2</ele>
        <time>2018-02-26T18:18:00Z</time>
      </trkpt>
      <trkpt lat="62.632492392837" lon="17.976108311333">
        <ele>96.2</ele>
        <time>2018-02-26T18:18:01Z</time>
      </trkpt>
      <trkpt lat="62.632481077272" lon="17.976159943837">
        <ele>96.4</ele>
        <time>2018-02-26T18:18:02Z</time>
      </trkpt>
      <trkpt lat="62.632469761707" lon="17.976213420359">
        <ele>96.2</ele>
        <time>2018-02-26T18:18:03Z</time>
      </trkpt>
      <trkpt lat="62.632458446142" lon="17.976261448646">
        <ele>96.2</ele>
        <time>2018-02-26T18:18:04Z</time>
      </trkpt>
      <trkpt lat="62.632447382034" lon="17.976317355919">
        <ele>96.4</ele>
        <time>2018-02-26T18:18:05Z</time>
      </trkpt>
      <trkpt lat="62.632433048985" lon="17.976378292332">
        <ele>96.4</ele>
        <time>2018-02-26T18:18:06Z</time>
      </trkpt>
      <trkpt lat="62.632424080352" lon="17.976430176293">
        <ele>96.4</ele>
        <time>2018-02-26T18:18:07Z</time>
      </trkpt>
      <trkpt lat="62.632409663484" lon="17.976486083566">
        <ele>96.6</ele>
        <time>2018-02-26T18:18:08Z</time>
      </trkpt>
      <trkpt lat="62.632397509729" lon="17.976533608939">
        <ele>96.6</ele>
        <time>2018-02-26T18:18:09Z</time>
      </trkpt>
      <trkpt lat="62.632383260499" lon="17.976576943362">
        <ele>96.6</ele>
        <time>2018-02-26T18:18:10Z</time>
      </trkpt>
      <trkpt lat="62.632364317405" lon="17.976633353549">
        <ele>96.6</ele>
        <time>2018-02-26T18:18:11Z</time>
      </trkpt>
      <trkpt lat="62.632355264953" lon="17.976684902234">
        <ele>96.6</ele>
        <time>2018-02-26T18:18:12Z</time>
      </trkpt>
      <trkpt lat="62.63234042899" lon="17.976733517254">
        <ele>96.6</ele>
        <time>2018-02-26T18:18:13Z</time>
      </trkpt>
      <trkpt lat="62.632329867796" lon="17.976783221921">
        <ele>96.6</ele>
        <time>2018-02-26T18:18:14Z</time>
      </trkpt>
      <trkpt lat="62.63231528329" lon="17.976837033719">
        <ele>96.6</ele>
        <time>2018-02-26T18:18:15Z</time>
      </trkpt>
      <trkpt lat="62.632305727924" lon="17.976886989843">
        <ele>96.6</ele>
        <time>2018-02-26T18:18:16Z</time>
      </trkpt>
      <trkpt lat="62.632294077083" lon="17.976950273188">
        <ele>96.6</ele>
        <time>2018-02-26T18:18:17Z</time>
      </trkpt>
      <trkpt lat="62.632282342423" lon="17.977005174633">
        <ele>96.6</ele>
        <time>2018-02-26T18:18:18Z</time>
      </trkpt>
      <trkpt lat="62.632269853392" lon="17.977055046938">
        <ele>96.8</ele>
        <time>2018-02-26T18:18:19Z</time>
      </trkpt>
      <trkpt lat="62.632258118732" lon="17.977107014718">
        <ele>96.8</ele>
        <time>2018-02-26T18:18:20Z</time>
      </trkpt>
      <trkpt lat="62.632247557538" lon="17.977157641394">
        <ele>96.8</ele>
        <time>2018-02-26T18:18:21Z</time>
      </trkpt>
      <trkpt lat="62.632232553937" lon="17.977206172595">
        <ele>97</ele>
        <time>2018-02-26T18:18:22Z</time>
      </trkpt>
      <trkpt lat="62.632220903096" lon="17.977255709624">
        <ele>97</ele>
        <time>2018-02-26T18:18:23Z</time>
      </trkpt>
      <trkpt lat="62.63220883316" lon="17.977306420119">
        <ele>97.2</ele>
        <time>2018-02-26T18:18:24Z</time>
      </trkpt>
      <trkpt lat="62.632195338301" lon="17.977359561365">
        <ele>97.4</ele>
        <time>2018-02-26T18:18:25Z</time>
      </trkpt>
      <trkpt lat="62.632183855098" lon="17.977416055371">
        <ele>97.6</ele>
        <time>2018-02-26T18:18:26Z</time>
      </trkpt>
      <trkpt lat="62.632168432402" lon="17.97746978335">
        <ele>97.6</ele>
        <time>2018-02-26T18:18:27Z</time>
      </trkpt>
      <trkpt lat="62.632159463769" lon="17.977516135257">
        <ele>97.6</ele>
        <time>2018-02-26T18:18:28Z</time>
      </trkpt>
      <trkpt lat="62.632144460168" lon="17.977576149661">
        <ele>97.6</ele>
        <time>2018-02-26T18:18:29Z</time>
      </trkpt>
      <trkpt lat="62.63213674882" lon="17.977621076645">
        <ele>97.6</ele>
        <time>2018-02-26T18:18:30Z</time>
      </trkpt>
      <trkpt lat="62.632123589237" lon="17.977681677782">
        <ele>97.8</ele>
        <time>2018-02-26T18:18:31Z</time>
      </trkpt>
      <trkpt lat="62.632110848749" lon="17.977734316114">
        <ele>97.8</ele>
        <time>2018-02-26T18:18:32Z</time>
      </trkpt>
      <trkpt lat="62.632098527356" lon="17.977788798464">
        <ele>97.8</ele>
        <time>2018-02-26T18:18:33Z</time>
      </trkpt>
      <trkpt lat="62.6320881338" lon="17.977838503131">
        <ele>98</ele>
        <time>2018-02-26T18:18:34Z</time>
      </trkpt>
      <trkpt lat="62.632078410796" lon="17.977891225282">
        <ele>98</ele>
        <time>2018-02-26T18:18:35Z</time>
      </trkpt>
      <trkpt lat="62.632061982272" lon="17.977950485315">
        <ele>98</ele>
        <time>2018-02-26T18:18:36Z</time>
      </trkpt>
      <trkpt lat="62.632052762182" lon="17.977999854706">
        <ele>98</ele>
        <time>2018-02-26T18:18:37Z</time>
      </trkpt>
      <trkpt lat="62.632040273151" lon="17.9780607073">
        <ele>98</ele>
        <time>2018-02-26T18:18:38Z</time>
      </trkpt>
      <trkpt lat="62.632030214871" lon="17.978108148854">
        <ele>98</ele>
        <time>2018-02-26T18:18:39Z</time>
      </trkpt>
      <trkpt lat="62.632019066944" lon="17.978158943168">
        <ele>98.2</ele>
        <time>2018-02-26T18:18:40Z</time>
      </trkpt>
      <trkpt lat="62.632004650076" lon="17.978217113554">
        <ele>98.4</ele>
        <time>2018-02-26T18:18:41Z</time>
      </trkpt>
      <trkpt lat="62.631992077226" lon="17.978265728574">
        <ele>98.4</ele>
        <time>2018-02-26T18:18:42Z</time>
      </trkpt>
      <trkpt lat="62.631977073625" lon="17.978322054942">
        <ele>98.4</ele>
        <time>2018-02-26T18:18:43Z</time>
      </trkpt>
      <trkpt lat="62.631967182983" lon="17.978372765437">
        <ele>98.6</ele>
        <time>2018-02-26T18:18:44Z</time>
      </trkpt>
      <trkpt lat="62.631954191038" lon="17.978424397941">
        <ele>98.6</ele>
        <time>2018-02-26T18:18:45Z</time>
      </trkpt>
      <trkpt lat="62.631941534369" lon="17.978472929142">
        <ele>98.6</ele>
        <time>2018-02-26T18:18:46Z</time>
      </trkpt>
      <trkpt lat="62.63192720132" lon="17.978530764252">
        <ele>98.8</ele>
        <time>2018-02-26T18:18:47Z</time>
      </trkpt>
      <trkpt lat="62.631914377013" lon="17.978584492231">
        <ele>98.8</ele>
        <time>2018-02-26T18:18:48Z</time>
      </trkpt>
      <trkpt lat="62.631901552706" lon="17.978633610165">
        <ele>98.8</ele>
        <time>2018-02-26T18:18:49Z</time>
      </trkpt>
      <trkpt lat="62.631886549105" lon="17.978689265981">
        <ele>99</ele>
        <time>2018-02-26T18:18:50Z</time>
      </trkpt>
      <trkpt lat="62.631874814445" lon="17.97874467034">
        <ele>99</ele>
        <time>2018-02-26T18:18:51Z</time>
      </trkpt>
      <trkpt lat="62.631859643206" lon="17.978802086355">
        <ele>99.2</ele>
        <time>2018-02-26T18:18:52Z</time>
      </trkpt>
      <trkpt lat="62.631848914374" lon="17.97885279685">
        <ele>99.2</ele>
        <time>2018-02-26T18:18:53Z</time>
      </trkpt>
      <trkpt lat="62.631835168058" lon="17.978907782114">
        <ele>99.2</ele>
        <time>2018-02-26T18:18:54Z</time>
      </trkpt>
      <trkpt lat="62.631824271588" lon="17.978962515921">
        <ele>99.2</ele>
        <time>2018-02-26T18:18:55Z</time>
      </trkpt>
      <trkpt lat="62.631814632403" lon="17.979013310235">
        <ele>99.4</ele>
        <time>2018-02-26T18:18:56Z</time>
      </trkpt>
      <trkpt lat="62.63180063463" lon="17.979070390974">
        <ele>99.4</ele>
        <time>2018-02-26T18:18:57Z</time>
      </trkpt>
      <trkpt lat="62.631790827807" lon="17.979119257451">
        <ele>99.4</ele>
        <time>2018-02-26T18:18:58Z</time>
      </trkpt>
      <trkpt lat="62.631779428423" lon="17.979180948235">
        <ele>99.4</ele>
        <time>2018-02-26T18:18:59Z</time>
      </trkpt>
      <trkpt lat="62.631771046523" lon="17.97923249692">
        <ele>99.4</ele>
        <time>2018-02-26T18:19:00Z</time>
      </trkpt>
      <trkpt lat="62.631759060406" lon="17.979286057261">
        <ele>99.6</ele>
        <time>2018-02-26T18:19:01Z</time>
      </trkpt>
      <trkpt lat="62.631745984642" lon="17.979339198507">
        <ele>99.8</ele>
        <time>2018-02-26T18:19:02Z</time>
      </trkpt>
      <trkpt lat="62.631735507267" lon="17.979385298957">
        <ele>99.6</ele>
        <time>2018-02-26T18:19:03Z</time>
      </trkpt>
      <trkpt lat="62.631724107883" lon="17.97943869166">
        <ele>99.8</ele>
        <time>2018-02-26T18:19:04Z</time>
      </trkpt>
      <trkpt lat="62.631714552517" lon="17.979488480146">
        <ele>99.8</ele>
        <time>2018-02-26T18:19:05Z</time>
      </trkpt>
      <trkpt lat="62.631696363794" lon="17.979544219781">
        <ele>99.8</ele>
        <time>2018-02-26T18:19:06Z</time>
      </trkpt>
      <trkpt lat="62.631682701297" lon="17.979594259724">
        <ele>100</ele>
        <time>2018-02-26T18:19:07Z</time>
      </trkpt>
      <trkpt lat="62.631673397388" lon="17.979645389314">
        <ele>100</ele>
        <time>2018-02-26T18:19:08Z</time>
      </trkpt>
      <trkpt lat="62.631655543941" lon="17.979700039302">
        <ele>100</ele>
        <time>2018-02-26T18:19:09Z</time>
      </trkpt>
      <trkpt lat="62.631647581136" lon="17.979734991825">
        <ele>100</ele>
        <time>2018-02-26T18:19:10Z</time>
      </trkpt>
      <trkpt lat="62.6316271293" lon="17.979798861903">
        <ele>100</ele>
        <time>2018-02-26T18:19:11Z</time>
      </trkpt>
      <trkpt lat="62.631614221174" lon="17.979850913502">
        <ele>100.2</ele>
        <time>2018-02-26T18:19:12Z</time>
      </trkpt>
      <trkpt lat="62.631598463202" lon="17.979896846314">
        <ele>100.2</ele>
        <time>2018-02-26T18:19:13Z</time>
      </trkpt>
      <trkpt lat="62.631580274479" lon="17.979943784954">
        <ele>100.2</ele>
        <time>2018-02-26T18:19:14Z</time>
      </trkpt>
      <trkpt lat="62.631560409376" lon="17.979988376662">
        <ele>100.4</ele>
        <time>2018-02-26T18:19:15Z</time>
      </trkpt>
      <trkpt lat="62.631536856237" lon="17.980031878723">
        <ele>100.4</ele>
        <time>2018-02-26T18:19:16Z</time>
      </trkpt>
      <trkpt lat="62.631515063297" lon="17.980066915065">
        <ele>100.4</ele>
        <time>2018-02-26T18:19:17Z</time>
      </trkpt>
      <trkpt lat="62.631484469362" lon="17.980098179552">
        <ele>100.4</ele>
        <time>2018-02-26T18:19:18Z</time>
      </trkpt>
      <trkpt lat="62.631459323662" lon="17.980116619732">
        <ele>100.4</ele>
        <time>2018-02-26T18:19:19Z</time>
      </trkpt>
      <trkpt lat="62.631432585401" lon="17.980117038827">
        <ele>100.4</ele>
        <time>2018-02-26T18:19:20Z</time>
      </trkpt>
      <trkpt lat="62.631404589855" lon="17.980112093506">
        <ele>100.4</ele>
        <time>2018-02-26T18:19:21Z</time>
      </trkpt>
      <trkpt lat="62.631382713096" lon="17.980104549796">
        <ele>100.6</ele>
        <time>2018-02-26T18:19:22Z</time>
      </trkpt>
      <trkpt lat="62.631350023686" lon="17.980092228403">
        <ele>100.6</ele>
        <time>2018-02-26T18:19:23Z</time>
      </trkpt>
      <trkpt lat="62.6313253809" lon="17.98007906882">
        <ele>100.4</ele>
        <time>2018-02-26T18:19:24Z</time>
      </trkpt>
      <trkpt lat="62.631301995399" lon="17.980064400495">
        <ele>100.6</ele>
        <time>2018-02-26T18:19:25Z</time>
      </trkpt>
      <trkpt lat="62.631275508595" lon="17.980050905636">
        <ele>100.8</ele>
        <time>2018-02-26T18:19:26Z</time>
      </trkpt>
      <trkpt lat="62.631252709827" lon="17.980042439917">
        <ele>100.6</ele>
        <time>2018-02-26T18:19:27Z</time>
      </trkpt>
      <trkpt lat="62.631226306842" lon="17.980032297818">
        <ele>100.6</ele>
        <time>2018-02-26T18:19:28Z</time>
      </trkpt>
      <trkpt lat="62.631202418427" lon="17.98001620457">
        <ele>100.8</ele>
        <time>2018-02-26T18:19:29Z</time>
      </trkpt>
      <trkpt lat="62.631182469505" lon="17.979994243992">
        <ele>101</ele>
        <time>2018-02-26T18:19:30Z</time>
      </trkpt>
      <trkpt lat="62.63115606652" lon="17.97997345688">
        <ele>101</ele>
        <time>2018-02-26T18:19:31Z</time>
      </trkpt>
      <trkpt lat="62.63112756806" lon="17.979958788555">
        <ele>101.2</ele>
        <time>2018-02-26T18:19:32Z</time>
      </trkpt>
      <trkpt lat="62.631101500351" lon="17.97993657652">
        <ele>101.2</ele>
        <time>2018-02-26T18:19:33Z</time>
      </trkpt>
      <trkpt lat="62.631080713239" lon="17.979921572919">
        <ele>101.2</ele>
        <time>2018-02-26T18:19:34Z</time>
      </trkpt>
      <trkpt lat="62.631051460408" lon="17.979899444703">
        <ele>101.4</ele>
        <time>2018-02-26T18:19:35Z</time>
      </trkpt>
      <trkpt lat="62.631024051595" lon="17.979882177989">
        <ele>101.4</ele>
        <time>2018-02-26T18:19:36Z</time>
      </trkpt>
      <trkpt lat="62.630999827904" lon="17.979852925158">
        <ele>101.6</ele>
        <time>2018-02-26T18:19:37Z</time>
      </trkpt>
      <trkpt lat="62.630973005824" lon="17.979830042571">
        <ele>101.6</ele>
        <time>2018-02-26T18:19:38Z</time>
      </trkpt>
      <trkpt lat="62.630953811273" lon="17.979808165812">
        <ele>101.8</ele>
        <time>2018-02-26T18:19:39Z</time>
      </trkpt>
      <trkpt lat="62.63093394617" lon="17.979789474175">
        <ele>101.8</ele>
        <time>2018-02-26T18:19:40Z</time>
      </trkpt>
      <trkpt lat="62.63089538943" lon="17.979762149181">
        <ele>101.8</ele>
        <time>2018-02-26T18:19:41Z</time>
      </trkpt>
      <trkpt lat="62.630873177395" lon="17.979730717056">
        <ele>102</ele>
        <time>2018-02-26T18:19:42Z</time>
      </trkpt>
      <trkpt lat="62.630848702247" lon="17.979710432858">
        <ele>102.2</ele>
        <time>2018-02-26T18:19:43Z</time>
      </trkpt>
      <trkpt lat="62.630823724185" lon="17.979684532787">
        <ele>102.4</ele>
        <time>2018-02-26T18:19:44Z</time>
      </trkpt>
      <trkpt lat="62.630802769435" lon="17.979676067068">
        <ele>102.6</ele>
        <time>2018-02-26T18:19:45Z</time>
      </trkpt>
      <trkpt lat="62.630777037002" lon="17.979647568608">
        <ele>102.6</ele>
        <time>2018-02-26T18:19:46Z</time>
      </trkpt>
      <trkpt lat="62.630754657329" lon="17.979622171451">
        <ele>102.6</ele>
        <time>2018-02-26T18:19:47Z</time>
      </trkpt>
      <trkpt lat="62.630733367303" lon="17.979602054891">
        <ele>102.8</ele>
        <time>2018-02-26T18:19:48Z</time>
      </trkpt>
      <trkpt lat="62.630706042309" lon="17.979579172304">
        <ele>102.6</ele>
        <time>2018-02-26T18:19:49Z</time>
      </trkpt>
      <trkpt lat="62.630685087559" lon="17.979555954441">
        <ele>102.8</ele>
        <time>2018-02-26T18:19:50Z</time>
      </trkpt>
      <trkpt lat="62.630657678746" lon="17.979524857592">
        <ele>102.8</ele>
        <time>2018-02-26T18:19:51Z</time>
      </trkpt>
      <trkpt lat="62.630640160575" lon="17.979501136815">
        <ele>103</ele>
        <time>2018-02-26T18:19:52Z</time>
      </trkpt>
      <trkpt lat="62.630616188341" lon="17.979467693034">
        <ele>102.8</ele>
        <time>2018-02-26T18:19:53Z</time>
      </trkpt>
      <trkpt lat="62.630599592179" lon="17.979428884837">
        <ele>102.8</ele>
        <time>2018-02-26T18:19:54Z</time>
      </trkpt>
      <trkpt lat="62.630582912198" lon="17.979393261762">
        <ele>103</ele>
        <time>2018-02-26T18:19:55Z</time>
      </trkpt>
      <trkpt lat="62.630563047095" lon="17.97934649076">
        <ele>103</ele>
        <time>2018-02-26T18:19:56Z</time>
      </trkpt>
      <trkpt lat="62.630544523096" lon="17.979318495214">
        <ele>103</ele>
        <time>2018-02-26T18:19:57Z</time>
      </trkpt>
      <trkpt lat="62.630523568346" lon="17.979273149135">
        <ele>103</ele>
        <time>2018-02-26T18:19:58Z</time>
      </trkpt>
      <trkpt lat="62.630505211985" lon="17.979224282658">
        <ele>102.8</ele>
        <time>2018-02-26T18:19:59Z</time>
      </trkpt>
      <trkpt lat="62.630491800945" lon="17.979180110045">
        <ele>103</ele>
        <time>2018-02-26T18:20:00Z</time>
      </trkpt>
      <trkpt lat="62.630467241978" lon="17.979138032907">
        <ele>103</ele>
        <time>2018-02-26T18:20:01Z</time>
      </trkpt>
      <trkpt lat="62.630450561997" lon="17.979092267733">
        <ele>102.8</ele>
        <time>2018-02-26T18:20:02Z</time>
      </trkpt>
      <trkpt lat="62.630430361618" lon="17.979051028785">
        <ele>102.8</ele>
        <time>2018-02-26T18:20:03Z</time>
      </trkpt>
      <trkpt lat="62.630410328877" lon="17.978999228643">
        <ele>102.8</ele>
        <time>2018-02-26T18:20:04Z</time>
      </trkpt>
      <trkpt lat="62.630392391611" lon="17.978958157333">
        <ele>103</ele>
        <time>2018-02-26T18:20:05Z</time>
      </trkpt>
      <trkpt lat="62.630369760481" lon="17.978901998603">
        <ele>102.8</ele>
        <time>2018-02-26T18:20:06Z</time>
      </trkpt>
      <trkpt lat="62.630349560102" lon="17.978851036651">
        <ele>102.8</ele>
        <time>2018-02-26T18:20:07Z</time>
      </trkpt>
      <trkpt lat="62.630333885949" lon="17.978805522934">
        <ele>102.8</ele>
        <time>2018-02-26T18:20:08Z</time>
      </trkpt>
      <trkpt lat="62.630311087181" lon="17.978750956765">
        <ele>102.6</ele>
        <time>2018-02-26T18:20:09Z</time>
      </trkpt>
      <trkpt lat="62.630298681969" lon="17.978711897111">
        <ele>102.4</ele>
        <time>2018-02-26T18:20:10Z</time>
      </trkpt>
      <trkpt lat="62.630280493246" lon="17.978651715069">
        <ele>102.4</ele>
        <time>2018-02-26T18:20:11Z</time>
      </trkpt>
      <trkpt lat="62.63026758512" lon="17.978591700665">
        <ele>102.2</ele>
        <time>2018-02-26T18:20:12Z</time>
      </trkpt>
      <trkpt lat="62.630248977302" lon="17.978537721229">
        <ele>102</ele>
        <time>2018-02-26T18:20:13Z</time>
      </trkpt>
      <trkpt lat="62.630235230986" lon="17.97848231687">
        <ele>101.8</ele>
        <time>2018-02-26T18:20:14Z</time>
      </trkpt>
      <trkpt lat="62.630224753611" lon="17.978432947479">
        <ele>101.8</ele>
        <time>2018-02-26T18:20:15Z</time>
      </trkpt>
      <trkpt lat="62.630213354227" lon="17.978373603627">
        <ele>101.8</ele>
        <time>2018-02-26T18:20:16Z</time>
      </trkpt>
      <trkpt lat="62.630205642879" lon="17.978307805712">
        <ele>101.6</ele>
        <time>2018-02-26T18:20:17Z</time>
      </trkpt>
      <trkpt lat="62.630197093341" lon="17.978251563163">
        <ele>101.4</ele>
        <time>2018-02-26T18:20:18Z</time>
      </trkpt>
      <trkpt lat="62.630192231839" lon="17.978188531275">
        <ele>101.4</ele>
        <time>2018-02-26T18:20:19Z</time>
      </trkpt>
      <trkpt lat="62.630189046717" lon="17.97813530621">
        <ele>101.4</ele>
        <time>2018-02-26T18:20:20Z</time>
      </trkpt>
      <trkpt lat="62.630185023405" lon="17.97806741282">
        <ele>101.2</ele>
        <time>2018-02-26T18:20:21Z</time>
      </trkpt>
      <trkpt lat="62.630184185215" lon="17.97801293047">
        <ele>101</ele>
        <time>2018-02-26T18:20:22Z</time>
      </trkpt>
      <trkpt lat="62.630179994265" lon="17.977949563306">
        <ele>101</ele>
        <time>2018-02-26T18:20:23Z</time>
      </trkpt>
      <trkpt lat="62.630181922102" lon="17.97788301102">
        <ele>101</ele>
        <time>2018-02-26T18:20:24Z</time>
      </trkpt>
      <trkpt lat="62.630184269034" lon="17.977825008272">
        <ele>101</ele>
        <time>2018-02-26T18:20:25Z</time>
      </trkpt>
      <trkpt lat="62.630186364509" lon="17.977765832058">
        <ele>100.6</ele>
        <time>2018-02-26T18:20:26Z</time>
      </trkpt>
      <trkpt lat="62.630187873251" lon="17.977694082994">
        <ele>100.4</ele>
        <time>2018-02-26T18:20:27Z</time>
      </trkpt>
      <trkpt lat="62.630192818572" lon="17.977641277024">
        <ele>100.4</ele>
        <time>2018-02-26T18:20:28Z</time>
      </trkpt>
      <trkpt lat="62.630197512436" lon="17.977567683942">
        <ele>100.4</ele>
        <time>2018-02-26T18:20:29Z</time>
      </trkpt>
      <trkpt lat="62.630197596255" lon="17.977516135257">
        <ele>100.2</ele>
        <time>2018-02-26T18:20:30Z</time>
      </trkpt>
      <trkpt lat="62.630201619567" lon="17.977444386193">
        <ele>100</ele>
        <time>2018-02-26T18:20:31Z</time>
      </trkpt>
      <trkpt lat="62.630205726698" lon="17.977379929382">
        <ele>100</ele>
        <time>2018-02-26T18:20:32Z</time>
      </trkpt>
      <trkpt lat="62.630207822173" lon="17.977322429548">
        <ele>99.8</ele>
        <time>2018-02-26T18:20:33Z</time>
      </trkpt>
      <trkpt lat="62.630212180761" lon="17.977259732936">
        <ele>99.4</ele>
        <time>2018-02-26T18:20:34Z</time>
      </trkpt>
      <trkpt lat="62.630214276236" lon="17.977201394912">
        <ele>99.4</ele>
        <time>2018-02-26T18:20:35Z</time>
      </trkpt>
      <trkpt lat="62.630216623168" lon="17.977127215097">
        <ele>99.4</ele>
        <time>2018-02-26T18:20:36Z</time>
      </trkpt>
      <trkpt lat="62.630218718643" lon="17.977060914268">
        <ele>99.2</ele>
        <time>2018-02-26T18:20:37Z</time>
      </trkpt>
      <trkpt lat="62.630219389195" lon="17.977007270108">
        <ele>98.8</ele>
        <time>2018-02-26T18:20:38Z</time>
      </trkpt>
      <trkpt lat="62.630224418335" lon="17.9769459146">
        <ele>98.8</ele>
        <time>2018-02-26T18:20:39Z</time>
      </trkpt>
      <trkpt lat="62.630225172706" lon="17.976893443906">
        <ele>98.8</ele>
        <time>2018-02-26T18:20:40Z</time>
      </trkpt>
      <trkpt lat="62.630229279837" lon="17.976826640163">
        <ele>98.6</ele>
        <time>2018-02-26T18:20:41Z</time>
      </trkpt>
      <trkpt lat="62.630234811891" lon="17.976760758429">
        <ele>98.4</ele>
        <time>2018-02-26T18:20:42Z</time>
      </trkpt>
      <trkpt lat="62.630241349773" lon="17.976707281907">
        <ele>98.2</ele>
        <time>2018-02-26T18:20:43Z</time>
      </trkpt>
      <trkpt lat="62.630249899311" lon="17.976638215051">
        <ele>98.2</ele>
        <time>2018-02-26T18:20:44Z</time>
      </trkpt>
      <trkpt lat="62.630254844632" lon="17.976587085461">
        <ele>98.4</ele>
        <time>2018-02-26T18:20:45Z</time>
      </trkpt>
      <trkpt lat="62.630260628143" lon="17.976531513464">
        <ele>98.2</ele>
        <time>2018-02-26T18:20:46Z</time>
      </trkpt>
      <trkpt lat="62.630269177681" lon="17.976473259259">
        <ele>98</ele>
        <time>2018-02-26T18:20:47Z</time>
      </trkpt>
      <trkpt lat="62.630278146314" lon="17.976421626755">
        <ele>97.8</ele>
        <time>2018-02-26T18:20:48Z</time>
      </trkpt>
      <trkpt lat="62.630288707508" lon="17.976361277075">
        <ele>97.8</ele>
        <time>2018-02-26T18:20:49Z</time>
      </trkpt>
      <trkpt lat="62.630295329209" lon="17.976307884372">
        <ele>97.8</ele>
        <time>2018-02-26T18:20:50Z</time>
      </trkpt>
      <trkpt lat="62.630307063869" lon="17.976246445045">
        <ele>97.4</ele>
        <time>2018-02-26T18:20:51Z</time>
      </trkpt>
      <trkpt lat="62.630317122149" lon="17.976192968523">
        <ele>97.6</ele>
        <time>2018-02-26T18:20:52Z</time>
      </trkpt>
      <trkpt lat="62.630326426058" lon="17.976135217232">
        <ele>97.6</ele>
        <time>2018-02-26T18:20:53Z</time>
      </trkpt>
      <trkpt lat="62.63034050765" lon="17.976074113181">
        <ele>97.4</ele>
        <time>2018-02-26T18:20:54Z</time>
      </trkpt>
      <trkpt lat="62.630354924518" lon="17.976027761274">
        <ele>97.4</ele>
        <time>2018-02-26T18:20:55Z</time>
      </trkpt>
      <trkpt lat="62.630369592843" lon="17.975973111286">
        <ele>97.4</ele>
        <time>2018-02-26T18:20:56Z</time>
      </trkpt>
      <trkpt lat="62.630383590616" lon="17.975915192357">
        <ele>97.2</ele>
        <time>2018-02-26T18:20:57Z</time>
      </trkpt>
      <trkpt lat="62.630399013312" lon="17.975863392215">
        <ele>97</ele>
        <time>2018-02-26T18:20:58Z</time>
      </trkpt>
      <trkpt lat="62.630413849275" lon="17.97579507973">
        <ele>96.8</ele>
        <time>2018-02-26T18:20:59Z</time>
      </trkpt>
      <trkpt lat="62.630425500116" lon="17.975746045615">
        <ele>96.8</ele>
        <time>2018-02-26T18:21:00Z</time>
      </trkpt>
      <trkpt lat="62.630441844821" lon="17.975684103374">
        <ele>96.8</ele>
        <time>2018-02-26T18:21:01Z</time>
      </trkpt>
      <trkpt lat="62.630453160386" lon="17.975624172789">
        <ele>96.6</ele>
        <time>2018-02-26T18:21:02Z</time>
      </trkpt>
      <trkpt lat="62.63046372158" lon="17.975573294656">
        <ele>96.6</ele>
        <time>2018-02-26T18:21:03Z</time>
      </trkpt>
      <trkpt lat="62.630475959154" lon="17.975534737916">
        <ele>96.4</ele>
        <time>2018-02-26T18:21:04Z</time>
      </trkpt>
      <trkpt lat="62.630494566972" lon="17.97546650925">
        <ele>96.4</ele>
        <time>2018-02-26T18:21:05Z</time>
      </trkpt>
      <trkpt lat="62.630513845342" lon="17.975409596149">
        <ele>96.4</ele>
        <time>2018-02-26T18:21:06Z</time>
      </trkpt>
      <trkpt lat="62.630527843115" lon="17.975357209274">
        <ele>96.2</ele>
        <time>2018-02-26T18:21:07Z</time>
      </trkpt>
      <trkpt lat="62.63054251144" lon="17.975294261205">
        <ele>96</ele>
        <time>2018-02-26T18:21:08Z</time>
      </trkpt>
      <trkpt lat="62.630556676851" lon="17.975245478547">
        <ele>96</ele>
        <time>2018-02-26T18:21:09Z</time>
      </trkpt>
      <trkpt lat="62.630565477846" lon="17.975198372269">
        <ele>96</ele>
        <time>2018-02-26T18:21:10Z</time>
      </trkpt>
      <trkpt lat="62.630582157827" lon="17.975137268218">
        <ele>95.8</ele>
        <time>2018-02-26T18:21:11Z</time>
      </trkpt>
      <trkpt lat="62.630592299926" lon="17.975090832492">
        <ele>95.4</ele>
        <time>2018-02-26T18:21:12Z</time>
      </trkpt>
      <trkpt lat="62.630607974079" lon="17.975040373454">
        <ele>95.4</ele>
        <time>2018-02-26T18:21:13Z</time>
      </trkpt>
      <trkpt lat="62.630621971852" lon="17.974995362651">
        <ele>95.6</ele>
        <time>2018-02-26T18:21:14Z</time>
      </trkpt>
      <trkpt lat="62.630633119779" lon="17.974944652156">
        <ele>95.4</ele>
        <time>2018-02-26T18:21:15Z</time>
      </trkpt>
      <trkpt lat="62.630647452828" lon="17.9748839672">
        <ele>95.2</ele>
        <time>2018-02-26T18:21:16Z</time>
      </trkpt>
      <trkpt lat="62.630660109497" lon="17.974826048271">
        <ele>95.2</ele>
        <time>2018-02-26T18:21:17Z</time>
      </trkpt>
      <trkpt lat="62.630674861641" lon="17.974771985016">
        <ele>95.2</ele>
        <time>2018-02-26T18:21:18Z</time>
      </trkpt>
      <trkpt lat="62.630687183034" lon="17.974724459643">
        <ele>95</ele>
        <time>2018-02-26T18:21:19Z</time>
      </trkpt>
      <trkpt lat="62.630704617386" lon="17.974671821311">
        <ele>94.8</ele>
        <time>2018-02-26T18:21:20Z</time>
      </trkpt>
      <trkpt lat="62.63072104591" lon="17.974617674237">
        <ele>94.8</ele>
        <time>2018-02-26T18:21:21Z</time>
      </trkpt>
      <trkpt lat="62.630732193837" lon="17.974571741425">
        <ele>94.8</ele>
        <time>2018-02-26T18:21:22Z</time>
      </trkpt>
      <trkpt lat="62.630750969293" lon="17.97451348722">
        <ele>94.8</ele>
        <time>2018-02-26T18:21:23Z</time>
      </trkpt>
      <trkpt lat="62.630763542143" lon="17.974461016526">
        <ele>94.8</ele>
        <time>2018-02-26T18:21:24Z</time>
      </trkpt>
      <trkpt lat="62.630779216296" lon="17.974407372366">
        <ele>94.8</ele>
        <time>2018-02-26T18:21:25Z</time>
      </trkpt>
      <trkpt lat="62.630793381707" lon="17.974351968007">
        <ele>94.8</ele>
        <time>2018-02-26T18:21:26Z</time>
      </trkpt>
      <trkpt lat="62.63081073224" lon="17.974300000227">
        <ele>94.8</ele>
        <time>2018-02-26T18:21:27Z</time>
      </trkpt>
      <trkpt lat="62.630824394737" lon="17.974250547017">
        <ele>94.8</ele>
        <time>2018-02-26T18:21:28Z</time>
      </trkpt>
      <trkpt lat="62.630838224872" lon="17.97420000416">
        <ele>95</ele>
        <time>2018-02-26T18:21:29Z</time>
      </trkpt>
      <trkpt lat="62.630854150482" lon="17.97415055095">
        <ele>95.2</ele>
        <time>2018-02-26T18:21:30Z</time>
      </trkpt>
      <trkpt lat="62.630867561522" lon="17.97410193593">
        <ele>95.2</ele>
        <time>2018-02-26T18:21:31Z</time>
      </trkpt>
      <trkpt lat="62.630885498788" lon="17.974051895987">
        <ele>95.2</ele>
        <time>2018-02-26T18:21:32Z</time>
      </trkpt>
      <trkpt lat="62.630899915656" lon="17.974011495229">
        <ele>95.2</ele>
        <time>2018-02-26T18:21:33Z</time>
      </trkpt>
      <trkpt lat="62.630915254533" lon="17.973976123611">
        <ele>95.2</ele>
        <time>2018-02-26T18:21:34Z</time>
      </trkpt>
      <trkpt lat="62.630925396632" lon="17.973921892718">
        <ele>95</ele>
        <time>2018-02-26T18:21:35Z</time>
      </trkpt>
      <trkpt lat="62.630921792415" lon="17.973867494187">
        <ele>94.8</ele>
        <time>2018-02-26T18:21:36Z</time>
      </trkpt>
      <trkpt lat="62.630907543185" lon="17.973813095656">
        <ele>94.6</ele>
        <time>2018-02-26T18:21:37Z</time>
      </trkpt>
      <trkpt lat="62.630884828236" lon="17.973789374879">
        <ele>94.6</ele>
        <time>2018-02-26T18:21:38Z</time>
      </trkpt>
      <trkpt lat="62.630865968961" lon="17.973739418755">
        <ele>94.4</ele>
        <time>2018-02-26T18:21:39Z</time>
      </trkpt>
      <trkpt lat="62.630851971188" lon="17.973694659409">
        <ele>94.4</ele>
        <time>2018-02-26T18:21:40Z</time>
      </trkpt>
      <trkpt lat="62.630835626483" lon="17.973648810416">
        <ele>94.2</ele>
        <time>2018-02-26T18:21:41Z</time>
      </trkpt>
      <trkpt lat="62.630819533235" lon="17.973588712193">
        <ele>94.2</ele>
        <time>2018-02-26T18:21:42Z</time>
      </trkpt>
      <trkpt lat="62.630803104711" lon="17.973545042494">
        <ele>94.2</ele>
        <time>2018-02-26T18:21:43Z</time>
      </trkpt>
      <trkpt lat="62.630785251264" lon="17.973493996723">
        <ele>94.2</ele>
        <time>2018-02-26T18:21:44Z</time>
      </trkpt>
      <trkpt lat="62.630770331482" lon="17.973448734463">
        <ele>94</ele>
        <time>2018-02-26T18:21:45Z</time>
      </trkpt>
      <trkpt lat="62.630755998433" lon="17.973397604873">
        <ele>94</ele>
        <time>2018-02-26T18:21:46Z</time>
      </trkpt>
      <trkpt lat="62.630740911013" lon="17.973338093383">
        <ele>94</ele>
        <time>2018-02-26T18:21:47Z</time>
      </trkpt>
      <trkpt lat="62.630728673439" lon="17.973295429512">
        <ele>93.8</ele>
        <time>2018-02-26T18:21:48Z</time>
      </trkpt>
      <trkpt lat="62.630707970146" lon="17.973231391796">
        <ele>94</ele>
        <time>2018-02-26T18:21:49Z</time>
      </trkpt>
      <trkpt lat="62.630692966545" lon="17.973185961898">
        <ele>93.8</ele>
        <time>2018-02-26T18:21:50Z</time>
      </trkpt>
      <trkpt lat="62.630674023451" lon="17.973124690209">
        <ele>93.6</ele>
        <time>2018-02-26T18:21:51Z</time>
      </trkpt>
      <trkpt lat="62.630658600755" lon="17.973081523424">
        <ele>93.6</ele>
        <time>2018-02-26T18:21:52Z</time>
      </trkpt>
      <trkpt lat="62.630639992937" lon="17.973028382178">
        <ele>93.6</ele>
        <time>2018-02-26T18:21:53Z</time>
      </trkpt>
      <trkpt lat="62.630628090639" lon="17.972970547068">
        <ele>93.6</ele>
        <time>2018-02-26T18:21:54Z</time>
      </trkpt>
      <trkpt lat="62.630615769246" lon="17.972925620084">
        <ele>93.2</ele>
        <time>2018-02-26T18:21:55Z</time>
      </trkpt>
      <trkpt lat="62.630599927455" lon="17.972862336739">
        <ele>93.2</ele>
        <time>2018-02-26T18:21:56Z</time>
      </trkpt>
      <trkpt lat="62.630585929682" lon="17.972816236289">
        <ele>93.2</ele>
        <time>2018-02-26T18:21:57Z</time>
      </trkpt>
      <trkpt lat="62.630571093719" lon="17.972766783079">
        <ele>93.2</ele>
        <time>2018-02-26T18:21:58Z</time>
      </trkpt>
      <trkpt lat="62.630554665195" lon="17.972704170286">
        <ele>93.2</ele>
        <time>2018-02-26T18:21:59Z</time>
      </trkpt>
      <trkpt lat="62.630542930535" lon="17.972650609945">
        <ele>93</ele>
        <time>2018-02-26T18:22:00Z</time>
      </trkpt>
      <trkpt lat="62.63052742402" lon="17.972586907505">
        <ele>93</ele>
        <time>2018-02-26T18:22:01Z</time>
      </trkpt>
      <trkpt lat="62.630512001324" lon="17.972539382132">
        <ele>93</ele>
        <time>2018-02-26T18:22:02Z</time>
      </trkpt>
      <trkpt lat="62.630501775406" lon="17.972483810135">
        <ele>93</ele>
        <time>2018-02-26T18:22:03Z</time>
      </trkpt>
      <trkpt lat="62.63048970547" lon="17.972427483767">
        <ele>93</ele>
        <time>2018-02-26T18:22:04Z</time>
      </trkpt>
      <trkpt lat="62.630470259462" lon="17.97232162037">
        <ele>92.8</ele>
        <time>2018-02-26T18:22:06Z</time>
      </trkpt>
      <trkpt lat="62.630465565598" lon="17.972262611794">
        <ele>92.8</ele>
        <time>2018-02-26T18:22:07Z</time>
      </trkpt>
      <trkpt lat="62.630455842594" lon="17.972180469174">
        <ele>92.8</ele>
        <time>2018-02-26T18:22:09Z</time>
      </trkpt>
      <trkpt lat="62.63044444321" lon="17.972125148634">
        <ele>93</ele>
        <time>2018-02-26T18:22:10Z</time>
      </trkpt>
      <trkpt lat="62.630435055482" lon="17.972059769814">
        <ele>92.8</ele>
        <time>2018-02-26T18:22:11Z</time>
      </trkpt>
      <trkpt lat="62.630426338306" lon="17.97199472627">
        <ele>92.6</ele>
        <time>2018-02-26T18:22:12Z</time>
      </trkpt>
      <trkpt lat="62.630416531483" lon="17.971928676898">
        <ele>92.6</ele>
        <time>2018-02-26T18:22:13Z</time>
      </trkpt>
      <trkpt lat="62.630408987773" lon="17.971866734657">
        <ele>92.8</ele>
        <time>2018-02-26T18:22:14Z</time>
      </trkpt>
      <trkpt lat="62.630406389384" lon="17.971806804072">
        <ele>92.6</ele>
        <time>2018-02-26T18:22:15Z</time>
      </trkpt>
      <trkpt lat="62.630403036624" lon="17.971747963134">
        <ele>92.4</ele>
        <time>2018-02-26T18:22:16Z</time>
      </trkpt>
      <trkpt lat="62.630396917837" lon="17.971694318974">
        <ele>92.2</ele>
        <time>2018-02-26T18:22:17Z</time>
      </trkpt>
      <trkpt lat="62.630389457946" lon="17.971629359249">
        <ele>92.2</ele>
        <time>2018-02-26T18:22:18Z</time>
      </trkpt>
      <trkpt lat="62.63038241715" lon="17.971566746456">
        <ele>92.2</ele>
        <time>2018-02-26T18:22:19Z</time>
      </trkpt>
      <trkpt lat="62.630376885096" lon="17.971506312957">
        <ele>92.2</ele>
        <time>2018-02-26T18:22:20Z</time>
      </trkpt>
      <trkpt lat="62.630369760481" lon="17.971444370716">
        <ele>92.2</ele>
        <time>2018-02-26T18:22:21Z</time>
      </trkpt>
      <trkpt lat="62.630362049133" lon="17.971385613597">
        <ele>92.2</ele>
        <time>2018-02-26T18:22:22Z</time>
      </trkpt>
      <trkpt lat="62.63035559507" lon="17.971317720207">
        <ele>92</ele>
        <time>2018-02-26T18:22:23Z</time>
      </trkpt>
      <trkpt lat="62.630351571758" lon="17.971256867613">
        <ele>92</ele>
        <time>2018-02-26T18:22:24Z</time>
      </trkpt>
      <trkpt lat="62.630348721912" lon="17.971199786874">
        <ele>92</ele>
        <time>2018-02-26T18:22:25Z</time>
      </trkpt>
      <trkpt lat="62.630346123523" lon="17.971135162425">
        <ele>92</ele>
        <time>2018-02-26T18:22:26Z</time>
      </trkpt>
      <trkpt lat="62.630344279505" lon="17.971073052546">
        <ele>92</ele>
        <time>2018-02-26T18:22:27Z</time>
      </trkpt>
      <trkpt lat="62.630342770763" lon="17.971017648187">
        <ele>91.8</ele>
        <time>2018-02-26T18:22:28Z</time>
      </trkpt>
      <trkpt lat="62.630343189858" lon="17.970957130869">
        <ele>91.6</ele>
        <time>2018-02-26T18:22:29Z</time>
      </trkpt>
      <trkpt lat="62.63034302222" lon="17.970903486709">
        <ele>91.6</ele>
        <time>2018-02-26T18:22:30Z</time>
      </trkpt>
      <trkpt lat="62.630342016392" lon="17.970840706278">
        <ele>91.6</ele>
        <time>2018-02-26T18:22:31Z</time>
      </trkpt>
      <trkpt lat="62.630342854582" lon="17.970776333286">
        <ele>91.6</ele>
        <time>2018-02-26T18:22:32Z</time>
      </trkpt>
      <trkpt lat="62.630346626437" lon="17.970722772945">
        <ele>91.6</ele>
        <time>2018-02-26T18:22:33Z</time>
      </trkpt>
      <trkpt lat="62.630354337785" lon="17.970666865672">
        <ele>91.6</ele>
        <time>2018-02-26T18:22:34Z</time>
      </trkpt>
      <trkpt lat="62.630365485712" lon="17.970612802417">
        <ele>91.6</ele>
        <time>2018-02-26T18:22:35Z</time>
      </trkpt>
      <trkpt lat="62.630381830417" lon="17.970560415542">
        <ele>91.6</ele>
        <time>2018-02-26T18:22:36Z</time>
      </trkpt>
      <trkpt lat="62.630402785167" lon="17.970509621228">
        <ele>91.4</ele>
        <time>2018-02-26T18:22:37Z</time>
      </trkpt>
      <trkpt lat="62.630425248659" lon="17.970461928217">
        <ele>91.4</ele>
        <time>2018-02-26T18:22:38Z</time>
      </trkpt>
      <trkpt lat="62.630450478178" lon="17.970421108364">
        <ele>91.2</ele>
        <time>2018-02-26T18:22:39Z</time>
      </trkpt>
      <trkpt lat="62.630474869507" lon="17.970389257144">
        <ele>90.8</ele>
        <time>2018-02-26T18:22:40Z</time>
      </trkpt>
      <trkpt lat="62.630506217813" lon="17.970357238286">
        <ele>90.6</ele>
        <time>2018-02-26T18:22:41Z</time>
      </trkpt>
      <trkpt lat="62.630535386825" lon="17.970334355699">
        <ele>90.4</ele>
        <time>2018-02-26T18:22:42Z</time>
      </trkpt>
      <trkpt lat="62.630562711819" lon="17.970313820044">
        <ele>90.2</ele>
        <time>2018-02-26T18:22:43Z</time>
      </trkpt>
      <trkpt lat="62.630589114804" lon="17.97029403876">
        <ele>89.8</ele>
        <time>2018-02-26T18:22:44Z</time>
      </trkpt>
      <trkpt lat="62.630614763418" lon="17.970276269132">
        <ele>89.6</ele>
        <time>2018-02-26T18:22:45Z</time>
      </trkpt>
      <trkpt lat="62.630644267706" lon="17.970263361006">
        <ele>89.4</ele>
        <time>2018-02-26T18:22:46Z</time>
      </trkpt>
      <trkpt lat="62.630673688175" lon="17.970249363233">
        <ele>89.2</ele>
        <time>2018-02-26T18:22:47Z</time>
      </trkpt>
      <trkpt lat="62.630701683721" lon="17.970234946365">
        <ele>89.2</ele>
        <time>2018-02-26T18:22:48Z</time>
      </trkpt>
      <trkpt lat="62.63073445695" lon="17.970219775126">
        <ele>89</ele>
        <time>2018-02-26T18:22:49Z</time>
      </trkpt>
      <trkpt lat="62.630761530487" lon="17.970205944991">
        <ele>88.8</ele>
        <time>2018-02-26T18:22:50Z</time>
      </trkpt>
      <trkpt lat="62.630792459698" lon="17.970188929734">
        <ele>88.8</ele>
        <time>2018-02-26T18:22:51Z</time>
      </trkpt>
      <trkpt lat="62.63081827595" lon="17.970171998296">
        <ele>88.8</ele>
        <time>2018-02-26T18:22:52Z</time>
      </trkpt>
      <trkpt lat="62.630850210989" lon="17.970152217012">
        <ele>88.6</ele>
        <time>2018-02-26T18:22:53Z</time>
      </trkpt>
      <trkpt lat="62.630880385829" lon="17.970132184271">
        <ele>88.6</ele>
        <time>2018-02-26T18:22:54Z</time>
      </trkpt>
      <trkpt lat="62.630910057755" lon="17.970111732435">
        <ele>88.6</ele>
        <time>2018-02-26T18:22:55Z</time>
      </trkpt>
      <trkpt lat="62.630940484052" lon="17.970094717178">
        <ele>88.6</ele>
        <time>2018-02-26T18:22:56Z</time>
      </trkpt>
      <trkpt lat="62.630968479598" lon="17.970088598391">
        <ele>88.4</ele>
        <time>2018-02-26T18:22:57Z</time>
      </trkpt>
      <trkpt lat="62.630996475144" lon="17.970079378301">
        <ele>88.4</ele>
        <time>2018-02-26T18:22:58Z</time>
      </trkpt>
      <trkpt lat="62.631025560337" lon="17.970066470175">
        <ele>88.4</ele>
        <time>2018-02-26T18:22:59Z</time>
      </trkpt>
      <trkpt lat="62.631053974978" lon="17.9700559928">
        <ele>88.4</ele>
        <time>2018-02-26T18:23:00Z</time>
      </trkpt>
      <trkpt lat="62.631085239465" lon="17.970042665579">
        <ele>88.4</ele>
        <time>2018-02-26T18:23:01Z</time>
      </trkpt>
      <trkpt lat="62.631117593599" lon="17.970027159064">
        <ele>88.2</ele>
        <time>2018-02-26T18:23:02Z</time>
      </trkpt>
      <trkpt lat="62.631147181706" lon="17.970012155463">
        <ele>88.2</ele>
        <time>2018-02-26T18:23:03Z</time>
      </trkpt>
      <trkpt lat="62.631176853632" lon="17.96999815769">
        <ele>88.2</ele>
        <time>2018-02-26T18:23:04Z</time>
      </trkpt>
      <trkpt lat="62.631208788671" lon="17.969978627863">
        <ele>88</ele>
        <time>2018-02-26T18:23:05Z</time>
      </trkpt>
      <trkpt lat="62.631241394262" lon="17.96995960095">
        <ele>88</ele>
        <time>2018-02-26T18:23:06Z</time>
      </trkpt>
      <trkpt lat="62.631271652921" lon="17.969944010616">
        <ele>87.8</ele>
        <time>2018-02-26T18:23:07Z</time>
      </trkpt>
      <trkpt lat="62.631300654295" lon="17.969926576264">
        <ele>87.6</ele>
        <time>2018-02-26T18:23:08Z</time>
      </trkpt>
      <trkpt lat="62.631329236574" lon="17.969906292066">
        <ele>87.4</ele>
        <time>2018-02-26T18:23:09Z</time>
      </trkpt>
      <trkpt lat="62.631354633731" lon="17.969888438619">
        <ele>87.2</ele>
        <time>2018-02-26T18:23:10Z</time>
      </trkpt>
      <trkpt lat="62.631384724752" lon="17.969871842457">
        <ele>87.4</ele>
        <time>2018-02-26T18:23:11Z</time>
      </trkpt>
      <trkpt lat="62.631412385022" lon="17.969858515236">
        <ele>87.4</ele>
        <time>2018-02-26T18:23:12Z</time>
      </trkpt>
      <trkpt lat="62.631442056948" lon="17.96983890159">
        <ele>87.4</ele>
        <time>2018-02-26T18:23:13Z</time>
      </trkpt>
      <trkpt lat="62.631471477417" lon="17.969821383419">
        <ele>87.4</ele>
        <time>2018-02-26T18:23:14Z</time>
      </trkpt>
      <trkpt lat="62.631497628945" lon="17.969806128361">
        <ele>87.4</ele>
        <time>2018-02-26T18:23:15Z</time>
      </trkpt>
      <trkpt lat="62.631526211224" lon="17.969790370389">
        <ele>87.4</ele>
        <time>2018-02-26T18:23:16Z</time>
      </trkpt>
      <trkpt lat="62.631556805159" lon="17.969771594933">
        <ele>87.4</ele>
        <time>2018-02-26T18:23:17Z</time>
      </trkpt>
      <trkpt lat="62.631585722714" lon="17.969754998771">
        <ele>87.4</ele>
        <time>2018-02-26T18:23:18Z</time>
      </trkpt>
      <trkpt lat="62.631617154839" lon="17.96973496603">
        <ele>87.2</ele>
        <time>2018-02-26T18:23:19Z</time>
      </trkpt>
      <trkpt lat="62.631644479833" lon="17.969712167262">
        <ele>87.2</ele>
        <time>2018-02-26T18:23:20Z</time>
      </trkpt>
      <trkpt lat="62.631675073768" lon="17.969684339354">
        <ele>87.2</ele>
        <time>2018-02-26T18:23:21Z</time>
      </trkpt>
      <trkpt lat="62.631700973839" lon="17.969656679084">
        <ele>87.2</ele>
        <time>2018-02-26T18:23:22Z</time>
      </trkpt>
      <trkpt lat="62.631729891394" lon="17.969625246959">
        <ele>87</ele>
        <time>2018-02-26T18:23:23Z</time>
      </trkpt>
      <trkpt lat="62.631757467845" lon="17.969594569205">
        <ele>87</ele>
        <time>2018-02-26T18:23:24Z</time>
      </trkpt>
      <trkpt lat="62.631784457563" lon="17.969570010238">
        <ele>86.8</ele>
        <time>2018-02-26T18:23:25Z</time>
      </trkpt>
      <trkpt lat="62.63181572205" lon="17.969551486239">
        <ele>86.6</ele>
        <time>2018-02-26T18:23:26Z</time>
      </trkpt>
      <trkpt lat="62.631845980709" lon="17.969543188158">
        <ele>86.4</ele>
        <time>2018-02-26T18:23:27Z</time>
      </trkpt>
      <trkpt lat="62.631871796961" lon="17.969536817914">
        <ele>86.6</ele>
        <time>2018-02-26T18:23:28Z</time>
      </trkpt>
      <trkpt lat="62.631902558534" lon="17.969537739923">
        <ele>86.6</ele>
        <time>2018-02-26T18:23:29Z</time>
      </trkpt>
      <trkpt lat="62.631929129157" lon="17.969541511778">
        <ele>86.8</ele>
        <time>2018-02-26T18:23:30Z</time>
      </trkpt>
      <trkpt lat="62.631957292341" lon="17.969541763235">
        <ele>86.8</ele>
        <time>2018-02-26T18:23:31Z</time>
      </trkpt>
      <trkpt lat="62.631986628991" lon="17.969536315">
        <ele>86.8</ele>
        <time>2018-02-26T18:23:32Z</time>
      </trkpt>
      <trkpt lat="62.632014456899" lon="17.969530782946">
        <ele>86.8</ele>
        <time>2018-02-26T18:23:33Z</time>
      </trkpt>
      <trkpt lat="62.632040524608" lon="17.969526508177">
        <ele>86.8</ele>
        <time>2018-02-26T18:23:34Z</time>
      </trkpt>
      <trkpt lat="62.632068268697" lon="17.969520976123">
        <ele>87</ele>
        <time>2018-02-26T18:23:35Z</time>
      </trkpt>
      <trkpt lat="62.632097772985" lon="17.969517455725">
        <ele>87</ele>
        <time>2018-02-26T18:23:36Z</time>
      </trkpt>
      <trkpt lat="62.632125768531" lon="17.969509912015">
        <ele>87.2</ele>
        <time>2018-02-26T18:23:37Z</time>
      </trkpt>
      <trkpt lat="62.632154602267" lon="17.969504966694">
        <ele>87.2</ele>
        <time>2018-02-26T18:23:38Z</time>
      </trkpt>
      <trkpt lat="62.632183603641" lon="17.969501362477">
        <ele>87</ele>
        <time>2018-02-26T18:23:39Z</time>
      </trkpt>
      <trkpt lat="62.632212018282" lon="17.969496165699">
        <ele>87</ele>
        <time>2018-02-26T18:23:40Z</time>
      </trkpt>
      <trkpt lat="62.632239259457" lon="17.969485101591">
        <ele>87</ele>
        <time>2018-02-26T18:23:41Z</time>
      </trkpt>
      <trkpt lat="62.632267171184" lon="17.96947512713">
        <ele>87</ele>
        <time>2018-02-26T18:23:42Z</time>
      </trkpt>
      <trkpt lat="62.632295669644" lon="17.969474372759">
        <ele>87</ele>
        <time>2018-02-26T18:23:43Z</time>
      </trkpt>
      <trkpt lat="62.632322491724" lon="17.969471690551">
        <ele>87</ele>
        <time>2018-02-26T18:23:44Z</time>
      </trkpt>
      <trkpt lat="62.63234881089" lon="17.969468505429">
        <ele>87</ele>
        <time>2018-02-26T18:23:45Z</time>
      </trkpt>
      <trkpt lat="62.632378734273" lon="17.969467667239">
        <ele>87.2</ele>
        <time>2018-02-26T18:23:46Z</time>
      </trkpt>
      <trkpt lat="62.632408154742" lon="17.969468505429">
        <ele>87</ele>
        <time>2018-02-26T18:23:47Z</time>
      </trkpt>
      <trkpt lat="62.632436988478" lon="17.969475630044">
        <ele>87</ele>
        <time>2018-02-26T18:23:48Z</time>
      </trkpt>
      <trkpt lat="62.632464397291" lon="17.96947931808">
        <ele>87.2</ele>
        <time>2018-02-26T18:23:49Z</time>
      </trkpt>
      <trkpt lat="62.632491806104" lon="17.969482503202">
        <ele>87.2</ele>
        <time>2018-02-26T18:23:50Z</time>
      </trkpt>
      <trkpt lat="62.632521645668" lon="17.96948518541">
        <ele>87.4</ele>
        <time>2018-02-26T18:23:51Z</time>
      </trkpt>
      <trkpt lat="62.632548467748" lon="17.969490130731">
        <ele>87.2</ele>
        <time>2018-02-26T18:23:52Z</time>
      </trkpt>
      <trkpt lat="62.632579229321" lon="17.969498344993">
        <ele>87.4</ele>
        <time>2018-02-26T18:23:53Z</time>
      </trkpt>
      <trkpt lat="62.632606470496" lon="17.969505050513">
        <ele>87.4</ele>
        <time>2018-02-26T18:23:54Z</time>
      </trkpt>
      <trkpt lat="62.63263128092" lon="17.969513516232">
        <ele>87.4</ele>
        <time>2018-02-26T18:23:55Z</time>
      </trkpt>
      <trkpt lat="62.632661958674" lon="17.969517288087">
        <ele>87.4</ele>
        <time>2018-02-26T18:23:56Z</time>
      </trkpt>
      <trkpt lat="62.632689702763" lon="17.969518629191">
        <ele>87.8</ele>
        <time>2018-02-26T18:23:57Z</time>
      </trkpt>
      <trkpt lat="62.63271509992" lon="17.969520054114">
        <ele>87.8</ele>
        <time>2018-02-26T18:23:58Z</time>
      </trkpt>
      <trkpt lat="62.632743682199" lon="17.969522233408">
        <ele>88</ele>
        <time>2018-02-26T18:23:59Z</time>
      </trkpt>
      <trkpt lat="62.632771593926" lon="17.96952038939">
        <ele>88</ele>
        <time>2018-02-26T18:24:00Z</time>
      </trkpt>
      <trkpt lat="62.632799505653" lon="17.969518545372">
        <ele>88</ele>
        <time>2018-02-26T18:24:01Z</time>
      </trkpt>
      <trkpt lat="62.632824986629" lon="17.969523574512">
        <ele>88</ele>
        <time>2018-02-26T18:24:02Z</time>
      </trkpt>
      <trkpt lat="62.632850719062" lon="17.969530699127">
        <ele>87.8</ele>
        <time>2018-02-26T18:24:03Z</time>
      </trkpt>
      <trkpt lat="62.632875278029" lon="17.969534051887">
        <ele>87.8</ele>
        <time>2018-02-26T18:24:04Z</time>
      </trkpt>
      <trkpt lat="62.632901681014" lon="17.969536231181">
        <ele>87.8</ele>
        <time>2018-02-26T18:24:05Z</time>
      </trkpt>
      <trkpt lat="62.632929089827" lon="17.969543691072">
        <ele>87.8</ele>
        <time>2018-02-26T18:24:06Z</time>
      </trkpt>
      <trkpt lat="62.632955157536" lon="17.969546876194">
        <ele>87.8</ele>
        <time>2018-02-26T18:24:07Z</time>
      </trkpt>
      <trkpt lat="62.632982650168" lon="17.969550061316">
        <ele>87.8</ele>
        <time>2018-02-26T18:24:08Z</time>
      </trkpt>
      <trkpt lat="62.633009639886" lon="17.969559029949">
        <ele>88.2</ele>
        <time>2018-02-26T18:24:09Z</time>
      </trkpt>
      <trkpt lat="62.63303612669" lon="17.969569423505">
        <ele>88.2</ele>
        <time>2018-02-26T18:24:10Z</time>
      </trkpt>
      <trkpt lat="62.633061523847" lon="17.96958325364">
        <ele>88.4</ele>
        <time>2018-02-26T18:24:11Z</time>
      </trkpt>
      <trkpt lat="62.633088597384" lon="17.969588953332">
        <ele>88.4</ele>
        <time>2018-02-26T18:24:12Z</time>
      </trkpt>
      <trkpt lat="62.633116257654" lon="17.969598257241">
        <ele>88.4</ele>
        <time>2018-02-26T18:24:13Z</time>
      </trkpt>
      <trkpt lat="62.633142995915" lon="17.969602196734">
        <ele>88.4</ele>
        <time>2018-02-26T18:24:14Z</time>
      </trkpt>
      <trkpt lat="62.633169147443" lon="17.969609824263">
        <ele>88.4</ele>
        <time>2018-02-26T18:24:15Z</time>
      </trkpt>
      <trkpt lat="62.633194460781" lon="17.969620636914">
        <ele>88.6</ele>
        <time>2018-02-26T18:24:16Z</time>
      </trkpt>
      <trkpt lat="62.633225054716" lon="17.969632371574">
        <ele>88.8</ele>
        <time>2018-02-26T18:24:17Z</time>
      </trkpt>
      <trkpt lat="62.633253553176" lon="17.969647710451">
        <ele>88.8</ele>
        <time>2018-02-26T18:24:18Z</time>
      </trkpt>
      <trkpt lat="62.633280626713" lon="17.969664893346">
        <ele>88.8</ele>
        <time>2018-02-26T18:24:19Z</time>
      </trkpt>
      <trkpt lat="62.633303844576" lon="17.969686518648">
        <ele>88.8</ele>
        <time>2018-02-26T18:24:20Z</time>
      </trkpt>
      <trkpt lat="62.633328738819" lon="17.969716442031">
        <ele>88.8</ele>
        <time>2018-02-26T18:24:21Z</time>
      </trkpt>
      <trkpt lat="62.633346759904" lon="17.969753238572">
        <ele>88.8</ele>
        <time>2018-02-26T18:24:22Z</time>
      </trkpt>
      <trkpt lat="62.63336302079" lon="17.969797411185">
        <ele>89</ele>
        <time>2018-02-26T18:24:23Z</time>
      </trkpt>
      <trkpt lat="62.633375426002" lon="17.969848373137">
        <ele>88.8</ele>
        <time>2018-02-26T18:24:24Z</time>
      </trkpt>
      <trkpt lat="62.633383891721" lon="17.969896485243">
        <ele>89</ele>
        <time>2018-02-26T18:24:25Z</time>
      </trkpt>
      <trkpt lat="62.633391938345" lon="17.969961025873">
        <ele>89</ele>
        <time>2018-02-26T18:24:26Z</time>
      </trkpt>
      <trkpt lat="62.633397302761" lon="17.970017268422">
        <ele>89</ele>
        <time>2018-02-26T18:24:27Z</time>
      </trkpt>
      <trkpt lat="62.633401912806" lon="17.970068649469">
        <ele>89</ele>
        <time>2018-02-26T18:24:28Z</time>
      </trkpt>
      <trkpt lat="62.633407696317" lon="17.970125478751">
        <ele>89.2</ele>
        <time>2018-02-26T18:24:29Z</time>
      </trkpt>
      <trkpt lat="62.633412809276" lon="17.970175183418">
        <ele>89.6</ele>
        <time>2018-02-26T18:24:30Z</time>
      </trkpt>
      <trkpt lat="62.633416245855" lon="17.970235533098">
        <ele>89.6</ele>
        <time>2018-02-26T18:24:31Z</time>
      </trkpt>
      <trkpt lat="62.633421107357" lon="17.970290518362">
        <ele>89.8</ele>
        <time>2018-02-26T18:24:32Z</time>
      </trkpt>
      <trkpt lat="62.633424376298" lon="17.970351790051">
        <ele>90</ele>
        <time>2018-02-26T18:24:33Z</time>
      </trkpt>
      <trkpt lat="62.63342672323" lon="17.970407781143">
        <ele>90.2</ele>
        <time>2018-02-26T18:24:34Z</time>
      </trkpt>
      <trkpt lat="62.633432255284" lon="17.970467376452">
        <ele>90.4</ele>
        <time>2018-02-26T18:24:35Z</time>
      </trkpt>
      <trkpt lat="62.633438793166" lon="17.970528061408">
        <ele>90.6</ele>
        <time>2018-02-26T18:24:36Z</time>
      </trkpt>
      <trkpt lat="62.633443738487" lon="17.970585058328">
        <ele>90.6</ele>
        <time>2018-02-26T18:24:37Z</time>
      </trkpt>
      <trkpt lat="62.633446253057" lon="17.970639875954">
        <ele>90.6</ele>
        <time>2018-02-26T18:24:38Z</time>
      </trkpt>
      <trkpt lat="62.633450360188" lon="17.970691173182">
        <ele>90.6</ele>
        <time>2018-02-26T18:24:39Z</time>
      </trkpt>
      <trkpt lat="62.633453126215" lon="17.970738782374">
        <ele>90.6</ele>
        <time>2018-02-26T18:24:40Z</time>
      </trkpt>
      <trkpt lat="62.633455054052" lon="17.970802568633">
        <ele>91</ele>
        <time>2018-02-26T18:24:41Z</time>
      </trkpt>
      <trkpt lat="62.633455054052" lon="17.970858727363">
        <ele>91</ele>
        <time>2018-02-26T18:24:42Z</time>
      </trkpt>
      <trkpt lat="62.63345522169" lon="17.970913544989">
        <ele>91.2</ele>
        <time>2018-02-26T18:24:43Z</time>
      </trkpt>
      <trkpt lat="62.633456646613" lon="17.970971044823">
        <ele>91.2</ele>
        <time>2018-02-26T18:24:44Z</time>
      </trkpt>
      <trkpt lat="62.633456646613" lon="17.971029047571">
        <ele>91.2</ele>
        <time>2018-02-26T18:24:45Z</time>
      </trkpt>
      <trkpt lat="62.633456646613" lon="17.971085793034">
        <ele>91.4</ele>
        <time>2018-02-26T18:24:46Z</time>
      </trkpt>
      <trkpt lat="62.633455976061" lon="17.971152764415">
        <ele>91.4</ele>
        <time>2018-02-26T18:24:47Z</time>
      </trkpt>
      <trkpt lat="62.633454886414" lon="17.971213868466">
        <ele>91.4</ele>
        <time>2018-02-26T18:24:48Z</time>
      </trkpt>
      <trkpt lat="62.633454299681" lon="17.971274385784">
        <ele>91.6</ele>
        <time>2018-02-26T18:24:49Z</time>
      </trkpt>
      <trkpt lat="62.633452036568" lon="17.971332137075">
        <ele>91.8</ele>
        <time>2018-02-26T18:24:50Z</time>
      </trkpt>
      <trkpt lat="62.63344851617" lon="17.971401120112">
        <ele>91.8</ele>
        <time>2018-02-26T18:24:51Z</time>
      </trkpt>
      <trkpt lat="62.633445750143" lon="17.97145744648">
        <ele>92.2</ele>
        <time>2018-02-26T18:24:52Z</time>
      </trkpt>
      <trkpt lat="62.633441307736" lon="17.971519053445">
        <ele>92.2</ele>
        <time>2018-02-26T18:24:53Z</time>
      </trkpt>
      <trkpt lat="62.633437954976" lon="17.971579067849">
        <ele>92.4</ele>
        <time>2018-02-26T18:24:54Z</time>
      </trkpt>
      <trkpt lat="62.633435188949" lon="17.971629610706">
        <ele>92.6</ele>
        <time>2018-02-26T18:24:55Z</time>
      </trkpt>
      <trkpt lat="62.633429656895" lon="17.971695073345">
        <ele>92.6</ele>
        <time>2018-02-26T18:24:56Z</time>
      </trkpt>
      <trkpt lat="62.633424879212" lon="17.97174997479">
        <ele>92.6</ele>
        <time>2018-02-26T18:24:57Z</time>
      </trkpt>
      <trkpt lat="62.633419347158" lon="17.971805965882">
        <ele>93</ele>
        <time>2018-02-26T18:24:58Z</time>
      </trkpt>
      <trkpt lat="62.633413479828" lon="17.971870087417">
        <ele>93.4</ele>
        <time>2018-02-26T18:24:59Z</time>
      </trkpt>
      <trkpt lat="62.633408366869" lon="17.971925240319">
        <ele>93.4</ele>
        <time>2018-02-26T18:25:00Z</time>
      </trkpt>
      <trkpt lat="62.633401493711" lon="17.971985338542">
        <ele>93.6</ele>
        <time>2018-02-26T18:25:01Z</time>
      </trkpt>
      <trkpt lat="62.633394704372" lon="17.972042838376">
        <ele>93.6</ele>
        <time>2018-02-26T18:25:02Z</time>
      </trkpt>
      <trkpt lat="62.633386071015" lon="17.972102685142">
        <ele>93.6</ele>
        <time>2018-02-26T18:25:03Z</time>
      </trkpt>
      <trkpt lat="62.633378275848" lon="17.972156748397">
        <ele>93.6</ele>
        <time>2018-02-26T18:25:04Z</time>
      </trkpt>
      <trkpt lat="62.63336888812" lon="17.972213410041">
        <ele>93.6</ele>
        <time>2018-02-26T18:25:05Z</time>
      </trkpt>
      <trkpt lat="62.633360925315" lon="17.972270406961">
        <ele>93.8</ele>
        <time>2018-02-26T18:25:06Z</time>
      </trkpt>
      <trkpt lat="62.633352543415" lon="17.9723274877">
        <ele>93.8</ele>
        <time>2018-02-26T18:25:07Z</time>
      </trkpt>
      <trkpt lat="62.633344915886" lon="17.972374342521">
        <ele>93.8</ele>
        <time>2018-02-26T18:25:08Z</time>
      </trkpt>
      <trkpt lat="62.633334773787" lon="17.972435362753">
        <ele>93.8</ele>
        <time>2018-02-26T18:25:09Z</time>
      </trkpt>
      <trkpt lat="62.633327313896" lon="17.972481127927">
        <ele>93.8</ele>
        <time>2018-02-26T18:25:10Z</time>
      </trkpt>
      <trkpt lat="62.63331356758" lon="17.97253871158">
        <ele>94</ele>
        <time>2018-02-26T18:25:11Z</time>
      </trkpt>
      <trkpt lat="62.63329764197" lon="17.97258565022">
        <ele>94.2</ele>
        <time>2018-02-26T18:25:12Z</time>
      </trkpt>
      <trkpt lat="62.633283895654" lon="17.972635271068">
        <ele>94.2</ele>
        <time>2018-02-26T18:25:13Z</time>
      </trkpt>
      <trkpt lat="62.633271490442" lon="17.972689501961">
        <ele>94.2</ele>
        <time>2018-02-26T18:25:14Z</time>
      </trkpt>
      <trkpt lat="62.633261432162" lon="17.972739458085">
        <ele>94</ele>
        <time>2018-02-26T18:25:15Z</time>
      </trkpt>
      <trkpt lat="62.633251792977" lon="17.972794108073">
        <ele>94</ele>
        <time>2018-02-26T18:25:16Z</time>
      </trkpt>
      <trkpt lat="62.633243746353" lon="17.972849931527">
        <ele>94.4</ele>
        <time>2018-02-26T18:25:17Z</time>
      </trkpt>
      <trkpt lat="62.633234274806" lon="17.972903240411">
        <ele>94.4</ele>
        <time>2018-02-26T18:25:18Z</time>
      </trkpt>
      <trkpt lat="62.633223462155" lon="17.972954956734">
        <ele>94.4</ele>
        <time>2018-02-26T18:25:19Z</time>
      </trkpt>
      <trkpt lat="62.633214577341" lon="17.973008768532">
        <ele>94.4</ele>
        <time>2018-02-26T18:25:20Z</time>
      </trkpt>
      <trkpt lat="62.633206446898" lon="17.973070794592">
        <ele>94.4</ele>
        <time>2018-02-26T18:25:21Z</time>
      </trkpt>
      <trkpt lat="62.633197310627" lon="17.973123013829">
        <ele>94.4</ele>
        <time>2018-02-26T18:25:22Z</time>
      </trkpt>
      <trkpt lat="62.63318448632" lon="17.973180346025">
        <ele>94.4</ele>
        <time>2018-02-26T18:25:23Z</time>
      </trkpt>
      <trkpt lat="62.633173757488" lon="17.973233319633">
        <ele>94.6</ele>
        <time>2018-02-26T18:25:24Z</time>
      </trkpt>
      <trkpt lat="62.633162609561" lon="17.973283275757">
        <ele>94.8</ele>
        <time>2018-02-26T18:25:25Z</time>
      </trkpt>
      <trkpt lat="62.633149869073" lon="17.97334421217">
        <ele>94.8</ele>
        <time>2018-02-26T18:25:26Z</time>
      </trkpt>
      <trkpt lat="62.633136038938" lon="17.97339869452">
        <ele>94.8</ele>
        <time>2018-02-26T18:25:27Z</time>
      </trkpt>
      <trkpt lat="62.633124891011" lon="17.973447728635">
        <ele>95</ele>
        <time>2018-02-26T18:25:28Z</time>
      </trkpt>
      <trkpt lat="62.63311240198" lon="17.973503552089">
        <ele>95</ele>
        <time>2018-02-26T18:25:29Z</time>
      </trkpt>
      <trkpt lat="62.633100415863" lon="17.973552753842">
        <ele>95.2</ele>
        <time>2018-02-26T18:25:30Z</time>
      </trkpt>
      <trkpt lat="62.633086921004" lon="17.973606146545">
        <ele>95</ele>
        <time>2018-02-26T18:25:31Z</time>
      </trkpt>
      <trkpt lat="62.633072923231" lon="17.973659287791">
        <ele>95.2</ele>
        <time>2018-02-26T18:25:32Z</time>
      </trkpt>
      <trkpt lat="62.633060182743" lon="17.973709495372">
        <ele>95.4</ele>
        <time>2018-02-26T18:25:33Z</time>
      </trkpt>
      <trkpt lat="62.633046017332" lon="17.973759032401">
        <ele>95.4</ele>
        <time>2018-02-26T18:25:34Z</time>
      </trkpt>
      <trkpt lat="62.633031684283" lon="17.973811084">
        <ele>95.6</ele>
        <time>2018-02-26T18:25:35Z</time>
      </trkpt>
      <trkpt lat="62.633017854148" lon="17.973867075092">
        <ele>95.8</ele>
        <time>2018-02-26T18:25:36Z</time>
      </trkpt>
      <trkpt lat="62.633005784212" lon="17.973918707596">
        <ele>95.8</ele>
        <time>2018-02-26T18:25:37Z</time>
      </trkpt>
      <trkpt lat="62.632994133371" lon="17.97396950191">
        <ele>96</ele>
        <time>2018-02-26T18:25:38Z</time>
      </trkpt>
      <trkpt lat="62.632980219417" lon="17.974022224061">
        <ele>96</ele>
        <time>2018-02-26T18:25:39Z</time>
      </trkpt>
      <trkpt lat="62.632967898024" lon="17.974065726122">
        <ele>96</ele>
        <time>2018-02-26T18:25:40Z</time>
      </trkpt>
      <trkpt lat="62.632949457844" lon="17.974122471585">
        <ele>96</ele>
        <time>2018-02-26T18:25:41Z</time>
      </trkpt>
      <trkpt lat="62.632933616053" lon="17.974173014442">
        <ele>96.2</ele>
        <time>2018-02-26T18:25:42Z</time>
      </trkpt>
      <trkpt lat="62.632916349339" lon="17.974226490964">
        <ele>96.2</ele>
        <time>2018-02-26T18:25:43Z</time>
      </trkpt>
      <trkpt lat="62.632901261919" lon="17.974282482056">
        <ele>96.2</ele>
        <time>2018-02-26T18:25:44Z</time>
      </trkpt>
      <trkpt lat="62.632887347965" lon="17.974334198379">
        <ele>96.2</ele>
        <time>2018-02-26T18:25:45Z</time>
      </trkpt>
      <trkpt lat="62.632870835622" lon="17.974383819227">
        <ele>96.2</ele>
        <time>2018-02-26T18:25:46Z</time>
      </trkpt>
      <trkpt lat="62.632850970519" lon="17.974431847514">
        <ele>96.2</ele>
        <time>2018-02-26T18:25:47Z</time>
      </trkpt>
      <trkpt lat="62.632826914466" lon="17.974476103946">
        <ele>96.2</ele>
        <time>2018-02-26T18:25:48Z</time>
      </trkpt>
      <trkpt lat="62.632802690775" lon="17.974507200795">
        <ele>96.4</ele>
        <time>2018-02-26T18:25:49Z</time>
      </trkpt>
      <trkpt lat="62.632775952514" lon="17.974520360378">
        <ele>96.4</ele>
        <time>2018-02-26T18:25:50Z</time>
      </trkpt>
      <trkpt lat="62.632745861493" lon="17.974524467509">
        <ele>96.4</ele>
        <time>2018-02-26T18:25:51Z</time>
      </trkpt>
      <trkpt lat="62.632720548155" lon="17.974519941283">
        <ele>96.4</ele>
        <time>2018-02-26T18:25:52Z</time>
      </trkpt>
      <trkpt lat="62.632692301152" lon="17.974508877175">
        <ele>96.6</ele>
        <time>2018-02-26T18:25:53Z</time>
      </trkpt>
      <trkpt lat="62.632666987814" lon="17.974497058696">
        <ele>96.6</ele>
        <time>2018-02-26T18:25:54Z</time>
      </trkpt>
      <trkpt lat="62.632645278693" lon="17.974484234389">
        <ele>96.6</ele>
        <time>2018-02-26T18:25:55Z</time>
      </trkpt>
      <trkpt lat="62.632620803545" lon="17.974468811693">
        <ele>96.6</ele>
        <time>2018-02-26T18:25:56Z</time>
      </trkpt>
      <trkpt lat="62.632597418044" lon="17.974456155024">
        <ele>96.8</ele>
        <time>2018-02-26T18:25:57Z</time>
      </trkpt>
      <trkpt lat="62.632576044199" lon="17.974440145595">
        <ele>96.6</ele>
        <time>2018-02-26T18:25:58Z</time>
      </trkpt>
      <trkpt lat="62.632552323422" lon="17.974418017379">
        <ele>96.6</ele>
        <time>2018-02-26T18:25:59Z</time>
      </trkpt>
      <trkpt lat="62.632531201034" lon="17.974394799516">
        <ele>96.6</ele>
        <time>2018-02-26T18:26:00Z</time>
      </trkpt>
      <trkpt lat="62.632509911008" lon="17.974369486178">
        <ele>96.6</ele>
        <time>2018-02-26T18:26:01Z</time>
      </trkpt>
      <trkpt lat="62.632489291534" lon="17.974346435953">
        <ele>96.6</ele>
        <time>2018-02-26T18:26:02Z</time>
      </trkpt>
      <trkpt lat="62.632465654576" lon="17.974319697692">
        <ele>96.6</ele>
        <time>2018-02-26T18:26:03Z</time>
      </trkpt>
      <trkpt lat="62.632446543844" lon="17.97429471963">
        <ele>96.6</ele>
        <time>2018-02-26T18:26:04Z</time>
      </trkpt>
      <trkpt lat="62.632425505275" lon="17.974265802075">
        <ele>96.6</ele>
        <time>2018-02-26T18:26:05Z</time>
      </trkpt>
      <trkpt lat="62.632399018471" lon="17.974240572556">
        <ele>96.6</ele>
        <time>2018-02-26T18:26:06Z</time>
      </trkpt>
      <trkpt lat="62.632377560807" lon="17.974215007761">
        <ele>96.4</ele>
        <time>2018-02-26T18:26:07Z</time>
      </trkpt>
      <trkpt lat="62.632356438419" lon="17.974188185681">
        <ele>96.4</ele>
        <time>2018-02-26T18:26:08Z</time>
      </trkpt>
      <trkpt lat="62.632335567488" lon="17.974159100488">
        <ele>96.6</ele>
        <time>2018-02-26T18:26:09Z</time>
      </trkpt>
      <trkpt lat="62.632312601082" lon="17.974136050263">
        <ele>96.6</ele>
        <time>2018-02-26T18:26:10Z</time>
      </trkpt>
      <trkpt lat="62.632283851165" lon="17.974106378337">
        <ele>96.4</ele>
        <time>2018-02-26T18:26:11Z</time>
      </trkpt>
      <trkpt lat="62.632258621646" lon="17.97408181937">
        <ele>96.4</ele>
        <time>2018-02-26T18:26:12Z</time>
      </trkpt>
      <trkpt lat="62.632234984688" lon="17.97405667367">
        <ele>96.6</ele>
        <time>2018-02-26T18:26:13Z</time>
      </trkpt>
      <trkpt lat="62.632214616671" lon="17.974029097219">
        <ele>96.6</ele>
        <time>2018-02-26T18:26:14Z</time>
      </trkpt>
      <trkpt lat="62.632194919206" lon="17.973997413637">
        <ele>96.4</ele>
        <time>2018-02-26T18:26:15Z</time>
      </trkpt>
      <trkpt lat="62.632169605868" lon="17.973965143322">
        <ele>96.6</ele>
        <time>2018-02-26T18:26:16Z</time>
      </trkpt>
      <trkpt lat="62.6321468071" lon="17.973940332898">
        <ele>96.4</ele>
        <time>2018-02-26T18:26:17Z</time>
      </trkpt>
      <trkpt lat="62.632118392459" lon="17.973909487506">
        <ele>96.2</ele>
        <time>2018-02-26T18:26:18Z</time>
      </trkpt>
      <trkpt lat="62.632096264243" lon="17.973877384829">
        <ele>96.4</ele>
        <time>2018-02-26T18:26:19Z</time>
      </trkpt>
      <trkpt lat="62.632071956733" lon="17.973849389283">
        <ele>96.4</ele>
        <time>2018-02-26T18:26:20Z</time>
      </trkpt>
      <trkpt lat="62.632042117169" lon="17.973816280778">
        <ele>96.4</ele>
        <time>2018-02-26T18:26:21Z</time>
      </trkpt>
      <trkpt lat="62.632018480211" lon="17.973790464526">
        <ele>96.4</ele>
        <time>2018-02-26T18:26:22Z</time>
      </trkpt>
      <trkpt lat="62.631991155217" lon="17.973761379333">
        <ele>96.4</ele>
        <time>2018-02-26T18:26:23Z</time>
      </trkpt>
      <trkpt lat="62.631966763888" lon="17.973734138158">
        <ele>96.4</ele>
        <time>2018-02-26T18:26:24Z</time>
      </trkpt>
      <trkpt lat="62.631942959292" lon="17.973709160096">
        <ele>96.4</ele>
        <time>2018-02-26T18:26:25Z</time>
      </trkpt>
      <trkpt lat="62.631917562135" lon="17.973683427663">
        <ele>96.2</ele>
        <time>2018-02-26T18:26:26Z</time>
      </trkpt>
      <trkpt lat="62.631894008996" lon="17.97365937161">
        <ele>96.2</ele>
        <time>2018-02-26T18:26:27Z</time>
      </trkpt>
      <trkpt lat="62.631871294047" lon="17.973634645005">
        <ele>96.4</ele>
        <time>2018-02-26T18:26:28Z</time>
      </trkpt>
      <trkpt lat="62.631846232166" lon="17.973607320011">
        <ele>96.4</ele>
        <time>2018-02-26T18:26:29Z</time>
      </trkpt>
      <trkpt lat="62.631823936312" lon="17.973582006673">
        <ele>96.2</ele>
        <time>2018-02-26T18:26:30Z</time>
      </trkpt>
      <trkpt lat="62.631798036241" lon="17.973553089118">
        <ele>96.2</ele>
        <time>2018-02-26T18:26:31Z</time>
      </trkpt>
      <trkpt lat="62.631774818378" lon="17.973527272866">
        <ele>96.2</ele>
        <time>2018-02-26T18:26:32Z</time>
      </trkpt>
      <trkpt lat="62.631748163936" lon="17.973494751094">
        <ele>96.4</ele>
        <time>2018-02-26T18:26:33Z</time>
      </trkpt>
      <trkpt lat="62.631721593313" lon="17.973471449412">
        <ele>96.4</ele>
        <time>2018-02-26T18:26:34Z</time>
      </trkpt>
      <trkpt lat="62.631692759577" lon="17.97344898592">
        <ele>96.2</ele>
        <time>2018-02-26T18:26:35Z</time>
      </trkpt>
      <trkpt lat="62.631662836194" lon="17.973442448038">
        <ele>96.2</ele>
        <time>2018-02-26T18:26:36Z</time>
      </trkpt>
      <trkpt lat="62.631635427381" lon="17.97344814773">
        <ele>96.4</ele>
        <time>2018-02-26T18:26:37Z</time>
      </trkpt>
      <trkpt lat="62.631608353844" lon="17.973460888218">
        <ele>96</ele>
        <time>2018-02-26T18:26:38Z</time>
      </trkpt>
      <trkpt lat="62.63158438161" lon="17.97348167533">
        <ele>95.8</ele>
        <time>2018-02-26T18:26:39Z</time>
      </trkpt>
      <trkpt lat="62.631562001937" lon="17.973503552089">
        <ele>96</ele>
        <time>2018-02-26T18:26:40Z</time>
      </trkpt>
      <trkpt lat="62.631535682771" lon="17.973536409137">
        <ele>95.8</ele>
        <time>2018-02-26T18:26:41Z</time>
      </trkpt>
      <trkpt lat="62.631513386917" lon="17.973570691108">
        <ele>95.6</ele>
        <time>2018-02-26T18:26:42Z</time>
      </trkpt>
      <trkpt lat="62.631489833778" lon="17.97360321288">
        <ele>95.6</ele>
        <time>2018-02-26T18:26:43Z</time>
      </trkpt>
      <trkpt lat="62.631466448277" lon="17.973633974453">
        <ele>95.8</ele>
        <time>2018-02-26T18:26:44Z</time>
      </trkpt>
      <trkpt lat="62.631443398052" lon="17.97366104799">
        <ele>95.8</ele>
        <time>2018-02-26T18:26:45Z</time>
      </trkpt>
      <trkpt lat="62.631419341999" lon="17.973689043536">
        <ele>95.6</ele>
        <time>2018-02-26T18:26:46Z</time>
      </trkpt>
      <trkpt lat="62.631395956498" lon="17.973719134557">
        <ele>95.6</ele>
        <time>2018-02-26T18:26:47Z</time>
      </trkpt>
      <trkpt lat="62.63137231954" lon="17.97374989613">
        <ele>95.8</ele>
        <time>2018-02-26T18:26:48Z</time>
      </trkpt>
      <trkpt lat="62.631347928211" lon="17.973778310771">
        <ele>95.8</ele>
        <time>2018-02-26T18:26:49Z</time>
      </trkpt>
      <trkpt lat="62.631325045624" lon="17.973804965213">
        <ele>95.6</ele>
        <time>2018-02-26T18:26:50Z</time>
      </trkpt>
      <trkpt lat="62.631298810277" lon="17.973833631311">
        <ele>95.6</ele>
        <time>2018-02-26T18:26:51Z</time>
      </trkpt>
      <trkpt lat="62.631276095328" lon="17.973861123943">
        <ele>95.6</ele>
        <time>2018-02-26T18:26:52Z</time>
      </trkpt>
      <trkpt lat="62.63124826742" lon="17.973888616575">
        <ele>95.6</ele>
        <time>2018-02-26T18:26:53Z</time>
      </trkpt>
      <trkpt lat="62.631223540815" lon="17.973913929913">
        <ele>95.6</ele>
        <time>2018-02-26T18:26:54Z</time>
      </trkpt>
      <trkpt lat="62.63120049059" lon="17.973938153604">
        <ele>95.4</ele>
        <time>2018-02-26T18:26:55Z</time>
      </trkpt>
      <trkpt lat="62.631173752329" lon="17.973960533277">
        <ele>95.4</ele>
        <time>2018-02-26T18:26:56Z</time>
      </trkpt>
      <trkpt lat="62.631149696276" lon="17.973979476371">
        <ele>95.4</ele>
        <time>2018-02-26T18:26:57Z</time>
      </trkpt>
      <trkpt lat="62.631125304947" lon="17.973994731429">
        <ele>95.2</ele>
        <time>2018-02-26T18:26:58Z</time>
      </trkpt>
      <trkpt lat="62.631097141763" lon="17.974009232116">
        <ele>95.2</ele>
        <time>2018-02-26T18:26:59Z</time>
      </trkpt>
      <trkpt lat="62.631072666615" lon="17.974013255428">
        <ele>95.4</ele>
        <time>2018-02-26T18:27:00Z</time>
      </trkpt>
      <trkpt lat="62.631044084336" lon="17.974006298451">
        <ele>95.4</ele>
        <time>2018-02-26T18:27:01Z</time>
      </trkpt>
      <trkpt lat="62.63102279431" lon="17.973994312334">
        <ele>95.4</ele>
        <time>2018-02-26T18:27:02Z</time>
      </trkpt>
      <trkpt lat="62.630999073533" lon="17.973967993168">
        <ele>95.4</ele>
        <time>2018-02-26T18:27:03Z</time>
      </trkpt>
      <trkpt lat="62.630976274765" lon="17.973943434201">
        <ele>95.4</ele>
        <time>2018-02-26T18:27:04Z</time>
      </trkpt>
      <trkpt lat="62.63095322454" lon="17.973916025388">
        <ele>95.2</ele>
        <time>2018-02-26T18:27:05Z</time>
      </trkpt>
      <trkpt lat="62.630932102152" lon="17.97388735929">
        <ele>95.2</ele>
        <time>2018-02-26T18:27:06Z</time>
      </trkpt>
      <trkpt lat="62.630909219565" lon="17.9738446116">
        <ele>95</ele>
        <time>2018-02-26T18:27:07Z</time>
      </trkpt>
      <trkpt lat="62.630888348634" lon="17.97379934934">
        <ele>95.2</ele>
        <time>2018-02-26T18:27:08Z</time>
      </trkpt>
      <trkpt lat="62.630867561522" lon="17.973754506175">
        <ele>95</ele>
        <time>2018-02-26T18:27:09Z</time>
      </trkpt>
      <trkpt lat="62.630850546265" lon="17.973714021598">
        <ele>94.8</ele>
        <time>2018-02-26T18:27:10Z</time>
      </trkpt>
      <trkpt lat="62.630831854628" lon="17.97365853342">
        <ele>94.8</ele>
        <time>2018-02-26T18:27:11Z</time>
      </trkpt>
      <trkpt lat="62.630816515751" lon="17.97361075659">
        <ele>94.8</ele>
        <time>2018-02-26T18:27:12Z</time>
      </trkpt>
      <trkpt lat="62.630802098883" lon="17.973557447706">
        <ele>94.6</ele>
        <time>2018-02-26T18:27:13Z</time>
      </trkpt>
      <trkpt lat="62.6307889393" lon="17.973503887365">
        <ele>94.6</ele>
        <time>2018-02-26T18:27:14Z</time>
      </trkpt>
      <trkpt lat="62.63077804283" lon="17.973447560997">
        <ele>94.4</ele>
        <time>2018-02-26T18:27:15Z</time>
      </trkpt>
      <trkpt lat="62.63076463179" lon="17.973390564077">
        <ele>94.2</ele>
        <time>2018-02-26T18:27:16Z</time>
      </trkpt>
      <trkpt lat="62.63075122075" lon="17.973337171374">
        <ele>94.2</ele>
        <time>2018-02-26T18:27:17Z</time>
      </trkpt>
      <trkpt lat="62.630735211321" lon="17.973280928825">
        <ele>94.2</ele>
        <time>2018-02-26T18:27:18Z</time>
      </trkpt>
      <trkpt lat="62.630719872444" lon="17.973230972701">
        <ele>94</ele>
        <time>2018-02-26T18:27:19Z</time>
      </trkpt>
      <trkpt lat="62.630703360101" lon="17.973181938586">
        <ele>94</ele>
        <time>2018-02-26T18:27:20Z</time>
      </trkpt>
      <trkpt lat="62.630687015396" lon="17.973128964978">
        <ele>94</ele>
        <time>2018-02-26T18:27:21Z</time>
      </trkpt>
      <trkpt lat="62.630673101442" lon="17.973083115985">
        <ele>94</ele>
        <time>2018-02-26T18:27:22Z</time>
      </trkpt>
      <trkpt lat="62.630658265479" lon="17.973027460169">
        <ele>93.8</ele>
        <time>2018-02-26T18:27:23Z</time>
      </trkpt>
      <trkpt lat="62.630644351525" lon="17.972975743846">
        <ele>93.6</ele>
        <time>2018-02-26T18:27:24Z</time>
      </trkpt>
      <trkpt lat="62.630630353752" lon="17.972925200989">
        <ele>93.6</ele>
        <time>2018-02-26T18:27:25Z</time>
      </trkpt>
      <trkpt lat="62.630614344323" lon="17.972864264576">
        <ele>93.4</ele>
        <time>2018-02-26T18:27:26Z</time>
      </trkpt>
      <trkpt lat="62.630600514188" lon="17.972811793882">
        <ele>93.4</ele>
        <time>2018-02-26T18:27:27Z</time>
      </trkpt>
      <trkpt lat="62.630590036813" lon="17.972757646808">
        <ele>93.2</ele>
        <time>2018-02-26T18:27:28Z</time>
      </trkpt>
      <trkpt lat="62.630579475619" lon="17.972700314612">
        <ele>93.2</ele>
        <time>2018-02-26T18:27:29Z</time>
      </trkpt>
      <trkpt lat="62.630566567493" lon="17.972648598289">
        <ele>93.2</ele>
        <time>2018-02-26T18:27:30Z</time>
      </trkpt>
      <trkpt lat="62.630552234444" lon="17.97258984117">
        <ele>93.2</ele>
        <time>2018-02-26T18:27:31Z</time>
      </trkpt>
      <trkpt lat="62.630538823404" lon="17.97254038796">
        <ele>93.2</ele>
        <time>2018-02-26T18:27:32Z</time>
      </trkpt>
      <trkpt lat="62.630524993269" lon="17.972474925321">
        <ele>93.2</ele>
        <time>2018-02-26T18:27:33Z</time>
      </trkpt>
      <trkpt lat="62.630513342428" lon="17.972425472111">
        <ele>93.2</ele>
        <time>2018-02-26T18:27:34Z</time>
      </trkpt>
      <trkpt lat="62.630501943044" lon="17.972370822123">
        <ele>93.2</ele>
        <time>2018-02-26T18:27:35Z</time>
      </trkpt>
      <trkpt lat="62.630492890592" lon="17.972311729728">
        <ele>92.8</ele>
        <time>2018-02-26T18:27:36Z</time>
      </trkpt>
      <trkpt lat="62.630482748493" lon="17.972255151903">
        <ele>92.8</ele>
        <time>2018-02-26T18:27:37Z</time>
      </trkpt>
      <trkpt lat="62.630472690213" lon="17.972194802223">
        <ele>93</ele>
        <time>2018-02-26T18:27:38Z</time>
      </trkpt>
      <trkpt lat="62.630462380476" lon="17.972136883294">
        <ele>92.6</ele>
        <time>2018-02-26T18:27:39Z</time>
      </trkpt>
      <trkpt lat="62.630456261689" lon="17.972087681541">
        <ele>92.6</ele>
        <time>2018-02-26T18:27:40Z</time>
      </trkpt>
      <trkpt lat="62.630449639988" lon="17.972019117599">
        <ele>92.6</ele>
        <time>2018-02-26T18:27:41Z</time>
      </trkpt>
      <trkpt lat="62.630440503717" lon="17.97196119867">
        <ele>92.6</ele>
        <time>2018-02-26T18:27:42Z</time>
      </trkpt>
      <trkpt lat="62.630430864532" lon="17.971903615017">
        <ele>92.4</ele>
        <time>2018-02-26T18:27:43Z</time>
      </trkpt>
      <trkpt lat="62.63042265027" lon="17.971850892866">
        <ele>92.4</ele>
        <time>2018-02-26T18:27:44Z</time>
      </trkpt>
      <trkpt lat="62.630416112388" lon="17.971795153231">
        <ele>92.4</ele>
        <time>2018-02-26T18:27:45Z</time>
      </trkpt>
      <trkpt lat="62.630408820135" lon="17.971735474103">
        <ele>92.4</ele>
        <time>2018-02-26T18:27:46Z</time>
      </trkpt>
      <trkpt lat="62.630401863158" lon="17.971677136079">
        <ele>92.4</ele>
        <time>2018-02-26T18:27:47Z</time>
      </trkpt>
      <trkpt lat="62.630395576733" lon="17.971612763087">
        <ele>92.4</ele>
        <time>2018-02-26T18:27:48Z</time>
      </trkpt>
      <trkpt lat="62.630388535937" lon="17.971557610185">
        <ele>92.4</ele>
        <time>2018-02-26T18:27:49Z</time>
      </trkpt>
      <trkpt lat="62.630380070218" lon="17.971499272161">
        <ele>92.4</ele>
        <time>2018-02-26T18:27:50Z</time>
      </trkpt>
      <trkpt lat="62.630372945603" lon="17.971434480074">
        <ele>92.2</ele>
        <time>2018-02-26T18:27:51Z</time>
      </trkpt>
      <trkpt lat="62.630365485712" lon="17.971378237525">
        <ele>92.2</ele>
        <time>2018-02-26T18:27:52Z</time>
      </trkpt>
      <trkpt lat="62.630359953658" lon="17.971312188153">
        <ele>92.2</ele>
        <time>2018-02-26T18:27:53Z</time>
      </trkpt>
      <trkpt lat="62.630357103812" lon="17.971253850129">
        <ele>92.2</ele>
        <time>2018-02-26T18:27:54Z</time>
      </trkpt>
      <trkpt lat="62.630356852355" lon="17.971198613408">
        <ele>92</ele>
        <time>2018-02-26T18:27:55Z</time>
      </trkpt>
      <trkpt lat="62.630359031649" lon="17.971136587348">
        <ele>92</ele>
        <time>2018-02-26T18:27:56Z</time>
      </trkpt>
      <trkpt lat="62.630359199287" lon="17.971077578772">
        <ele>92</ele>
        <time>2018-02-26T18:27:57Z</time>
      </trkpt>
      <trkpt lat="62.6303614624" lon="17.971021168585">
        <ele>92</ele>
        <time>2018-02-26T18:27:58Z</time>
      </trkpt>
      <trkpt lat="62.630363306418" lon="17.970963165837">
        <ele>92</ele>
        <time>2018-02-26T18:27:59Z</time>
      </trkpt>
      <trkpt lat="62.630365150436" lon="17.97090843203">
        <ele>91.8</ele>
        <time>2018-02-26T18:28:00Z</time>
      </trkpt>
      <trkpt lat="62.6303698443" lon="17.97084472959">
        <ele>91.8</ele>
        <time>2018-02-26T18:28:01Z</time>
      </trkpt>
      <trkpt lat="62.630375041078" lon="17.970788319403">
        <ele>91.8</ele>
        <time>2018-02-26T18:28:02Z</time>
      </trkpt>
      <trkpt lat="62.630392978344" lon="17.970680360531">
        <ele>91.4</ele>
        <time>2018-02-26T18:28:04Z</time>
      </trkpt>
      <trkpt lat="62.630403707176" lon="17.970625207629">
        <ele>91.4</ele>
        <time>2018-02-26T18:28:05Z</time>
      </trkpt>
      <trkpt lat="62.630417704949" lon="17.9705672887">
        <ele>91.2</ele>
        <time>2018-02-26T18:28:06Z</time>
      </trkpt>
      <trkpt lat="62.630431786541" lon="17.970517081119">
        <ele>91.2</ele>
        <time>2018-02-26T18:28:07Z</time>
      </trkpt>
      <trkpt lat="62.630448131246" lon="17.970471651221">
        <ele>91</ele>
        <time>2018-02-26T18:28:08Z</time>
      </trkpt>
      <trkpt lat="62.63046372158" lon="17.970428903531">
        <ele>90.6</ele>
        <time>2018-02-26T18:28:09Z</time>
      </trkpt>
      <trkpt lat="62.63047545624" lon="17.970389508601">
        <ele>90.4</ele>
        <time>2018-02-26T18:28:10Z</time>
      </trkpt>
      <trkpt lat="62.630490124565" lon="17.970337037907">
        <ele>90</ele>
        <time>2018-02-26T18:28:11Z</time>
      </trkpt>
      <trkpt lat="62.630498422646" lon="17.970288841982">
        <ele>89.8</ele>
        <time>2018-02-26T18:28:12Z</time>
      </trkpt>
      <trkpt lat="62.630501943044" lon="17.970235281641">
        <ele>89.8</ele>
        <time>2018-02-26T18:28:13Z</time>
      </trkpt>
      <trkpt lat="62.630502865053" lon="17.970179877282">
        <ele>89.6</ele>
        <time>2018-02-26T18:28:14Z</time>
      </trkpt>
      <trkpt lat="62.630500350483" lon="17.970132184271">
        <ele>89.8</ele>
        <time>2018-02-26T18:28:15Z</time>
      </trkpt>
      <trkpt lat="62.630495321343" lon="17.970082731061">
        <ele>89.8</ele>
        <time>2018-02-26T18:28:16Z</time>
      </trkpt>
      <trkpt lat="62.630492136221" lon="17.97004258176">
        <ele>89.6</ele>
        <time>2018-02-26T18:28:17Z</time>
      </trkpt>
      <trkpt lat="62.630490878936" lon="17.970009137979">
        <ele>89.4</ele>
        <time>2018-02-26T18:28:18Z</time>
      </trkpt>
      <trkpt lat="62.63049138185" lon="17.969976700026">
        <ele>89.2</ele>
        <time>2018-02-26T18:28:19Z</time>
      </trkpt>
      <trkpt lat="62.630490627479" lon="17.96995205724">
        <ele>89</ele>
        <time>2018-02-26T18:28:20Z</time>
      </trkpt>
      <trkpt lat="62.630488280547" lon="17.969927833549">
        <ele>88.8</ele>
        <time>2018-02-26T18:28:21Z</time>
      </trkpt>
      <trkpt lat="62.630484592511" lon="17.969910734473">
        <ele>88.8</ele>
        <time>2018-02-26T18:28:22Z</time>
      </trkpt>
      <trkpt lat="62.630481491208" lon="17.969893048664">
        <ele>88.8</ele>
        <time>2018-02-26T18:28:23Z</time>
      </trkpt>
      <trkpt lat="62.63047964719" lon="17.969877961244">
        <ele>88.8</ele>
        <time>2018-02-26T18:28:24Z</time>
      </trkpt>
      <trkpt lat="62.630482245579" lon="17.969897658709">
        <ele>88.6</ele>
        <time>2018-02-26T18:28:25Z</time>
      </trkpt>
      <trkpt lat="62.630481994122" lon="17.969896569062">
        <ele>88.6</ele>
        <time>2018-02-26T18:28:26Z</time>
      </trkpt>
      <trkpt lat="62.630566735131" lon="17.970276269132">
        <ele>89</ele>
        <time>2018-02-26T18:29:11Z</time>
      </trkpt>
      <trkpt lat="62.630581571094" lon="17.970271156173">
        <ele>89</ele>
        <time>2018-02-26T18:29:12Z</time>
      </trkpt>
      <trkpt lat="62.630602106749" lon="17.970259002418">
        <ele>88.8</ele>
        <time>2018-02-26T18:29:13Z</time>
      </trkpt>
      <trkpt lat="62.630622055671" lon="17.970242490075">
        <ele>88.6</ele>
        <time>2018-02-26T18:29:14Z</time>
      </trkpt>
      <trkpt lat="62.630640747308" lon="17.970220445678">
        <ele>88.6</ele>
        <time>2018-02-26T18:29:15Z</time>
      </trkpt>
      <trkpt lat="62.630661702058" lon="17.970209046294">
        <ele>88.4</ele>
        <time>2018-02-26T18:29:16Z</time>
      </trkpt>
      <trkpt lat="62.630685422835" lon="17.970199239471">
        <ele>88.2</ele>
        <time>2018-02-26T18:29:17Z</time>
      </trkpt>
      <trkpt lat="62.630701348445" lon="17.970190019381">
        <ele>88.2</ele>
        <time>2018-02-26T18:29:18Z</time>
      </trkpt>
      <trkpt lat="62.630727248516" lon="17.970176524522">
        <ele>88.2</ele>
        <time>2018-02-26T18:29:19Z</time>
      </trkpt>
      <trkpt lat="62.630748203266" lon="17.970172249753">
        <ele>88</ele>
        <time>2018-02-26T18:29:20Z</time>
      </trkpt>
      <trkpt lat="62.630772343138" lon="17.97016831026">
        <ele>88</ele>
        <time>2018-02-26T18:29:21Z</time>
      </trkpt>
      <trkpt lat="62.630795309544" lon="17.970159844541">
        <ele>88.2</ele>
        <time>2018-02-26T18:29:22Z</time>
      </trkpt>
      <trkpt lat="62.63081911414" lon="17.970148696614">
        <ele>88.2</ele>
        <time>2018-02-26T18:29:23Z</time>
      </trkpt>
      <trkpt lat="62.630840990899" lon="17.970125143475">
        <ele>88.4</ele>
        <time>2018-02-26T18:29:24Z</time>
      </trkpt>
      <trkpt lat="62.630859179622" lon="17.970109972236">
        <ele>88.4</ele>
        <time>2018-02-26T18:29:25Z</time>
      </trkpt>
      <trkpt lat="62.630881894571" lon="17.970096058282">
        <ele>88.4</ele>
        <time>2018-02-26T18:29:26Z</time>
      </trkpt>
      <trkpt lat="62.63090041857" lon="17.970084658898">
        <ele>88.2</ele>
        <time>2018-02-26T18:29:27Z</time>
      </trkpt>
      <trkpt lat="62.630914583981" lon="17.970069320021">
        <ele>88.2</ele>
        <time>2018-02-26T18:29:28Z</time>
      </trkpt>
      <trkpt lat="62.630928497935" lon="17.970060938121">
        <ele>88</ele>
        <time>2018-02-26T18:29:29Z</time>
      </trkpt>
      <trkpt lat="62.630937718025" lon="17.970051382755">
        <ele>88</ele>
        <time>2018-02-26T18:29:30Z</time>
      </trkpt>
      <trkpt lat="62.630951715798" lon="17.970045431606">
        <ele>88</ele>
        <time>2018-02-26T18:29:31Z</time>
      </trkpt>
      <trkpt lat="62.63096244463" lon="17.970041156837">
        <ele>88</ele>
        <time>2018-02-26T18:29:32Z</time>
      </trkpt>
      <trkpt lat="62.630973844014" lon="17.970035289507">
        <ele>87.8</ele>
        <time>2018-02-26T18:29:33Z</time>
      </trkpt>
      <trkpt lat="62.630980633353" lon="17.970037720258">
        <ele>87.8</ele>
        <time>2018-02-26T18:29:34Z</time>
      </trkpt>
      <trkpt lat="62.630979376068" lon="17.970041492113">
        <ele>87.8</ele>
        <time>2018-02-26T18:29:35Z</time>
      </trkpt>
      <trkpt lat="62.630982980285" lon="17.970036630611">
        <ele>87.8</ele>
        <time>2018-02-26T18:29:36Z</time>
      </trkpt>
      <trkpt lat="62.631199484762" lon="17.969980220424">
        <ele>87.6</ele>
        <time>2018-02-26T18:30:24Z</time>
      </trkpt>
      <trkpt lat="62.631229408145" lon="17.96995876276">
        <ele>87.4</ele>
        <time>2018-02-26T18:30:25Z</time>
      </trkpt>
      <trkpt lat="62.63126167846" lon="17.969935041983">
        <ele>87.2</ele>
        <time>2018-02-26T18:30:26Z</time>
      </trkpt>
      <trkpt lat="62.631292020938" lon="17.969911321206">
        <ele>87</ele>
        <time>2018-02-26T18:30:27Z</time>
      </trkpt>
      <trkpt lat="62.631321776683" lon="17.969890114999">
        <ele>86.8</ele>
        <time>2018-02-26T18:30:28Z</time>
      </trkpt>
      <trkpt lat="62.631354801369" lon="17.969868657335">
        <ele>86.6</ele>
        <time>2018-02-26T18:30:29Z</time>
      </trkpt>
      <trkpt lat="62.631381036716" lon="17.969861281263">
        <ele>86.6</ele>
        <time>2018-02-26T18:30:30Z</time>
      </trkpt>
      <trkpt lat="62.631414061402" lon="17.969850971526">
        <ele>86.6</ele>
        <time>2018-02-26T18:30:31Z</time>
      </trkpt>
      <trkpt lat="62.631445493527" lon="17.969835465011">
        <ele>86.6</ele>
        <time>2018-02-26T18:30:32Z</time>
      </trkpt>
      <trkpt lat="62.631475249272" lon="17.969816605736">
        <ele>86.6</ele>
        <time>2018-02-26T18:30:33Z</time>
      </trkpt>
      <trkpt lat="62.631502825723" lon="17.969801853592">
        <ele>86.6</ele>
        <time>2018-02-26T18:30:34Z</time>
      </trkpt>
      <trkpt lat="62.631530821269" lon="17.969788526371">
        <ele>86.8</ele>
        <time>2018-02-26T18:30:35Z</time>
      </trkpt>
      <trkpt lat="62.631565019421" lon="17.969773438951">
        <ele>87</ele>
        <time>2018-02-26T18:30:36Z</time>
      </trkpt>
      <trkpt lat="62.631593266424" lon="17.969755501685">
        <ele>87.2</ele>
        <time>2018-02-26T18:30:37Z</time>
      </trkpt>
      <trkpt lat="62.631625117644" lon="17.969736390953">
        <ele>87.4</ele>
        <time>2018-02-26T18:30:38Z</time>
      </trkpt>
      <trkpt lat="62.631654202837" lon="17.969710909977">
        <ele>87.4</ele>
        <time>2018-02-26T18:30:39Z</time>
      </trkpt>
      <trkpt lat="62.631679348537" lon="17.969687859752">
        <ele>87.2</ele>
        <time>2018-02-26T18:30:40Z</time>
      </trkpt>
      <trkpt lat="62.631714384879" lon="17.969652069039">
        <ele>87</ele>
        <time>2018-02-26T18:30:41Z</time>
      </trkpt>
      <trkpt lat="62.631745146452" lon="17.969623738217">
        <ele>86.8</ele>
        <time>2018-02-26T18:30:42Z</time>
      </trkpt>
      <trkpt lat="62.63177465074" lon="17.969598676336">
        <ele>86.4</ele>
        <time>2018-02-26T18:30:43Z</time>
      </trkpt>
      <trkpt lat="62.631805244675" lon="17.969576631939">
        <ele>86.2</ele>
        <time>2018-02-26T18:30:44Z</time>
      </trkpt>
      <trkpt lat="62.631829887461" lon="17.969560035777">
        <ele>86</ele>
        <time>2018-02-26T18:30:45Z</time>
      </trkpt>
      <trkpt lat="62.631860313758" lon="17.96953966776">
        <ele>86</ele>
        <time>2018-02-26T18:30:46Z</time>
      </trkpt>
      <trkpt lat="62.631890740055" lon="17.969532878421">
        <ele>86</ele>
        <time>2018-02-26T18:30:47Z</time>
      </trkpt>
      <trkpt lat="62.631918735601" lon="17.969530782946">
        <ele>86</ele>
        <time>2018-02-26T18:30:48Z</time>
      </trkpt>
      <trkpt lat="62.631948323708" lon="17.969530280032">
        <ele>86.2</ele>
        <time>2018-02-26T18:30:49Z</time>
      </trkpt>
      <trkpt lat="62.631973720865" lon="17.9695279331">
        <ele>86</ele>
        <time>2018-02-26T18:30:50Z</time>
      </trkpt>
      <trkpt lat="62.632004733895" lon="17.969522652503">
        <ele>86.2</ele>
        <time>2018-02-26T18:30:51Z</time>
      </trkpt>
      <trkpt lat="62.632031220699" lon="17.969516366078">
        <ele>86.2</ele>
        <time>2018-02-26T18:30:52Z</time>
      </trkpt>
      <trkpt lat="62.632063071919" lon="17.969511085481">
        <ele>86.2</ele>
        <time>2018-02-26T18:30:53Z</time>
      </trkpt>
      <trkpt lat="62.632090396913" lon="17.969505804884">
        <ele>86.2</ele>
        <time>2018-02-26T18:30:54Z</time>
      </trkpt>
      <trkpt lat="62.632117889545" lon="17.969501194839">
        <ele>86.6</ele>
        <time>2018-02-26T18:30:55Z</time>
      </trkpt>
      <trkpt lat="62.632148064385" lon="17.969498093536">
        <ele>86.6</ele>
        <time>2018-02-26T18:30:56Z</time>
      </trkpt>
      <trkpt lat="62.632177568673" lon="17.969491723292">
        <ele>86.6</ele>
        <time>2018-02-26T18:30:57Z</time>
      </trkpt>
      <trkpt lat="62.632204558391" lon="17.969483173754">
        <ele>86.6</ele>
        <time>2018-02-26T18:30:58Z</time>
      </trkpt>
      <trkpt lat="62.632234062679" lon="17.969472864017">
        <ele>86.4</ele>
        <time>2018-02-26T18:30:59Z</time>
      </trkpt>
      <trkpt lat="62.63225996275" lon="17.96946674523">
        <ele>86.4</ele>
        <time>2018-02-26T18:31:00Z</time>
      </trkpt>
      <trkpt lat="62.632289886133" lon="17.969458111873">
        <ele>86.2</ele>
        <time>2018-02-26T18:31:01Z</time>
      </trkpt>
      <trkpt lat="62.632314948014" lon="17.96945417238">
        <ele>86.4</ele>
        <time>2018-02-26T18:31:02Z</time>
      </trkpt>
      <trkpt lat="62.632344284664" lon="17.969453082733">
        <ele>86.4</ele>
        <time>2018-02-26T18:31:03Z</time>
      </trkpt>
      <trkpt lat="62.632370687649" lon="17.969453837104">
        <ele>86.4</ele>
        <time>2018-02-26T18:31:04Z</time>
      </trkpt>
      <trkpt lat="62.63239742591" lon="17.969453418009">
        <ele>86.4</ele>
        <time>2018-02-26T18:31:05Z</time>
      </trkpt>
      <trkpt lat="62.632425672913" lon="17.969457944235">
        <ele>86.2</ele>
        <time>2018-02-26T18:31:06Z</time>
      </trkpt>
      <trkpt lat="62.632452243536" lon="17.969464901212">
        <ele>86.2</ele>
        <time>2018-02-26T18:31:07Z</time>
      </trkpt>
      <trkpt lat="62.632482586014" lon="17.969470433266">
        <ele>86.2</ele>
        <time>2018-02-26T18:31:08Z</time>
      </trkpt>
      <trkpt lat="62.63251141975" lon="17.969475630044">
        <ele>86.2</ele>
        <time>2018-02-26T18:31:09Z</time>
      </trkpt>
      <trkpt lat="62.632534805251" lon="17.969479485718">
        <ele>86.4</ele>
        <time>2018-02-26T18:31:10Z</time>
      </trkpt>
      <trkpt lat="62.632564560996" lon="17.969484179582">
        <ele>86.4</ele>
        <time>2018-02-26T18:31:11Z</time>
      </trkpt>
      <trkpt lat="62.632590544886" lon="17.969488454351">
        <ele>86.6</ele>
        <time>2018-02-26T18:31:12Z</time>
      </trkpt>
      <trkpt lat="62.632619378622" lon="17.969495830423">
        <ele>86.4</ele>
        <time>2018-02-26T18:31:13Z</time>
      </trkpt>
      <trkpt lat="62.632648631453" lon="17.969498261174">
        <ele>86.4</ele>
        <time>2018-02-26T18:31:14Z</time>
      </trkpt>
      <trkpt lat="62.632676459361" lon="17.969498177355">
        <ele>86.4</ele>
        <time>2018-02-26T18:31:15Z</time>
      </trkpt>
      <trkpt lat="62.632704035812" lon="17.969502871219">
        <ele>86.4</ele>
        <time>2018-02-26T18:31:16Z</time>
      </trkpt>
      <trkpt lat="62.632733623919" lon="17.969511839852">
        <ele>86.6</ele>
        <time>2018-02-26T18:31:17Z</time>
      </trkpt>
      <trkpt lat="62.632759607809" lon="17.969518126277">
        <ele>86.8</ele>
        <time>2018-02-26T18:31:18Z</time>
      </trkpt>
      <trkpt lat="62.632786597527" lon="17.969532459326">
        <ele>86.8</ele>
        <time>2018-02-26T18:31:19Z</time>
      </trkpt>
      <trkpt lat="62.632812413779" lon="17.969541260321">
        <ele>86.8</ele>
        <time>2018-02-26T18:31:20Z</time>
      </trkpt>
      <trkpt lat="62.632840744601" lon="17.969539416303">
        <ele>86.8</ele>
        <time>2018-02-26T18:31:21Z</time>
      </trkpt>
      <trkpt lat="62.632863794826" lon="17.969537572285">
        <ele>86.6</ele>
        <time>2018-02-26T18:31:22Z</time>
      </trkpt>
      <trkpt lat="62.632895478408" lon="17.969538578113">
        <ele>86.6</ele>
        <time>2018-02-26T18:31:23Z</time>
      </trkpt>
      <trkpt lat="62.632921462298" lon="17.969540254493">
        <ele>86.8</ele>
        <time>2018-02-26T18:31:24Z</time>
      </trkpt>
      <trkpt lat="62.632944847799" lon="17.969542517606">
        <ele>86.8</ele>
        <time>2018-02-26T18:31:25Z</time>
      </trkpt>
      <trkpt lat="62.632973010983" lon="17.969544864538">
        <ele>86.8</ele>
        <time>2018-02-26T18:31:26Z</time>
      </trkpt>
      <trkpt lat="62.633001006529" lon="17.969544529262">
        <ele>86.8</ele>
        <time>2018-02-26T18:31:27Z</time>
      </trkpt>
      <trkpt lat="62.633024978763" lon="17.969549642221">
        <ele>86.8</ele>
        <time>2018-02-26T18:31:28Z</time>
      </trkpt>
      <trkpt lat="62.633052806671" lon="17.969558275578">
        <ele>87</ele>
        <time>2018-02-26T18:31:29Z</time>
      </trkpt>
      <trkpt lat="62.633076611267" lon="17.969560873967">
        <ele>87</ele>
        <time>2018-02-26T18:31:30Z</time>
      </trkpt>
      <trkpt lat="62.633107205202" lon="17.969567914763">
        <ele>87.2</ele>
        <time>2018-02-26T18:31:31Z</time>
      </trkpt>
      <trkpt lat="62.633134865472" lon="17.9695782245">
        <ele>87.2</ele>
        <time>2018-02-26T18:31:32Z</time>
      </trkpt>
      <trkpt lat="62.633163028656" lon="17.969596329404">
        <ele>87.2</ele>
        <time>2018-02-26T18:31:33Z</time>
      </trkpt>
      <trkpt lat="62.633188509632" lon="17.969614434308">
        <ele>87.2</ele>
        <time>2018-02-26T18:31:34Z</time>
      </trkpt>
      <trkpt lat="62.633215834626" lon="17.969636478705">
        <ele>87.2</ele>
        <time>2018-02-26T18:31:35Z</time>
      </trkpt>
      <trkpt lat="62.633243411077" lon="17.96966288169">
        <ele>87.2</ele>
        <time>2018-02-26T18:31:36Z</time>
      </trkpt>
      <trkpt lat="62.633266796578" lon="17.969683501164">
        <ele>87.2</ele>
        <time>2018-02-26T18:31:37Z</time>
      </trkpt>
      <trkpt lat="62.633290433536" lon="17.969708814502">
        <ele>87.4</ele>
        <time>2018-02-26T18:31:38Z</time>
      </trkpt>
      <trkpt lat="62.633312561752" lon="17.969735971858">
        <ele>87.4</ele>
        <time>2018-02-26T18:31:39Z</time>
      </trkpt>
      <trkpt lat="62.633329912285" lon="17.969762793938">
        <ele>87.6</ele>
        <time>2018-02-26T18:31:40Z</time>
      </trkpt>
      <trkpt lat="62.63335128613" lon="17.969806295999">
        <ele>87.6</ele>
        <time>2018-02-26T18:31:41Z</time>
      </trkpt>
      <trkpt lat="62.63336721174" lon="17.969851977354">
        <ele>87.8</ele>
        <time>2018-02-26T18:31:42Z</time>
      </trkpt>
      <trkpt lat="62.633376683287" lon="17.969901849659">
        <ele>87.8</ele>
        <time>2018-02-26T18:31:43Z</time>
      </trkpt>
      <trkpt lat="62.633381125694" lon="17.969953817439">
        <ele>88</ele>
        <time>2018-02-26T18:31:44Z</time>
      </trkpt>
      <trkpt lat="62.633382382979" lon="17.97000737778">
        <ele>88</ele>
        <time>2018-02-26T18:31:45Z</time>
      </trkpt>
      <trkpt lat="62.633383304988" lon="17.970059848474">
        <ele>88</ele>
        <time>2018-02-26T18:31:46Z</time>
      </trkpt>
      <trkpt lat="62.633384226997" lon="17.97011885705">
        <ele>88.2</ele>
        <time>2018-02-26T18:31:47Z</time>
      </trkpt>
      <trkpt lat="62.633386909205" lon="17.970168645536">
        <ele>88.2</ele>
        <time>2018-02-26T18:31:48Z</time>
      </trkpt>
      <trkpt lat="62.633389926689" lon="17.970220780954">
        <ele>88.4</ele>
        <time>2018-02-26T18:31:49Z</time>
      </trkpt>
      <trkpt lat="62.633392692716" lon="17.970271323811">
        <ele>88.6</ele>
        <time>2018-02-26T18:31:50Z</time>
      </trkpt>
      <trkpt lat="62.633396129295" lon="17.970330583844">
        <ele>88.6</ele>
        <time>2018-02-26T18:31:51Z</time>
      </trkpt>
      <trkpt lat="62.633398811503" lon="17.970375259371">
        <ele>88.8</ele>
        <time>2018-02-26T18:31:52Z</time>
      </trkpt>
      <trkpt lat="62.63340325391" lon="17.970439213268">
        <ele>89</ele>
        <time>2018-02-26T18:31:53Z</time>
      </trkpt>
      <trkpt lat="62.633406858127" lon="17.970498305663">
        <ele>89</ele>
        <time>2018-02-26T18:31:54Z</time>
      </trkpt>
      <trkpt lat="62.633411887267" lon="17.97054968671">
        <ele>89</ele>
        <time>2018-02-26T18:31:55Z</time>
      </trkpt>
      <trkpt lat="62.63341582676" lon="17.97061171277">
        <ele>89.2</ele>
        <time>2018-02-26T18:31:56Z</time>
      </trkpt>
      <trkpt lat="62.63342001771" lon="17.970667703862">
        <ele>89.2</ele>
        <time>2018-02-26T18:31:57Z</time>
      </trkpt>
      <trkpt lat="62.633421526452" lon="17.970718330538">
        <ele>89.2</ele>
        <time>2018-02-26T18:31:58Z</time>
      </trkpt>
      <trkpt lat="62.633423286651" lon="17.970775327458">
        <ele>89.6</ele>
        <time>2018-02-26T18:31:59Z</time>
      </trkpt>
      <trkpt lat="62.633424627755" lon="17.970824529211">
        <ele>89.8</ele>
        <time>2018-02-26T18:32:00Z</time>
      </trkpt>
      <trkpt lat="62.633426220316" lon="17.970883873063">
        <ele>90</ele>
        <time>2018-02-26T18:32:01Z</time>
      </trkpt>
      <trkpt lat="62.633427477601" lon="17.97093525411">
        <ele>90</ele>
        <time>2018-02-26T18:32:02Z</time>
      </trkpt>
      <trkpt lat="62.633425801221" lon="17.970991161383">
        <ele>90.2</ele>
        <time>2018-02-26T18:32:03Z</time>
      </trkpt>
      <trkpt lat="62.633425801221" lon="17.971043045344">
        <ele>90.4</ele>
        <time>2018-02-26T18:32:04Z</time>
      </trkpt>
      <trkpt lat="62.633425801221" lon="17.971100545178">
        <ele>90.6</ele>
        <time>2018-02-26T18:32:05Z</time>
      </trkpt>
      <trkpt lat="62.633426974687" lon="17.971160643401">
        <ele>90.6</ele>
        <time>2018-02-26T18:32:06Z</time>
      </trkpt>
      <trkpt lat="62.633427393782" lon="17.971215377208">
        <ele>90.8</ele>
        <time>2018-02-26T18:32:07Z</time>
      </trkpt>
      <trkpt lat="62.633426220316" lon="17.971277067992">
        <ele>90.8</ele>
        <time>2018-02-26T18:32:08Z</time>
      </trkpt>
      <trkpt lat="62.633424627755" lon="17.971329454867">
        <ele>90.8</ele>
        <time>2018-02-26T18:32:09Z</time>
      </trkpt>
      <trkpt lat="62.633424460117" lon="17.971374800946">
        <ele>91</ele>
        <time>2018-02-26T18:32:10Z</time>
      </trkpt>
      <trkpt lat="62.633423286651" lon="17.971440179766">
        <ele>91.2</ele>
        <time>2018-02-26T18:32:11Z</time>
      </trkpt>
      <trkpt lat="62.633422280823" lon="17.971495667944">
        <ele>91.2</ele>
        <time>2018-02-26T18:32:12Z</time>
      </trkpt>
      <trkpt lat="62.633420604443" lon="17.971550653208">
        <ele>91.4</ele>
        <time>2018-02-26T18:32:13Z</time>
      </trkpt>
      <trkpt lat="62.633417670778" lon="17.971605051739">
        <ele>91.4</ele>
        <time>2018-02-26T18:32:14Z</time>
      </trkpt>
      <trkpt lat="62.633414066561" lon="17.971655762234">
        <ele>91.4</ele>
        <time>2018-02-26T18:32:15Z</time>
      </trkpt>
      <trkpt lat="62.633410629982" lon="17.971706975643">
        <ele>91.6</ele>
        <time>2018-02-26T18:32:16Z</time>
      </trkpt>
      <trkpt lat="62.633405433204" lon="17.97176506221">
        <ele>91.8</ele>
        <time>2018-02-26T18:32:17Z</time>
      </trkpt>
      <trkpt lat="62.633403086272" lon="17.971808731909">
        <ele>91.8</ele>
        <time>2018-02-26T18:32:18Z</time>
      </trkpt>
      <trkpt lat="62.633397135123" lon="17.971876038566">
        <ele>92</ele>
        <time>2018-02-26T18:32:19Z</time>
      </trkpt>
      <trkpt lat="62.633392441259" lon="17.971929934183">
        <ele>92.2</ele>
        <time>2018-02-26T18:32:20Z</time>
      </trkpt>
      <trkpt lat="62.633385149006" lon="17.971993385166">
        <ele>92.2</ele>
        <time>2018-02-26T18:32:21Z</time>
      </trkpt>
      <trkpt lat="62.633380203685" lon="17.972040491444">
        <ele>92.4</ele>
        <time>2018-02-26T18:32:22Z</time>
      </trkpt>
      <trkpt lat="62.633372492337" lon="17.972106708454">
        <ele>92.4</ele>
        <time>2018-02-26T18:32:23Z</time>
      </trkpt>
      <trkpt lat="62.633365200084" lon="17.972162028994">
        <ele>92.4</ele>
        <time>2018-02-26T18:32:24Z</time>
      </trkpt>
      <trkpt lat="62.633357740193" lon="17.972213242403">
        <ele>92.4</ele>
        <time>2018-02-26T18:32:25Z</time>
      </trkpt>
      <trkpt lat="62.633347681913" lon="17.972272083341">
        <ele>92.4</ele>
        <time>2018-02-26T18:32:26Z</time>
      </trkpt>
      <trkpt lat="62.633340305841" lon="17.972326984786">
        <ele>92.6</ele>
        <time>2018-02-26T18:32:27Z</time>
      </trkpt>
      <trkpt lat="62.633333432683" lon="17.972379287842">
        <ele>92.8</ele>
        <time>2018-02-26T18:32:28Z</time>
      </trkpt>
      <trkpt lat="62.63332446405" lon="17.972436703857">
        <ele>92.8</ele>
        <time>2018-02-26T18:32:29Z</time>
      </trkpt>
      <trkpt lat="62.633314824865" lon="17.972485151239">
        <ele>93</ele>
        <time>2018-02-26T18:32:30Z</time>
      </trkpt>
      <trkpt lat="62.633302587291" lon="17.972541980521">
        <ele>93</ele>
        <time>2018-02-26T18:32:31Z</time>
      </trkpt>
      <trkpt lat="62.633291439364" lon="17.972597636337">
        <ele>93</ele>
        <time>2018-02-26T18:32:32Z</time>
      </trkpt>
      <trkpt lat="62.633280123799" lon="17.972652034868">
        <ele>93</ele>
        <time>2018-02-26T18:32:33Z</time>
      </trkpt>
      <trkpt lat="62.633270233157" lon="17.972701571897">
        <ele>93.2</ele>
        <time>2018-02-26T18:32:34Z</time>
      </trkpt>
      <trkpt lat="62.633257911764" lon="17.972754294048">
        <ele>93.2</ele>
        <time>2018-02-26T18:32:35Z</time>
      </trkpt>
      <trkpt lat="62.633245422733" lon="17.972809530769">
        <ele>93.2</ele>
        <time>2018-02-26T18:32:36Z</time>
      </trkpt>
      <trkpt lat="62.633234274806" lon="17.972860325083">
        <ele>93.4</ele>
        <time>2018-02-26T18:32:37Z</time>
      </trkpt>
      <trkpt lat="62.633223294517" lon="17.972915394166">
        <ele>93.4</ele>
        <time>2018-02-26T18:32:38Z</time>
      </trkpt>
      <trkpt lat="62.633213487694" lon="17.972967278127">
        <ele>93.4</ele>
        <time>2018-02-26T18:32:39Z</time>
      </trkpt>
      <trkpt lat="62.63320376469" lon="17.973013630034">
        <ele>93.4</ele>
        <time>2018-02-26T18:32:40Z</time>
      </trkpt>
      <trkpt lat="62.633193203496" lon="17.973069118212">
        <ele>93.6</ele>
        <time>2018-02-26T18:32:41Z</time>
      </trkpt>
      <trkpt lat="62.633182893759" lon="17.973117481775">
        <ele>93.6</ele>
        <time>2018-02-26T18:32:42Z</time>
      </trkpt>
      <trkpt lat="62.633173254574" lon="17.973169114279">
        <ele>93.8</ele>
        <time>2018-02-26T18:32:43Z</time>
      </trkpt>
      <trkpt lat="62.633164788855" lon="17.973222255525">
        <ele>93.8</ele>
        <time>2018-02-26T18:32:44Z</time>
      </trkpt>
      <trkpt lat="62.633158753887" lon="17.973270619088">
        <ele>93.8</ele>
        <time>2018-02-26T18:32:45Z</time>
      </trkpt>
      <trkpt lat="62.633148527969" lon="17.973324849981">
        <ele>94</ele>
        <time>2018-02-26T18:32:46Z</time>
      </trkpt>
      <trkpt lat="62.633134865472" lon="17.97337941615">
        <ele>94.2</ele>
        <time>2018-02-26T18:32:47Z</time>
      </trkpt>
      <trkpt lat="62.633120280966" lon="17.973430294283">
        <ele>94.2</ele>
        <time>2018-02-26T18:32:48Z</time>
      </trkpt>
      <trkpt lat="62.633107456659" lon="17.973476981466">
        <ele>94.4</ele>
        <time>2018-02-26T18:32:49Z</time>
      </trkpt>
      <trkpt lat="62.633095554361" lon="17.973520567346">
        <ele>94.4</ele>
        <time>2018-02-26T18:32:50Z</time>
      </trkpt>
      <trkpt lat="62.633081137493" lon="17.973573289497">
        <ele>94.4</ele>
        <time>2018-02-26T18:32:51Z</time>
      </trkpt>
      <trkpt lat="62.633071163032" lon="17.97361243297">
        <ele>94.4</ele>
        <time>2018-02-26T18:32:52Z</time>
      </trkpt>
      <trkpt lat="62.633057500535" lon="17.973670184261">
        <ele>94.6</ele>
        <time>2018-02-26T18:32:53Z</time>
      </trkpt>
      <trkpt lat="62.633046436427" lon="17.973717290539">
        <ele>94.6</ele>
        <time>2018-02-26T18:32:54Z</time>
      </trkpt>
      <trkpt lat="62.633035120862" lon="17.973762636618">
        <ele>94.8</ele>
        <time>2018-02-26T18:32:55Z</time>
      </trkpt>
      <trkpt lat="62.63302355384" lon="17.973816364597">
        <ele>94.8</ele>
        <time>2018-02-26T18:32:56Z</time>
      </trkpt>
      <trkpt lat="62.633011148628" lon="17.973865147255">
        <ele>95</ele>
        <time>2018-02-26T18:32:57Z</time>
      </trkpt>
      <trkpt lat="62.632999749244" lon="17.973909738963">
        <ele>95</ele>
        <time>2018-02-26T18:32:58Z</time>
      </trkpt>
      <trkpt lat="62.632985500014" lon="17.973958773078">
        <ele>95.2</ele>
        <time>2018-02-26T18:32:59Z</time>
      </trkpt>
      <trkpt lat="62.632972340431" lon="17.974006717546">
        <ele>95.4</ele>
        <time>2018-02-26T18:33:00Z</time>
      </trkpt>
      <trkpt lat="62.632958258839" lon="17.974061283715">
        <ele>95.4</ele>
        <time>2018-02-26T18:33:01Z</time>
      </trkpt>
      <trkpt lat="62.632943841971" lon="17.974114005866">
        <ele>95.6</ele>
        <time>2018-02-26T18:33:02Z</time>
      </trkpt>
      <trkpt lat="62.632929089827" lon="17.974163207619">
        <ele>95.4</ele>
        <time>2018-02-26T18:33:03Z</time>
      </trkpt>
      <trkpt lat="62.632914421502" lon="17.974207966965">
        <ele>95.4</ele>
        <time>2018-02-26T18:33:04Z</time>
      </trkpt>
      <trkpt lat="62.632898747349" lon="17.974256833442">
        <ele>95.6</ele>
        <time>2018-02-26T18:33:05Z</time>
      </trkpt>
      <trkpt lat="62.63288273792" lon="17.974307376299">
        <ele>95.6</ele>
        <time>2018-02-26T18:33:06Z</time>
      </trkpt>
      <trkpt lat="62.632865890301" lon="17.974350207808">
        <ele>95.6</ele>
        <time>2018-02-26T18:33:07Z</time>
      </trkpt>
      <trkpt lat="62.632843929723" lon="17.974393123136">
        <ele>95.6</ele>
        <time>2018-02-26T18:33:08Z</time>
      </trkpt>
      <trkpt lat="62.632818448747" lon="17.974425561089">
        <ele>95.6</ele>
        <time>2018-02-26T18:33:09Z</time>
      </trkpt>
      <trkpt lat="62.632797074902" lon="17.974445845287">
        <ele>95.4</ele>
        <time>2018-02-26T18:33:10Z</time>
      </trkpt>
      <trkpt lat="62.632766816243" lon="17.974460094517">
        <ele>95.6</ele>
        <time>2018-02-26T18:33:11Z</time>
      </trkpt>
      <trkpt lat="62.632739826525" lon="17.974464620743">
        <ele>95.6</ele>
        <time>2018-02-26T18:33:12Z</time>
      </trkpt>
      <trkpt lat="62.632713255902" lon="17.974457579947">
        <ele>95.8</ele>
        <time>2018-02-26T18:33:13Z</time>
      </trkpt>
      <trkpt lat="62.632689702763" lon="17.974441151423">
        <ele>95.6</ele>
        <time>2018-02-26T18:33:14Z</time>
      </trkpt>
      <trkpt lat="62.632664640882" lon="17.974430674048">
        <ele>95.8</ele>
        <time>2018-02-26T18:33:15Z</time>
      </trkpt>
      <trkpt lat="62.632635974784" lon="17.9744145808">
        <ele>95.8</ele>
        <time>2018-02-26T18:33:16Z</time>
      </trkpt>
      <trkpt lat="62.632607895419" lon="17.974395050973">
        <ele>95.8</ele>
        <time>2018-02-26T18:33:17Z</time>
      </trkpt>
      <trkpt lat="62.632579396959" lon="17.974382142847">
        <ele>95.8</ele>
        <time>2018-02-26T18:33:18Z</time>
      </trkpt>
      <trkpt lat="62.632554335078" lon="17.974365043771">
        <ele>95.8</ele>
        <time>2018-02-26T18:33:19Z</time>
      </trkpt>
      <trkpt lat="62.632530446663" lon="17.974353895844">
        <ele>95.8</ele>
        <time>2018-02-26T18:33:20Z</time>
      </trkpt>
      <trkpt lat="62.632502534936" lon="17.974331264714">
        <ele>96</ele>
        <time>2018-02-26T18:33:21Z</time>
      </trkpt>
      <trkpt lat="62.632481496367" lon="17.974309555593">
        <ele>95.8</ele>
        <time>2018-02-26T18:33:22Z</time>
      </trkpt>
      <trkpt lat="62.632461547445" lon="17.974284493712">
        <ele>95.8</ele>
        <time>2018-02-26T18:33:23Z</time>
      </trkpt>
      <trkpt lat="62.632435647374" lon="17.974254151234">
        <ele>95.8</ele>
        <time>2018-02-26T18:33:24Z</time>
      </trkpt>
      <trkpt lat="62.632416201366" lon="17.974227245335">
        <ele>95.8</ele>
        <time>2018-02-26T18:33:25Z</time>
      </trkpt>
      <trkpt lat="62.63239072039" lon="17.974200758531">
        <ele>95.8</ele>
        <time>2018-02-26T18:33:26Z</time>
      </trkpt>
      <trkpt lat="62.632371525839" lon="17.974183324179">
        <ele>95.8</ele>
        <time>2018-02-26T18:33:27Z</time>
      </trkpt>
      <trkpt lat="62.632349900537" lon="17.974160106316">
        <ele>95.8</ele>
        <time>2018-02-26T18:33:28Z</time>
      </trkpt>
      <trkpt lat="62.632330622167" lon="17.974127668363">
        <ele>96</ele>
        <time>2018-02-26T18:33:29Z</time>
      </trkpt>
      <trkpt lat="62.632306985209" lon="17.974107719441">
        <ele>95.8</ele>
        <time>2018-02-26T18:33:30Z</time>
      </trkpt>
      <trkpt lat="62.63227924112" lon="17.974083914845">
        <ele>95.8</ele>
        <time>2018-02-26T18:33:31Z</time>
      </trkpt>
      <trkpt lat="62.632256107076" lon="17.974058517688">
        <ele>95.8</ele>
        <time>2018-02-26T18:33:32Z</time>
      </trkpt>
      <trkpt lat="62.632230458462" lon="17.974029683952">
        <ele>95.8</ele>
        <time>2018-02-26T18:33:33Z</time>
      </trkpt>
      <trkpt lat="62.632205815676" lon="17.974003783881">
        <ele>95.6</ele>
        <time>2018-02-26T18:33:34Z</time>
      </trkpt>
      <trkpt lat="62.632181340528" lon="17.973979979285">
        <ele>95.6</ele>
        <time>2018-02-26T18:33:35Z</time>
      </trkpt>
      <trkpt lat="62.632154099353" lon="17.973949301531">
        <ele>95.6</ele>
        <time>2018-02-26T18:33:36Z</time>
      </trkpt>
      <trkpt lat="62.632128869834" lon="17.973923569098">
        <ele>95.6</ele>
        <time>2018-02-26T18:33:37Z</time>
      </trkpt>
      <trkpt lat="62.63210238303" lon="17.973893310439">
        <ele>95.6</ele>
        <time>2018-02-26T18:33:38Z</time>
      </trkpt>
      <trkpt lat="62.632076482959" lon="17.973865063436">
        <ele>95.6</ele>
        <time>2018-02-26T18:33:39Z</time>
      </trkpt>
      <trkpt lat="62.63205209163" lon="17.973837654623">
        <ele>95.4</ele>
        <time>2018-02-26T18:33:40Z</time>
      </trkpt>
      <trkpt lat="62.632022671161" lon="17.973803456471">
        <ele>95.4</ele>
        <time>2018-02-26T18:33:41Z</time>
      </trkpt>
      <trkpt lat="62.631997022547" lon="17.973773533088">
        <ele>95.4</ele>
        <time>2018-02-26T18:33:42Z</time>
      </trkpt>
      <trkpt lat="62.631969697553" lon="17.973744196438">
        <ele>95.4</ele>
        <time>2018-02-26T18:33:43Z</time>
      </trkpt>
      <trkpt lat="62.631947569337" lon="17.973718715462">
        <ele>95.4</ele>
        <time>2018-02-26T18:33:44Z</time>
      </trkpt>
      <trkpt lat="62.631925441121" lon="17.973692815391">
        <ele>95.4</ele>
        <time>2018-02-26T18:33:45Z</time>
      </trkpt>
      <trkpt lat="62.631901301249" lon="17.973663227284">
        <ele>95.4</ele>
        <time>2018-02-26T18:33:46Z</time>
      </trkpt>
      <trkpt lat="62.631876490825" lon="17.973634980281">
        <ele>95.4</ele>
        <time>2018-02-26T18:33:47Z</time>
      </trkpt>
      <trkpt lat="62.631851009849" lon="17.973607571468">
        <ele>95.2</ele>
        <time>2018-02-26T18:33:48Z</time>
      </trkpt>
      <trkpt lat="62.631824690683" lon="17.973589718021">
        <ele>95.2</ele>
        <time>2018-02-26T18:33:49Z</time>
      </trkpt>
      <trkpt lat="62.631800550811" lon="17.973570104375">
        <ele>95.2</ele>
        <time>2018-02-26T18:33:50Z</time>
      </trkpt>
      <trkpt lat="62.631777584405" lon="17.973541438277">
        <ele>95.2</ele>
        <time>2018-02-26T18:33:51Z</time>
      </trkpt>
      <trkpt lat="62.631758976587" lon="17.973511598713">
        <ele>95.2</ele>
        <time>2018-02-26T18:33:52Z</time>
      </trkpt>
      <trkpt lat="62.631732238326" lon="17.973475808">
        <ele>95.2</ele>
        <time>2018-02-26T18:33:53Z</time>
      </trkpt>
      <trkpt lat="62.631707679359" lon="17.973446638988">
        <ele>95.2</ele>
        <time>2018-02-26T18:33:54Z</time>
      </trkpt>
      <trkpt lat="62.631685215867" lon="17.97341462013">
        <ele>95.2</ele>
        <time>2018-02-26T18:33:55Z</time>
      </trkpt>
      <trkpt lat="62.631660489262" lon="17.973379080874">
        <ele>95.2</ele>
        <time>2018-02-26T18:33:56Z</time>
      </trkpt>
      <trkpt lat="62.631638528684" lon="17.97334085941">
        <ele>95</ele>
        <time>2018-02-26T18:33:57Z</time>
      </trkpt>
      <trkpt lat="62.631618076848" lon="17.973303811412">
        <ele>95</ele>
        <time>2018-02-26T18:33:58Z</time>
      </trkpt>
      <trkpt lat="62.631594104614" lon="17.973265087034">
        <ele>94.8</ele>
        <time>2018-02-26T18:33:59Z</time>
      </trkpt>
      <trkpt lat="62.631572395493" lon="17.973222004068">
        <ele>94.8</ele>
        <time>2018-02-26T18:34:00Z</time>
      </trkpt>
      <trkpt lat="62.631554122951" lon="17.97316986865">
        <ele>94.8</ele>
        <time>2018-02-26T18:34:01Z</time>
      </trkpt>
      <trkpt lat="62.631535934228" lon="17.973115889214">
        <ele>94.6</ele>
        <time>2018-02-26T18:34:02Z</time>
      </trkpt>
      <trkpt lat="62.631517996962" lon="17.97306677128">
        <ele>94.6</ele>
        <time>2018-02-26T18:34:03Z</time>
      </trkpt>
      <trkpt lat="62.631499389144" lon="17.973021257563">
        <ele>94.4</ele>
        <time>2018-02-26T18:34:04Z</time>
      </trkpt>
      <trkpt lat="62.631478099118" lon="17.972974486561">
        <ele>94.4</ele>
        <time>2018-02-26T18:34:05Z</time>
      </trkpt>
      <trkpt lat="62.631458485472" lon="17.972925620084">
        <ele>94.2</ele>
        <time>2018-02-26T18:34:06Z</time>
      </trkpt>
      <trkpt lat="62.631443398052" lon="17.972877927073">
        <ele>94.2</ele>
        <time>2018-02-26T18:34:07Z</time>
      </trkpt>
      <trkpt lat="62.631424957872" lon="17.972829814967">
        <ele>94</ele>
        <time>2018-02-26T18:34:08Z</time>
      </trkpt>
      <trkpt lat="62.631406852968" lon="17.972787234915">
        <ele>93.8</ele>
        <time>2018-02-26T18:34:09Z</time>
      </trkpt>
      <trkpt lat="62.631388412788" lon="17.972746163605">
        <ele>93.6</ele>
        <time>2018-02-26T18:34:10Z</time>
      </trkpt>
      <trkpt lat="62.631369469694" lon="17.97269461492">
        <ele>93.4</ele>
        <time>2018-02-26T18:34:11Z</time>
      </trkpt>
      <trkpt lat="62.631352873532" lon="17.972647089547">
        <ele>93.2</ele>
        <time>2018-02-26T18:34:12Z</time>
      </trkpt>
      <trkpt lat="62.631333678981" lon="17.972595876138">
        <ele>93</ele>
        <time>2018-02-26T18:34:13Z</time>
      </trkpt>
      <trkpt lat="62.631314568249" lon="17.972547512575">
        <ele>92.8</ele>
        <time>2018-02-26T18:34:14Z</time>
      </trkpt>
      <trkpt lat="62.631296295707" lon="17.972500071021">
        <ele>92.8</ele>
        <time>2018-02-26T18:34:15Z</time>
      </trkpt>
      <trkpt lat="62.631277268794" lon="17.972451875096">
        <ele>92.6</ele>
        <time>2018-02-26T18:34:16Z</time>
      </trkpt>
      <trkpt lat="62.631260504994" lon="17.972395632547">
        <ele>92.4</ele>
        <time>2018-02-26T18:34:17Z</time>
      </trkpt>
      <trkpt lat="62.631246339583" lon="17.972343748586">
        <ele>92</ele>
        <time>2018-02-26T18:34:18Z</time>
      </trkpt>
      <trkpt lat="62.631230833068" lon="17.972289014779">
        <ele>92</ele>
        <time>2018-02-26T18:34:19Z</time>
      </trkpt>
      <trkpt lat="62.631216500019" lon="17.972232688411">
        <ele>91.8</ele>
        <time>2018-02-26T18:34:20Z</time>
      </trkpt>
      <trkpt lat="62.631201077323" lon="17.9721766135">
        <ele>91.8</ele>
        <time>2018-02-26T18:34:21Z</time>
      </trkpt>
      <trkpt lat="62.631184816437" lon="17.972123220797">
        <ele>91.6</ele>
        <time>2018-02-26T18:34:22Z</time>
      </trkpt>
      <trkpt lat="62.631168723189" lon="17.972065888601">
        <ele>91.6</ele>
        <time>2018-02-26T18:34:23Z</time>
      </trkpt>
      <trkpt lat="62.631154054864" lon="17.972010735699">
        <ele>91.4</ele>
        <time>2018-02-26T18:34:24Z</time>
      </trkpt>
      <trkpt lat="62.631141901109" lon="17.971960779575">
        <ele>91.4</ele>
        <time>2018-02-26T18:34:25Z</time>
      </trkpt>
      <trkpt lat="62.631126981327" lon="17.971907051596">
        <ele>91.2</ele>
        <time>2018-02-26T18:34:26Z</time>
      </trkpt>
      <trkpt lat="62.631112899735" lon="17.971849970857">
        <ele>91</ele>
        <time>2018-02-26T18:34:27Z</time>
      </trkpt>
      <trkpt lat="62.631097141763" lon="17.971795907602">
        <ele>90.8</ele>
        <time>2018-02-26T18:34:28Z</time>
      </trkpt>
      <trkpt lat="62.631082138162" lon="17.97173488737">
        <ele>90.8</ele>
        <time>2018-02-26T18:34:29Z</time>
      </trkpt>
      <trkpt lat="62.631069565312" lon="17.971679399192">
        <ele>90.8</ele>
        <time>2018-02-26T18:34:30Z</time>
      </trkpt>
      <trkpt lat="62.631055651358" lon="17.971616786399">
        <ele>90.6</ele>
        <time>2018-02-26T18:34:31Z</time>
      </trkpt>
      <trkpt lat="62.631044419612" lon="17.971554927977">
        <ele>90.4</ele>
        <time>2018-02-26T18:34:32Z</time>
      </trkpt>
      <trkpt lat="62.631034026056" lon="17.971497092867">
        <ele>90.2</ele>
        <time>2018-02-26T18:34:33Z</time>
      </trkpt>
      <trkpt lat="62.63102447069" lon="17.971434731531">
        <ele>90.2</ele>
        <time>2018-02-26T18:34:34Z</time>
      </trkpt>
      <trkpt lat="62.631014496229" lon="17.971375555317">
        <ele>90</ele>
        <time>2018-02-26T18:34:35Z</time>
      </trkpt>
      <trkpt lat="62.631004102673" lon="17.97131076323">
        <ele>90</ele>
        <time>2018-02-26T18:34:36Z</time>
      </trkpt>
      <trkpt lat="62.630996307506" lon="17.971249910636">
        <ele>90</ele>
        <time>2018-02-26T18:34:37Z</time>
      </trkpt>
      <trkpt lat="62.630985494855" lon="17.971187297843">
        <ele>89.8</ele>
        <time>2018-02-26T18:34:38Z</time>
      </trkpt>
      <trkpt lat="62.630977448231" lon="17.971121583747">
        <ele>89.8</ele>
        <time>2018-02-26T18:34:39Z</time>
      </trkpt>
      <trkpt lat="62.630969820702" lon="17.971066598483">
        <ele>89.8</ele>
        <time>2018-02-26T18:34:40Z</time>
      </trkpt>
      <trkpt lat="62.630959427146" lon="17.970995687609">
        <ele>89.6</ele>
        <time>2018-02-26T18:34:41Z</time>
      </trkpt>
      <trkpt lat="62.630950542332" lon="17.970935002653">
        <ele>89.6</ele>
        <time>2018-02-26T18:34:42Z</time>
      </trkpt>
      <trkpt lat="62.630943333898" lon="17.970876161715">
        <ele>89.4</ele>
        <time>2018-02-26T18:34:43Z</time>
      </trkpt>
      <trkpt lat="62.630936963654" lon="17.970810866714">
        <ele>89.2</ele>
        <time>2018-02-26T18:34:44Z</time>
      </trkpt>
      <trkpt lat="62.630927827383" lon="17.970755965269">
        <ele>89.2</ele>
        <time>2018-02-26T18:34:45Z</time>
      </trkpt>
      <trkpt lat="62.630920032216" lon="17.970699303625">
        <ele>89</ele>
        <time>2018-02-26T18:34:46Z</time>
      </trkpt>
      <trkpt lat="62.630913242877" lon="17.970623531249">
        <ele>88.8</ele>
        <time>2018-02-26T18:34:47Z</time>
      </trkpt>
      <trkpt lat="62.630904358063" lon="17.970555637859">
        <ele>88.8</ele>
        <time>2018-02-26T18:34:48Z</time>
      </trkpt>
      <trkpt lat="62.630898909828" lon="17.970494449989">
        <ele>88.8</ele>
        <time>2018-02-26T18:34:49Z</time>
      </trkpt>
      <trkpt lat="62.63089371305" lon="17.970438961811">
        <ele>88.6</ele>
        <time>2018-02-26T18:34:50Z</time>
      </trkpt>
      <trkpt lat="62.630889941195" lon="17.970374085905">
        <ele>88.6</ele>
        <time>2018-02-26T18:34:51Z</time>
      </trkpt>
      <trkpt lat="62.630887510444" lon="17.970321615211">
        <ele>88.6</ele>
        <time>2018-02-26T18:34:52Z</time>
      </trkpt>
      <trkpt lat="62.630885163512" lon="17.970219104574">
        <ele>88.2</ele>
        <time>2018-02-26T18:34:54Z</time>
      </trkpt>
      <trkpt lat="62.630887510444" lon="17.970189097372">
        <ele>88</ele>
        <time>2018-02-26T18:34:55Z</time>
      </trkpt>
      <trkpt lat="62.630890527928" lon="17.970162778206">
        <ele>88</ele>
        <time>2018-02-26T18:34:56Z</time>
      </trkpt>
      <trkpt lat="62.630894635059" lon="17.970145846768">
        <ele>88</ele>
        <time>2018-02-26T18:34:57Z</time>
      </trkpt>
      <trkpt lat="62.630896143801" lon="17.970136207583">
        <ele>87.8</ele>
        <time>2018-02-26T18:34:58Z</time>
      </trkpt>
      <trkpt lat="62.630895976163" lon="17.970134112108">
        <ele>87.8</ele>
        <time>2018-02-26T18:34:59Z</time>
      </trkpt>
      <trkpt lat="62.631171908311" lon="17.969998241509">
        <ele>86.8</ele>
        <time>2018-02-26T18:35:49Z</time>
      </trkpt>
      <trkpt lat="62.631204849178" lon="17.969982399718">
        <ele>86.6</ele>
        <time>2018-02-26T18:35:50Z</time>
      </trkpt>
      <trkpt lat="62.63124072371" lon="17.969962534615">
        <ele>86.6</ele>
        <time>2018-02-26T18:35:51Z</time>
      </trkpt>
      <trkpt lat="62.631271066188" lon="17.969944094435">
        <ele>86.6</ele>
        <time>2018-02-26T18:35:52Z</time>
      </trkpt>
      <trkpt lat="62.631307862729" lon="17.969921798581">
        <ele>86.6</ele>
        <time>2018-02-26T18:35:53Z</time>
      </trkpt>
      <trkpt lat="62.631339546311" lon="17.969901598202">
        <ele>86.4</ele>
        <time>2018-02-26T18:35:54Z</time>
      </trkpt>
      <trkpt lat="62.631372068083" lon="17.969890114999">
        <ele>86.4</ele>
        <time>2018-02-26T18:35:55Z</time>
      </trkpt>
      <trkpt lat="62.631407020606" lon="17.969874189389">
        <ele>86.2</ele>
        <time>2018-02-26T18:35:56Z</time>
      </trkpt>
      <trkpt lat="62.631438368912" lon="17.969858682874">
        <ele>86</ele>
        <time>2018-02-26T18:35:57Z</time>
      </trkpt>
      <trkpt lat="62.631455803264" lon="17.969846780576">
        <ele>85.8</ele>
        <time>2018-02-26T18:35:58Z</time>
      </trkpt>
      <trkpt lat="62.631498802411" lon="17.969825742007">
        <ele>85.6</ele>
        <time>2018-02-26T18:35:59Z</time>
      </trkpt>
      <trkpt lat="62.631528306699" lon="17.969814677899">
        <ele>85.8</ele>
        <time>2018-02-26T18:36:00Z</time>
      </trkpt>
      <trkpt lat="62.631563343041" lon="17.969791292398">
        <ele>85.8</ele>
        <time>2018-02-26T18:36:01Z</time>
      </trkpt>
      <trkpt lat="62.631595697175" lon="17.969772768399">
        <ele>85.8</ele>
        <time>2018-02-26T18:36:02Z</time>
      </trkpt>
      <trkpt lat="62.631630565879" lon="17.969748293251">
        <ele>85.8</ele>
        <time>2018-02-26T18:36:03Z</time>
      </trkpt>
      <trkpt lat="62.631658309968" lon="17.969722644637">
        <ele>86</ele>
        <time>2018-02-26T18:36:04Z</time>
      </trkpt>
      <trkpt lat="62.631690077369" lon="17.969690877236">
        <ele>86</ele>
        <time>2018-02-26T18:36:05Z</time>
      </trkpt>
      <trkpt lat="62.631719916933" lon="17.969656511446">
        <ele>86</ele>
        <time>2018-02-26T18:36:06Z</time>
      </trkpt>
      <trkpt lat="62.631749253583" lon="17.969620217819">
        <ele>85.6</ele>
        <time>2018-02-26T18:36:07Z</time>
      </trkpt>
      <trkpt lat="62.631779512242" lon="17.969586941676">
        <ele>85.2</ele>
        <time>2018-02-26T18:36:08Z</time>
      </trkpt>
      <trkpt lat="62.631809770901" lon="17.969571938075">
        <ele>84.8</ele>
        <time>2018-02-26T18:36:09Z</time>
      </trkpt>
      <trkpt lat="62.631836844438" lon="17.969565400193">
        <ele>84.6</ele>
        <time>2018-02-26T18:36:10Z</time>
      </trkpt>
      <trkpt lat="62.631871126409" lon="17.969563807632">
        <ele>84.6</ele>
        <time>2018-02-26T18:36:11Z</time>
      </trkpt>
      <trkpt lat="62.631903312905" lon="17.969561376881">
        <ele>84.6</ele>
        <time>2018-02-26T18:36:12Z</time>
      </trkpt>
      <trkpt lat="62.631930805537" lon="17.969561628338">
        <ele>84.6</ele>
        <time>2018-02-26T18:36:13Z</time>
      </trkpt>
      <trkpt lat="62.631962070024" lon="17.96956313708">
        <ele>84.8</ele>
        <time>2018-02-26T18:36:14Z</time>
      </trkpt>
      <trkpt lat="62.631989311199" lon="17.969564059089">
        <ele>85</ele>
        <time>2018-02-26T18:36:15Z</time>
      </trkpt>
      <trkpt lat="62.63202024041" lon="17.969562801804">
        <ele>85</ele>
        <time>2018-02-26T18:36:16Z</time>
      </trkpt>
      <trkpt lat="62.632048822689" lon="17.969558443216">
        <ele>85.2</ele>
        <time>2018-02-26T18:36:17Z</time>
      </trkpt>
      <trkpt lat="62.632082434108" lon="17.969555509551">
        <ele>85</ele>
        <time>2018-02-26T18:36:18Z</time>
      </trkpt>
      <trkpt lat="62.632111435482" lon="17.969547546746">
        <ele>85</ele>
        <time>2018-02-26T18:36:19Z</time>
      </trkpt>
      <trkpt lat="62.632141023589" lon="17.969533884249">
        <ele>85</ele>
        <time>2018-02-26T18:36:20Z</time>
      </trkpt>
      <trkpt lat="62.632174048275" lon="17.969522736322">
        <ele>85.2</ele>
        <time>2018-02-26T18:36:21Z</time>
      </trkpt>
      <trkpt lat="62.632200115984" lon="17.969512594223">
        <ele>85.4</ele>
        <time>2018-02-26T18:36:22Z</time>
      </trkpt>
      <trkpt lat="62.632232973032" lon="17.969502955038">
        <ele>85.4</ele>
        <time>2018-02-26T18:36:23Z</time>
      </trkpt>
      <trkpt lat="62.632257699637" lon="17.969493651129">
        <ele>85.4</ele>
        <time>2018-02-26T18:36:24Z</time>
      </trkpt>
      <trkpt lat="62.632288964124" lon="17.969490801283">
        <ele>85.4</ele>
        <time>2018-02-26T18:36:25Z</time>
      </trkpt>
      <trkpt lat="62.632320982982" lon="17.969484431039">
        <ele>85.4</ele>
        <time>2018-02-26T18:36:26Z</time>
      </trkpt>
      <trkpt lat="62.632351241641" lon="17.969482587021">
        <ele>85.2</ele>
        <time>2018-02-26T18:36:27Z</time>
      </trkpt>
      <trkpt lat="62.632383009042" lon="17.969484850134">
        <ele>85.2</ele>
        <time>2018-02-26T18:36:28Z</time>
      </trkpt>
      <trkpt lat="62.632416201366" lon="17.969488370532">
        <ele>85.2</ele>
        <time>2018-02-26T18:36:29Z</time>
      </trkpt>
      <trkpt lat="62.632446627663" lon="17.969492896758">
        <ele>85.2</ele>
        <time>2018-02-26T18:36:30Z</time>
      </trkpt>
      <trkpt lat="62.632478562702" lon="17.969488286713">
        <ele>85.2</ele>
        <time>2018-02-26T18:36:31Z</time>
      </trkpt>
      <trkpt lat="62.632510749198" lon="17.969491136559">
        <ele>85.4</ele>
        <time>2018-02-26T18:36:32Z</time>
      </trkpt>
      <trkpt lat="62.632538158011" lon="17.969492561482">
        <ele>85.4</ele>
        <time>2018-02-26T18:36:33Z</time>
      </trkpt>
      <trkpt lat="62.632566321195" lon="17.969497925898">
        <ele>85.4</ele>
        <time>2018-02-26T18:36:34Z</time>
      </trkpt>
      <trkpt lat="62.632593227094" lon="17.969502871219">
        <ele>85.4</ele>
        <time>2018-02-26T18:36:35Z</time>
      </trkpt>
      <trkpt lat="62.632620132993" lon="17.96950781654">
        <ele>85.2</ele>
        <time>2018-02-26T18:36:36Z</time>
      </trkpt>
      <trkpt lat="62.632651313661" lon="17.969514102965">
        <ele>85.2</ele>
        <time>2018-02-26T18:36:37Z</time>
      </trkpt>
      <trkpt lat="62.632676375542" lon="17.969516785173">
        <ele>85.2</ele>
        <time>2018-02-26T18:36:38Z</time>
      </trkpt>
      <trkpt lat="62.632706969477" lon="17.9695195512">
        <ele>85.2</ele>
        <time>2018-02-26T18:36:39Z</time>
      </trkpt>
      <trkpt lat="62.632734043014" lon="17.969525083254">
        <ele>85.4</ele>
        <time>2018-02-26T18:36:40Z</time>
      </trkpt>
      <trkpt lat="62.63276790589" lon="17.969530112394">
        <ele>85.4</ele>
        <time>2018-02-26T18:36:41Z</time>
      </trkpt>
      <trkpt lat="62.632794225056" lon="17.969532710783">
        <ele>85.4</ele>
        <time>2018-02-26T18:36:42Z</time>
      </trkpt>
      <trkpt lat="62.632822304421" lon="17.969533129878">
        <ele>85.6</ele>
        <time>2018-02-26T18:36:43Z</time>
      </trkpt>
      <trkpt lat="62.632849545596" lon="17.969539081027">
        <ele>85.4</ele>
        <time>2018-02-26T18:36:44Z</time>
      </trkpt>
      <trkpt lat="62.632874439839" lon="17.969533465154">
        <ele>85.6</ele>
        <time>2018-02-26T18:36:45Z</time>
      </trkpt>
      <trkpt lat="62.632903105937" lon="17.969533046059">
        <ele>85.6</ele>
        <time>2018-02-26T18:36:46Z</time>
      </trkpt>
      <trkpt lat="62.632930933845" lon="17.969536734095">
        <ele>85.6</ele>
        <time>2018-02-26T18:36:47Z</time>
      </trkpt>
      <trkpt lat="62.632960019038" lon="17.969540589769">
        <ele>85.6</ele>
        <time>2018-02-26T18:36:48Z</time>
      </trkpt>
      <trkpt lat="62.632989439507" lon="17.969543942529">
        <ele>85.8</ele>
        <time>2018-02-26T18:36:49Z</time>
      </trkpt>
      <trkpt lat="62.633014249931" lon="17.969543439615">
        <ele>85.8</ele>
        <time>2018-02-26T18:36:50Z</time>
      </trkpt>
      <trkpt lat="62.633046436427" lon="17.969559029949">
        <ele>86</ele>
        <time>2018-02-26T18:36:51Z</time>
      </trkpt>
      <trkpt lat="62.633072587955" lon="17.969567244211">
        <ele>86.2</ele>
        <time>2018-02-26T18:36:52Z</time>
      </trkpt>
      <trkpt lat="62.633100248225" lon="17.969564142908">
        <ele>86.2</ele>
        <time>2018-02-26T18:36:53Z</time>
      </trkpt>
      <trkpt lat="62.633127908495" lon="17.969563220899">
        <ele>86.2</ele>
        <time>2018-02-26T18:36:54Z</time>
      </trkpt>
      <trkpt lat="62.633153557109" lon="17.969564142908">
        <ele>86.2</ele>
        <time>2018-02-26T18:36:55Z</time>
      </trkpt>
      <trkpt lat="62.633185575967" lon="17.969576715758">
        <ele>86.2</ele>
        <time>2018-02-26T18:36:56Z</time>
      </trkpt>
      <trkpt lat="62.633212062771" lon="17.969588618056">
        <ele>86.2</ele>
        <time>2018-02-26T18:36:57Z</time>
      </trkpt>
      <trkpt lat="62.63324064505" lon="17.96960504658">
        <ele>86.4</ele>
        <time>2018-02-26T18:36:58Z</time>
      </trkpt>
      <trkpt lat="62.633262605628" lon="17.969617954706">
        <ele>86.4</ele>
        <time>2018-02-26T18:36:59Z</time>
      </trkpt>
      <trkpt lat="62.633288338061" lon="17.969638741818">
        <ele>86.4</ele>
        <time>2018-02-26T18:37:00Z</time>
      </trkpt>
      <trkpt lat="62.633317926168" lon="17.969667240278">
        <ele>86.4</ele>
        <time>2018-02-26T18:37:01Z</time>
      </trkpt>
      <trkpt lat="62.633343155687" lon="17.969698337127">
        <ele>86.4</ele>
        <time>2018-02-26T18:37:02Z</time>
      </trkpt>
      <trkpt lat="62.633366038274" lon="17.969741503912">
        <ele>86.4</ele>
        <time>2018-02-26T18:37:03Z</time>
      </trkpt>
      <trkpt lat="62.633381125694" lon="17.969784922154">
        <ele>86.4</ele>
        <time>2018-02-26T18:37:04Z</time>
      </trkpt>
      <trkpt lat="62.633394285277" lon="17.96983471064">
        <ele>86.6</ele>
        <time>2018-02-26T18:37:05Z</time>
      </trkpt>
      <trkpt lat="62.633400236426" lon="17.969888690076">
        <ele>86.8</ele>
        <time>2018-02-26T18:37:06Z</time>
      </trkpt>
      <trkpt lat="62.633401074616" lon="17.969938310924">
        <ele>87</ele>
        <time>2018-02-26T18:37:07Z</time>
      </trkpt>
      <trkpt lat="62.633403589186" lon="17.969992541817">
        <ele>87</ele>
        <time>2018-02-26T18:37:08Z</time>
      </trkpt>
      <trkpt lat="62.633405684661" lon="17.970045431606">
        <ele>87.2</ele>
        <time>2018-02-26T18:37:09Z</time>
      </trkpt>
      <trkpt lat="62.633407361041" lon="17.9700979023">
        <ele>87.2</ele>
        <time>2018-02-26T18:37:10Z</time>
      </trkpt>
      <trkpt lat="62.633412222543" lon="17.970151965555">
        <ele>87.2</ele>
        <time>2018-02-26T18:37:11Z</time>
      </trkpt>
      <trkpt lat="62.633413898923" lon="17.970209130113">
        <ele>87.4</ele>
        <time>2018-02-26T18:37:12Z</time>
      </trkpt>
      <trkpt lat="62.633413563647" lon="17.970262355178">
        <ele>87.4</ele>
        <time>2018-02-26T18:37:13Z</time>
      </trkpt>
      <trkpt lat="62.633415491484" lon="17.970312311302">
        <ele>87.6</ele>
        <time>2018-02-26T18:37:14Z</time>
      </trkpt>
      <trkpt lat="62.633417838416" lon="17.970371319878">
        <ele>87.8</ele>
        <time>2018-02-26T18:37:15Z</time>
      </trkpt>
      <trkpt lat="62.633427393782" lon="17.970421276002">
        <ele>87.8</ele>
        <time>2018-02-26T18:37:16Z</time>
      </trkpt>
      <trkpt lat="62.633434099302" lon="17.970479111112">
        <ele>88</ele>
        <time>2018-02-26T18:37:17Z</time>
      </trkpt>
      <trkpt lat="62.63344013427" lon="17.970527390856">
        <ele>88.2</ele>
        <time>2018-02-26T18:37:18Z</time>
      </trkpt>
      <trkpt lat="62.633443403211" lon="17.970579693912">
        <ele>88.2</ele>
        <time>2018-02-26T18:37:19Z</time>
      </trkpt>
      <trkpt lat="62.633444995772" lon="17.970629650036">
        <ele>88.2</ele>
        <time>2018-02-26T18:37:20Z</time>
      </trkpt>
      <trkpt lat="62.633447761799" lon="17.970684886757">
        <ele>88.4</ele>
        <time>2018-02-26T18:37:21Z</time>
      </trkpt>
      <trkpt lat="62.633450444007" lon="17.970738447098">
        <ele>88.4</ele>
        <time>2018-02-26T18:37:22Z</time>
      </trkpt>
      <trkpt lat="62.633454048224" lon="17.970790331059">
        <ele>88.6</ele>
        <time>2018-02-26T18:37:23Z</time>
      </trkpt>
      <trkpt lat="62.633455054052" lon="17.970850010187">
        <ele>88.6</ele>
        <time>2018-02-26T18:37:24Z</time>
      </trkpt>
      <trkpt lat="62.633456646613" lon="17.970899295759">
        <ele>88.8</ele>
        <time>2018-02-26T18:37:25Z</time>
      </trkpt>
      <trkpt lat="62.633456395156" lon="17.970958220516">
        <ele>89</ele>
        <time>2018-02-26T18:37:26Z</time>
      </trkpt>
      <trkpt lat="62.633455724604" lon="17.971013708694">
        <ele>89</ele>
        <time>2018-02-26T18:37:27Z</time>
      </trkpt>
      <trkpt lat="62.633459831735" lon="17.971058803316">
        <ele>89.2</ele>
        <time>2018-02-26T18:37:28Z</time>
      </trkpt>
      <trkpt lat="62.63346025083" lon="17.971115213503">
        <ele>89.2</ele>
        <time>2018-02-26T18:37:29Z</time>
      </trkpt>
      <trkpt lat="62.633462262486" lon="17.971163409428">
        <ele>89.2</ele>
        <time>2018-02-26T18:37:30Z</time>
      </trkpt>
      <trkpt lat="62.633462933038" lon="17.97122359147">
        <ele>89.2</ele>
        <time>2018-02-26T18:37:31Z</time>
      </trkpt>
      <trkpt lat="62.63346360359" lon="17.971281091304">
        <ele>89.4</ele>
        <time>2018-02-26T18:37:32Z</time>
      </trkpt>
      <trkpt lat="62.63346192721" lon="17.971336495663">
        <ele>89.6</ele>
        <time>2018-02-26T18:37:33Z</time>
      </trkpt>
      <trkpt lat="62.633458993545" lon="17.971389972185">
        <ele>89.6</ele>
        <time>2018-02-26T18:37:34Z</time>
      </trkpt>
      <trkpt lat="62.633460837563" lon="17.971440012128">
        <ele>89.8</ele>
        <time>2018-02-26T18:37:35Z</time>
      </trkpt>
      <trkpt lat="62.633457820079" lon="17.971498769247">
        <ele>89.6</ele>
        <time>2018-02-26T18:37:36Z</time>
      </trkpt>
      <trkpt lat="62.633456395156" lon="17.97155048557">
        <ele>89.8</ele>
        <time>2018-02-26T18:37:37Z</time>
      </trkpt>
      <trkpt lat="62.633452455663" lon="17.97160748249">
        <ele>89.8</ele>
        <time>2018-02-26T18:37:38Z</time>
      </trkpt>
      <trkpt lat="62.633448851446" lon="17.97166364122">
        <ele>90</ele>
        <time>2018-02-26T18:37:39Z</time>
      </trkpt>
      <trkpt lat="62.633446085419" lon="17.971714435534">
        <ele>90</ele>
        <time>2018-02-26T18:37:40Z</time>
      </trkpt>
      <trkpt lat="62.633441978288" lon="17.971775371947">
        <ele>90.2</ele>
        <time>2018-02-26T18:37:41Z</time>
      </trkpt>
      <trkpt lat="62.63343929608" lon="17.971825998623">
        <ele>90.2</ele>
        <time>2018-02-26T18:37:42Z</time>
      </trkpt>
      <trkpt lat="62.633432758198" lon="17.971880480973">
        <ele>90.4</ele>
        <time>2018-02-26T18:37:43Z</time>
      </trkpt>
      <trkpt lat="62.633427729058" lon="17.971926413785">
        <ele>90.6</ele>
        <time>2018-02-26T18:37:44Z</time>
      </trkpt>
      <trkpt lat="62.633420772081" lon="17.971982237239">
        <ele>90.6</ele>
        <time>2018-02-26T18:37:45Z</time>
      </trkpt>
      <trkpt lat="62.633412641638" lon="17.972037976874">
        <ele>90.8</ele>
        <time>2018-02-26T18:37:46Z</time>
      </trkpt>
      <trkpt lat="62.633404846471" lon="17.97209866183">
        <ele>91</ele>
        <time>2018-02-26T18:37:47Z</time>
      </trkpt>
      <trkpt lat="62.633396129295" lon="17.972156664578">
        <ele>91.2</ele>
        <time>2018-02-26T18:37:48Z</time>
      </trkpt>
      <trkpt lat="62.633389507594" lon="17.972208380901">
        <ele>91.2</ele>
        <time>2018-02-26T18:37:49Z</time>
      </trkpt>
      <trkpt lat="62.63338146097" lon="17.972253559342">
        <ele>91.2</ele>
        <time>2018-02-26T18:37:50Z</time>
      </trkpt>
      <trkpt lat="62.633370899776" lon="17.972307035864">
        <ele>91.4</ele>
        <time>2018-02-26T18:37:51Z</time>
      </trkpt>
      <trkpt lat="62.633360338582" lon="17.972355399427">
        <ele>91.2</ele>
        <time>2018-02-26T18:37:52Z</time>
      </trkpt>
      <trkpt lat="62.633348687741" lon="17.972413569813">
        <ele>91.4</ele>
        <time>2018-02-26T18:37:53Z</time>
      </trkpt>
      <trkpt lat="62.633337455995" lon="17.972465369955">
        <ele>91.4</ele>
        <time>2018-02-26T18:37:54Z</time>
      </trkpt>
      <trkpt lat="62.633326224249" lon="17.972518511201">
        <ele>91.6</ele>
        <time>2018-02-26T18:37:55Z</time>
      </trkpt>
      <trkpt lat="62.633316752702" lon="17.972570981895">
        <ele>91.6</ele>
        <time>2018-02-26T18:37:56Z</time>
      </trkpt>
      <trkpt lat="62.633305018042" lon="17.972627978815">
        <ele>91.8</ele>
        <time>2018-02-26T18:37:57Z</time>
      </trkpt>
      <trkpt lat="62.633293702477" lon="17.972675001274">
        <ele>91.8</ele>
        <time>2018-02-26T18:37:58Z</time>
      </trkpt>
      <trkpt lat="62.633283308921" lon="17.972727555787">
        <ele>91.8</ele>
        <time>2018-02-26T18:37:59Z</time>
      </trkpt>
      <trkpt lat="62.633273837374" lon="17.972781032309">
        <ele>91.8</ele>
        <time>2018-02-26T18:38:00Z</time>
      </trkpt>
      <trkpt lat="62.633266209845" lon="17.972831323709">
        <ele>92</ele>
        <time>2018-02-26T18:38:01Z</time>
      </trkpt>
      <trkpt lat="62.633257576488" lon="17.972887063344">
        <ele>92.2</ele>
        <time>2018-02-26T18:38:02Z</time>
      </trkpt>
      <trkpt lat="62.633251038606" lon="17.972932744699">
        <ele>92.2</ele>
        <time>2018-02-26T18:38:03Z</time>
      </trkpt>
      <trkpt lat="62.633240896507" lon="17.972980353891">
        <ele>92.4</ele>
        <time>2018-02-26T18:38:04Z</time>
      </trkpt>
      <trkpt lat="62.633230502951" lon="17.973030561472">
        <ele>92.4</ele>
        <time>2018-02-26T18:38:05Z</time>
      </trkpt>
      <trkpt lat="62.633219857938" lon="17.973084540908">
        <ele>92.2</ele>
        <time>2018-02-26T18:38:06Z</time>
      </trkpt>
      <trkpt lat="62.633208542373" lon="17.973137849792">
        <ele>92.2</ele>
        <time>2018-02-26T18:38:07Z</time>
      </trkpt>
      <trkpt lat="62.633199741378" lon="17.973186213355">
        <ele>92.2</ele>
        <time>2018-02-26T18:38:08Z</time>
      </trkpt>
      <trkpt lat="62.633187755261" lon="17.973233990185">
        <ele>92.4</ele>
        <time>2018-02-26T18:38:09Z</time>
      </trkpt>
      <trkpt lat="62.633179624818" lon="17.97327799516">
        <ele>92.4</ele>
        <time>2018-02-26T18:38:10Z</time>
      </trkpt>
      <trkpt lat="62.633166297597" lon="17.973338177202">
        <ele>92.6</ele>
        <time>2018-02-26T18:38:11Z</time>
      </trkpt>
      <trkpt lat="62.633152467462" lon="17.973389558249">
        <ele>92.6</ele>
        <time>2018-02-26T18:38:12Z</time>
      </trkpt>
      <trkpt lat="62.63314090044" lon="17.973439179097">
        <ele>92.6</ele>
        <time>2018-02-26T18:38:13Z</time>
      </trkpt>
      <trkpt lat="62.63312916578" lon="17.973485363366">
        <ele>92.8</ele>
        <time>2018-02-26T18:38:14Z</time>
      </trkpt>
      <trkpt lat="62.633118520767" lon="17.973528446332">
        <ele>93</ele>
        <time>2018-02-26T18:38:15Z</time>
      </trkpt>
      <trkpt lat="62.63310485827" lon="17.97357555261">
        <ele>93</ele>
        <time>2018-02-26T18:38:16Z</time>
      </trkpt>
      <trkpt lat="62.633091614868" lon="17.973624502906">
        <ele>93.2</ele>
        <time>2018-02-26T18:38:17Z</time>
      </trkpt>
      <trkpt lat="62.633080969855" lon="17.973670016623">
        <ele>93.2</ele>
        <time>2018-02-26T18:38:18Z</time>
      </trkpt>
      <trkpt lat="62.633069235195" lon="17.973717541996">
        <ele>93.4</ele>
        <time>2018-02-26T18:38:19Z</time>
      </trkpt>
      <trkpt lat="62.633060266562" lon="17.9737607926">
        <ele>93.2</ele>
        <time>2018-02-26T18:38:20Z</time>
      </trkpt>
      <trkpt lat="62.633048364264" lon="17.973805551946">
        <ele>93.2</ele>
        <time>2018-02-26T18:38:21Z</time>
      </trkpt>
      <trkpt lat="62.6330352885" lon="17.973850395111">
        <ele>93.4</ele>
        <time>2018-02-26T18:38:22Z</time>
      </trkpt>
      <trkpt lat="62.633022045098" lon="17.973895489733">
        <ele>93.6</ele>
        <time>2018-02-26T18:38:23Z</time>
      </trkpt>
      <trkpt lat="62.63300930461" lon="17.973945026762">
        <ele>93.8</ele>
        <time>2018-02-26T18:38:24Z</time>
      </trkpt>
      <trkpt lat="62.63299924633" lon="17.973991462488">
        <ele>94</ele>
        <time>2018-02-26T18:38:25Z</time>
      </trkpt>
      <trkpt lat="62.632985080919" lon="17.974046280114">
        <ele>94.2</ele>
        <time>2018-02-26T18:38:26Z</time>
      </trkpt>
      <trkpt lat="62.632972256612" lon="17.974095314229">
        <ele>94.4</ele>
        <time>2018-02-26T18:38:27Z</time>
      </trkpt>
      <trkpt lat="62.632960941047" lon="17.974140660308">
        <ele>94.4</ele>
        <time>2018-02-26T18:38:28Z</time>
      </trkpt>
      <trkpt lat="62.632946021265" lon="17.974195477934">
        <ele>94.2</ele>
        <time>2018-02-26T18:38:29Z</time>
      </trkpt>
      <trkpt lat="62.632935962985" lon="17.974237890348">
        <ele>94.2</ele>
        <time>2018-02-26T18:38:30Z</time>
      </trkpt>
      <trkpt lat="62.632919534461" lon="17.974291534508">
        <ele>94.4</ele>
        <time>2018-02-26T18:38:31Z</time>
      </trkpt>
      <trkpt lat="62.632905620507" lon="17.974333611646">
        <ele>94.4</ele>
        <time>2018-02-26T18:38:32Z</time>
      </trkpt>
      <trkpt lat="62.632885755404" lon="17.974375437327">
        <ele>94.4</ele>
        <time>2018-02-26T18:38:33Z</time>
      </trkpt>
      <trkpt lat="62.632867231405" lon="17.97440703709">
        <ele>94.4</ele>
        <time>2018-02-26T18:38:34Z</time>
      </trkpt>
      <trkpt lat="62.632845354646" lon="17.974434278265">
        <ele>94.6</ele>
        <time>2018-02-26T18:38:35Z</time>
      </trkpt>
      <trkpt lat="62.632817694376" lon="17.974452131712">
        <ele>94.6</ele>
        <time>2018-02-26T18:38:36Z</time>
      </trkpt>
      <trkpt lat="62.632793805961" lon="17.974454059549">
        <ele>94.6</ele>
        <time>2018-02-26T18:38:37Z</time>
      </trkpt>
      <trkpt lat="62.632767570614" lon="17.974445090916">
        <ele>94.6</ele>
        <time>2018-02-26T18:38:38Z</time>
      </trkpt>
      <trkpt lat="62.632742592552" lon="17.974433775351">
        <ele>94.6</ele>
        <time>2018-02-26T18:38:39Z</time>
      </trkpt>
      <trkpt lat="62.632721637802" lon="17.974425980184">
        <ele>94.6</ele>
        <time>2018-02-26T18:38:40Z</time>
      </trkpt>
      <trkpt lat="62.632695653912" lon="17.974402091769">
        <ele>94.6</ele>
        <time>2018-02-26T18:38:41Z</time>
      </trkpt>
      <trkpt lat="62.632672687506" lon="17.974383735408">
        <ele>94.4</ele>
        <time>2018-02-26T18:38:42Z</time>
      </trkpt>
      <trkpt lat="62.632649553462" lon="17.974363115934">
        <ele>94.4</ele>
        <time>2018-02-26T18:38:43Z</time>
      </trkpt>
      <trkpt lat="62.63262625178" lon="17.974342580279">
        <ele>94.4</ele>
        <time>2018-02-26T18:38:44Z</time>
      </trkpt>
      <trkpt lat="62.632607643962" lon="17.974323721004">
        <ele>94.4</ele>
        <time>2018-02-26T18:38:45Z</time>
      </trkpt>
      <trkpt lat="62.632586521574" lon="17.974301508969">
        <ele>94.2</ele>
        <time>2018-02-26T18:38:46Z</time>
      </trkpt>
      <trkpt lat="62.632562800797" lon="17.974277704373">
        <ele>94.2</ele>
        <time>2018-02-26T18:38:47Z</time>
      </trkpt>
      <trkpt lat="62.632541929866" lon="17.974259431831">
        <ele>94.2</ele>
        <time>2018-02-26T18:38:48Z</time>
      </trkpt>
      <trkpt lat="62.632514856329" lon="17.974238812357">
        <ele>94.2</ele>
        <time>2018-02-26T18:38:49Z</time>
      </trkpt>
      <trkpt lat="62.632490045905" lon="17.974224060213">
        <ele>94.2</ele>
        <time>2018-02-26T18:38:50Z</time>
      </trkpt>
      <trkpt lat="62.632465067843" lon="17.974201177626">
        <ele>94.2</ele>
        <time>2018-02-26T18:38:51Z</time>
      </trkpt>
      <trkpt lat="62.632439167772" lon="17.974176283383">
        <ele>94.2</ele>
        <time>2018-02-26T18:38:52Z</time>
      </trkpt>
      <trkpt lat="62.632413267701" lon="17.974155077176">
        <ele>94.2</ele>
        <time>2018-02-26T18:38:53Z</time>
      </trkpt>
      <trkpt lat="62.632388457277" lon="17.97413378715">
        <ele>94.2</ele>
        <time>2018-02-26T18:38:54Z</time>
      </trkpt>
      <trkpt lat="62.632367167251" lon="17.974115598427">
        <ele>94.2</ele>
        <time>2018-02-26T18:38:55Z</time>
      </trkpt>
      <trkpt lat="62.63233791442" lon="17.97409187765">
        <ele>94.2</ele>
        <time>2018-02-26T18:38:56Z</time>
      </trkpt>
      <trkpt lat="62.632311343797" lon="17.97407176109">
        <ele>94.2</ele>
        <time>2018-02-26T18:38:57Z</time>
      </trkpt>
      <trkpt lat="62.632289969952" lon="17.974051309254">
        <ele>94.2</ele>
        <time>2018-02-26T18:38:58Z</time>
      </trkpt>
      <trkpt lat="62.632269769573" lon="17.974025241545">
        <ele>94.2</ele>
        <time>2018-02-26T18:38:59Z</time>
      </trkpt>
      <trkpt lat="62.632247473719" lon="17.973995904895">
        <ele>94.2</ele>
        <time>2018-02-26T18:39:00Z</time>
      </trkpt>
      <trkpt lat="62.632224172037" lon="17.973963718399">
        <ele>94.2</ele>
        <time>2018-02-26T18:39:01Z</time>
      </trkpt>
      <trkpt lat="62.632199780708" lon="17.973937399233">
        <ele>94.2</ele>
        <time>2018-02-26T18:39:02Z</time>
      </trkpt>
      <trkpt lat="62.632177233397" lon="17.97391418137">
        <ele>94.2</ele>
        <time>2018-02-26T18:39:03Z</time>
      </trkpt>
      <trkpt lat="62.632154769905" lon="17.973888029842">
        <ele>94.2</ele>
        <time>2018-02-26T18:39:04Z</time>
      </trkpt>
      <trkpt lat="62.632128199282" lon="17.973866655997">
        <ele>94.2</ele>
        <time>2018-02-26T18:39:05Z</time>
      </trkpt>
      <trkpt lat="62.632101377202" lon="17.973838157537">
        <ele>94.2</ele>
        <time>2018-02-26T18:39:06Z</time>
      </trkpt>
      <trkpt lat="62.632075644769" lon="17.973806222498">
        <ele>94.2</ele>
        <time>2018-02-26T18:39:07Z</time>
      </trkpt>
      <trkpt lat="62.632052007811" lon="17.973781160617">
        <ele>94.2</ele>
        <time>2018-02-26T18:39:08Z</time>
      </trkpt>
      <trkpt lat="62.632022838799" lon="17.973754673813">
        <ele>94.2</ele>
        <time>2018-02-26T18:39:09Z</time>
      </trkpt>
      <trkpt lat="62.631999034203" lon="17.973731875045">
        <ele>94.2</ele>
        <time>2018-02-26T18:39:10Z</time>
      </trkpt>
      <trkpt lat="62.63197162539" lon="17.973705136784">
        <ele>94</ele>
        <time>2018-02-26T18:39:11Z</time>
      </trkpt>
      <trkpt lat="62.631945976776" lon="17.973672279736">
        <ele>94</ele>
        <time>2018-02-26T18:39:12Z</time>
      </trkpt>
      <trkpt lat="62.631923932379" lon="17.973647720769">
        <ele>94</ele>
        <time>2018-02-26T18:39:13Z</time>
      </trkpt>
      <trkpt lat="62.631897361756" lon="17.973624922001">
        <ele>94</ele>
        <time>2018-02-26T18:39:14Z</time>
      </trkpt>
      <trkpt lat="62.631876323187" lon="17.973595333894">
        <ele>94</ele>
        <time>2018-02-26T18:39:15Z</time>
      </trkpt>
      <trkpt lat="62.631848076184" lon="17.973571277841">
        <ele>94</ele>
        <time>2018-02-26T18:39:16Z</time>
      </trkpt>
      <trkpt lat="62.631821002647" lon="17.973541019182">
        <ele>94</ele>
        <time>2018-02-26T18:39:17Z</time>
      </trkpt>
      <trkpt lat="62.631799544983" lon="17.973510592885">
        <ele>94</ele>
        <time>2018-02-26T18:39:18Z</time>
      </trkpt>
      <trkpt lat="62.631771465618" lon="17.973477903475">
        <ele>94</ele>
        <time>2018-02-26T18:39:19Z</time>
      </trkpt>
      <trkpt lat="62.631749253583" lon="17.973448315368">
        <ele>94</ele>
        <time>2018-02-26T18:39:20Z</time>
      </trkpt>
      <trkpt lat="62.63172435934" lon="17.973420906555">
        <ele>94</ele>
        <time>2018-02-26T18:39:21Z</time>
      </trkpt>
      <trkpt lat="62.631699800373" lon="17.97338863624">
        <ele>94</ele>
        <time>2018-02-26T18:39:22Z</time>
      </trkpt>
      <trkpt lat="62.631678007433" lon="17.973359215771">
        <ele>93.8</ele>
        <time>2018-02-26T18:39:23Z</time>
      </trkpt>
      <trkpt lat="62.631654286656" lon="17.973324682343">
        <ele>93.6</ele>
        <time>2018-02-26T18:39:24Z</time>
      </trkpt>
      <trkpt lat="62.631631236431" lon="17.973288723992">
        <ele>93.6</ele>
        <time>2018-02-26T18:39:25Z</time>
      </trkpt>
      <trkpt lat="62.631607264197" lon="17.973248574691">
        <ele>93.6</ele>
        <time>2018-02-26T18:39:26Z</time>
      </trkpt>
      <trkpt lat="62.631583040506" lon="17.97321010177">
        <ele>93.4</ele>
        <time>2018-02-26T18:39:27Z</time>
      </trkpt>
      <trkpt lat="62.631566109068" lon="17.973169617193">
        <ele>93.4</ele>
        <time>2018-02-26T18:39:28Z</time>
      </trkpt>
      <trkpt lat="62.631548674716" lon="17.973120331621">
        <ele>93.2</ele>
        <time>2018-02-26T18:39:29Z</time>
      </trkpt>
      <trkpt lat="62.631534006391" lon="17.973073057705">
        <ele>93.2</ele>
        <time>2018-02-26T18:39:30Z</time>
      </trkpt>
      <trkpt lat="62.631512632546" lon="17.973030896748">
        <ele>93.2</ele>
        <time>2018-02-26T18:39:31Z</time>
      </trkpt>
      <trkpt lat="62.631494862918" lon="17.9729812759">
        <ele>93</ele>
        <time>2018-02-26T18:39:32Z</time>
      </trkpt>
      <trkpt lat="62.631478937308" lon="17.972939617857">
        <ele>92.8</ele>
        <time>2018-02-26T18:39:33Z</time>
      </trkpt>
      <trkpt lat="62.631462341146" lon="17.972891757208">
        <ele>92.8</ele>
        <time>2018-02-26T18:39:34Z</time>
      </trkpt>
      <trkpt lat="62.631443398052" lon="17.972841801084">
        <ele>92.6</ele>
        <time>2018-02-26T18:39:35Z</time>
      </trkpt>
      <trkpt lat="62.631421605112" lon="17.972794527168">
        <ele>92.2</ele>
        <time>2018-02-26T18:39:36Z</time>
      </trkpt>
      <trkpt lat="62.631400985638" lon="17.972746079786">
        <ele>92.2</ele>
        <time>2018-02-26T18:39:37Z</time>
      </trkpt>
      <trkpt lat="62.631382294001" lon="17.97269964406">
        <ele>92</ele>
        <time>2018-02-26T18:39:38Z</time>
      </trkpt>
      <trkpt lat="62.631362680355" lon="17.97266024913">
        <ele>91.6</ele>
        <time>2018-02-26T18:39:39Z</time>
      </trkpt>
      <trkpt lat="62.631347006202" lon="17.972613478128">
        <ele>91.6</ele>
        <time>2018-02-26T18:39:40Z</time>
      </trkpt>
      <trkpt lat="62.631327224918" lon="17.972560336882">
        <ele>91.6</ele>
        <time>2018-02-26T18:39:41Z</time>
      </trkpt>
      <trkpt lat="62.631306605444" lon="17.972508285283">
        <ele>91.4</ele>
        <time>2018-02-26T18:39:42Z</time>
      </trkpt>
      <trkpt lat="62.631288249083" lon="17.972455395494">
        <ele>91.2</ele>
        <time>2018-02-26T18:39:43Z</time>
      </trkpt>
      <trkpt lat="62.631273245482" lon="17.972401583696">
        <ele>91</ele>
        <time>2018-02-26T18:39:44Z</time>
      </trkpt>
      <trkpt lat="62.631259499166" lon="17.97235011883">
        <ele>90.8</ele>
        <time>2018-02-26T18:39:45Z</time>
      </trkpt>
      <trkpt lat="62.631244495565" lon="17.972300162706">
        <ele>90.6</ele>
        <time>2018-02-26T18:39:46Z</time>
      </trkpt>
      <trkpt lat="62.631227647946" lon="17.972241070311">
        <ele>90.4</ele>
        <time>2018-02-26T18:39:47Z</time>
      </trkpt>
      <trkpt lat="62.631212476707" lon="17.972188683436">
        <ele>90.2</ele>
        <time>2018-02-26T18:39:48Z</time>
      </trkpt>
      <trkpt lat="62.631193282156" lon="17.972135458371">
        <ele>90</ele>
        <time>2018-02-26T18:39:49Z</time>
      </trkpt>
      <trkpt lat="62.631176769813" lon="17.972076198338">
        <ele>90</ele>
        <time>2018-02-26T18:39:50Z</time>
      </trkpt>
      <trkpt lat="62.631162185307" lon="17.972023811463">
        <ele>89.8</ele>
        <time>2018-02-26T18:39:51Z</time>
      </trkpt>
      <trkpt lat="62.631147433163" lon="17.97196622781">
        <ele>89.8</ele>
        <time>2018-02-26T18:39:52Z</time>
      </trkpt>
      <trkpt lat="62.631133686847" lon="17.971902860646">
        <ele>89.8</ele>
        <time>2018-02-26T18:39:53Z</time>
      </trkpt>
      <trkpt lat="62.631119940531" lon="17.971849384124">
        <ele>89.6</ele>
        <time>2018-02-26T18:39:54Z</time>
      </trkpt>
      <trkpt lat="62.63110661331" lon="17.971790962281">
        <ele>89.4</ele>
        <time>2018-02-26T18:39:55Z</time>
      </trkpt>
      <trkpt lat="62.631093537546" lon="17.971731199334">
        <ele>89.2</ele>
        <time>2018-02-26T18:39:56Z</time>
      </trkpt>
      <trkpt lat="62.6310823058" lon="17.971663976496">
        <ele>89.2</ele>
        <time>2018-02-26T18:39:57Z</time>
      </trkpt>
      <trkpt lat="62.63106973295" lon="17.971601782798">
        <ele>89.2</ele>
        <time>2018-02-26T18:39:58Z</time>
      </trkpt>
      <trkpt lat="62.631055232263" lon="17.971539421462">
        <ele>88.8</ele>
        <time>2018-02-26T18:39:59Z</time>
      </trkpt>
      <trkpt lat="62.631045676897" lon="17.971476557212">
        <ele>88.6</ele>
        <time>2018-02-26T18:40:00Z</time>
      </trkpt>
      <trkpt lat="62.63103033802" lon="17.97141218422">
        <ele>88.6</ele>
        <time>2018-02-26T18:40:01Z</time>
      </trkpt>
      <trkpt lat="62.631021788482" lon="17.971342782088">
        <ele>88.4</ele>
        <time>2018-02-26T18:40:02Z</time>
      </trkpt>
      <trkpt lat="62.631011478745" lon="17.971277738544">
        <ele>88.2</ele>
        <time>2018-02-26T18:40:03Z</time>
      </trkpt>
      <trkpt lat="62.630998570619" lon="17.97120934224">
        <ele>88.2</ele>
        <time>2018-02-26T18:40:04Z</time>
      </trkpt>
      <trkpt lat="62.630988009425" lon="17.971147651456">
        <ele>88.2</ele>
        <time>2018-02-26T18:40:05Z</time>
      </trkpt>
      <trkpt lat="62.630978454059" lon="17.971078752238">
        <ele>88</ele>
        <time>2018-02-26T18:40:06Z</time>
      </trkpt>
      <trkpt lat="62.630970491254" lon="17.971008595735">
        <ele>88</ele>
        <time>2018-02-26T18:40:07Z</time>
      </trkpt>
      <trkpt lat="62.630961354983" lon="17.970947659322">
        <ele>87.8</ele>
        <time>2018-02-26T18:40:08Z</time>
      </trkpt>
      <trkpt lat="62.630955236196" lon="17.970879682113">
        <ele>87.8</ele>
        <time>2018-02-26T18:40:09Z</time>
      </trkpt>
      <trkpt lat="62.630946435201" lon="17.970816901682">
        <ele>87.6</ele>
        <time>2018-02-26T18:40:10Z</time>
      </trkpt>
      <trkpt lat="62.630936628378" lon="17.970739369107">
        <ele>87.4</ele>
        <time>2018-02-26T18:40:11Z</time>
      </trkpt>
      <trkpt lat="62.630927575926" lon="17.970675079934">
        <ele>87.4</ele>
        <time>2018-02-26T18:40:12Z</time>
      </trkpt>
      <trkpt lat="62.630919194026" lon="17.970610371666">
        <ele>87.2</ele>
        <time>2018-02-26T18:40:13Z</time>
      </trkpt>
      <trkpt lat="62.630910895945" lon="17.970538622602">
        <ele>87.2</ele>
        <time>2018-02-26T18:40:14Z</time>
      </trkpt>
      <trkpt lat="62.630905782986" lon="17.970480033121">
        <ele>86.8</ele>
        <time>2018-02-26T18:40:15Z</time>
      </trkpt>
      <trkpt lat="62.630903519873" lon="17.970408200238">
        <ele>86.8</ele>
        <time>2018-02-26T18:40:16Z</time>
      </trkpt>
      <trkpt lat="62.630906118262" lon="17.970346425635">
        <ele>86.6</ele>
        <time>2018-02-26T18:40:17Z</time>
      </trkpt>
      <trkpt lat="62.630908046099" lon="17.970282974652">
        <ele>86.6</ele>
        <time>2018-02-26T18:40:18Z</time>
      </trkpt>
      <trkpt lat="62.630905280072" lon="17.970199490928">
        <ele>86.4</ele>
        <time>2018-02-26T18:40:20Z</time>
      </trkpt>
      <trkpt lat="62.630908297556" lon="17.970172585029">
        <ele>86.6</ele>
        <time>2018-02-26T18:40:21Z</time>
      </trkpt>
      <trkpt lat="62.630909973936" lon="17.970148528976">
        <ele>86.6</ele>
        <time>2018-02-26T18:40:22Z</time>
      </trkpt>
      <trkpt lat="62.630916595637" lon="17.970130843167">
        <ele>86.4</ele>
        <time>2018-02-26T18:40:23Z</time>
      </trkpt>
      <trkpt lat="62.630919613121" lon="17.970117599765">
        <ele>86.4</ele>
        <time>2018-02-26T18:40:24Z</time>
      </trkpt>
      <trkpt lat="62.630927911202" lon="17.970097315567">
        <ele>86.2</ele>
        <time>2018-02-26T18:40:25Z</time>
      </trkpt>
      <trkpt lat="62.630936209283" lon="17.970094298083">
        <ele>86.2</ele>
        <time>2018-02-26T18:40:26Z</time>
      </trkpt>
      <trkpt lat="62.630928497935" lon="17.970100500689">
        <ele>86</ele>
        <time>2018-02-26T18:40:27Z</time>
      </trkpt>
      <trkpt lat="62.630929336125" lon="17.970103015259">
        <ele>86</ele>
        <time>2018-02-26T18:40:28Z</time>
      </trkpt>
      <trkpt lat="62.630924306985" lon="17.970104440182">
        <ele>86</ele>
        <time>2018-02-26T18:40:29Z</time>
      </trkpt>
      <trkpt lat="62.630924055528" lon="17.970104691639">
        <ele>85.8</ele>
        <time>2018-02-26T18:40:30Z</time>
      </trkpt>
      <trkpt lat="62.631191438138" lon="17.970029757453">
        <ele>84.4</ele>
        <time>2018-02-26T18:42:50Z</time>
      </trkpt>
      <trkpt lat="62.631224462824" lon="17.970007629237">
        <ele>84.2</ele>
        <time>2018-02-26T18:42:51Z</time>
      </trkpt>
      <trkpt lat="62.631258158062" lon="17.969989356695">
        <ele>84</ele>
        <time>2018-02-26T18:42:52Z</time>
      </trkpt>
      <trkpt lat="62.631295708974" lon="17.969968234307">
        <ele>83.8</ele>
        <time>2018-02-26T18:42:53Z</time>
      </trkpt>
      <trkpt lat="62.631328482203" lon="17.969952476335">
        <ele>83.6</ele>
        <time>2018-02-26T18:42:54Z</time>
      </trkpt>
      <trkpt lat="62.631362345079" lon="17.9699302643">
        <ele>83.6</ele>
        <time>2018-02-26T18:42:55Z</time>
      </trkpt>
      <trkpt lat="62.631401320914" lon="17.969903609858">
        <ele>83.6</ele>
        <time>2018-02-26T18:42:56Z</time>
      </trkpt>
      <trkpt lat="62.631433926505" lon="17.969880475814">
        <ele>83.6</ele>
        <time>2018-02-26T18:42:57Z</time>
      </trkpt>
      <trkpt lat="62.63146535863" lon="17.969851306802">
        <ele>83.8</ele>
        <time>2018-02-26T18:42:58Z</time>
      </trkpt>
      <trkpt lat="62.631502993361" lon="17.969821718695">
        <ele>84</ele>
        <time>2018-02-26T18:42:59Z</time>
      </trkpt>
      <trkpt lat="62.631534760762" lon="17.96980537399">
        <ele>84</ele>
        <time>2018-02-26T18:43:00Z</time>
      </trkpt>
      <trkpt lat="62.631569797104" lon="17.969782659041">
        <ele>84.2</ele>
        <time>2018-02-26T18:43:01Z</time>
      </trkpt>
      <trkpt lat="62.63160365998" lon="17.969744353758">
        <ele>84.2</ele>
        <time>2018-02-26T18:43:02Z</time>
      </trkpt>
      <trkpt lat="62.631640707978" lon="17.969709652692">
        <ele>84.2</ele>
        <time>2018-02-26T18:43:03Z</time>
      </trkpt>
      <trkpt lat="62.631674151759" lon="17.969673359065">
        <ele>84</ele>
        <time>2018-02-26T18:43:04Z</time>
      </trkpt>
      <trkpt lat="62.631710361567" lon="17.969636478705">
        <ele>84</ele>
        <time>2018-02-26T18:43:05Z</time>
      </trkpt>
      <trkpt lat="62.631744894995" lon="17.969599598345">
        <ele>83.8</ele>
        <time>2018-02-26T18:43:06Z</time>
      </trkpt>
      <trkpt lat="62.631778338776" lon="17.969576045206">
        <ele>83.8</ele>
        <time>2018-02-26T18:43:07Z</time>
      </trkpt>
      <trkpt lat="62.631811698738" lon="17.969557521207">
        <ele>83.4</ele>
        <time>2018-02-26T18:43:08Z</time>
      </trkpt>
      <trkpt lat="62.631842292673" lon="17.96955475518">
        <ele>83.2</ele>
        <time>2018-02-26T18:43:09Z</time>
      </trkpt>
      <trkpt lat="62.631869617667" lon="17.969550480411">
        <ele>83.2</ele>
        <time>2018-02-26T18:43:10Z</time>
      </trkpt>
      <trkpt lat="62.631904234914" lon="17.969553414076">
        <ele>83.2</ele>
        <time>2018-02-26T18:43:11Z</time>
      </trkpt>
      <trkpt lat="62.63193474503" lon="17.969553665533">
        <ele>83.2</ele>
        <time>2018-02-26T18:43:12Z</time>
      </trkpt>
      <trkpt lat="62.631963494947" lon="17.969553833171">
        <ele>83.2</ele>
        <time>2018-02-26T18:43:13Z</time>
      </trkpt>
      <trkpt lat="62.631992663959" lon="17.969543271977">
        <ele>83.2</ele>
        <time>2018-02-26T18:43:14Z</time>
      </trkpt>
      <trkpt lat="62.632019234582" lon="17.969535309172">
        <ele>83.4</ele>
        <time>2018-02-26T18:43:15Z</time>
      </trkpt>
      <trkpt lat="62.632050582888" lon="17.969528519833">
        <ele>83.4</ele>
        <time>2018-02-26T18:43:16Z</time>
      </trkpt>
      <trkpt lat="62.632085367773" lon="17.969524999435">
        <ele>83.6</ele>
        <time>2018-02-26T18:43:17Z</time>
      </trkpt>
      <trkpt lat="62.632114872061" lon="17.969515863164">
        <ele>83.4</ele>
        <time>2018-02-26T18:43:18Z</time>
      </trkpt>
      <trkpt lat="62.6321468071" lon="17.969505218151">
        <ele>83.6</ele>
        <time>2018-02-26T18:43:19Z</time>
      </trkpt>
      <trkpt lat="62.632174802646" lon="17.969497506803">
        <ele>83.4</ele>
        <time>2018-02-26T18:43:20Z</time>
      </trkpt>
      <trkpt lat="62.632208497884" lon="17.969492226206">
        <ele>83.4</ele>
        <time>2018-02-26T18:43:21Z</time>
      </trkpt>
      <trkpt lat="62.632237834534" lon="17.969489963093">
        <ele>83.4</ele>
        <time>2018-02-26T18:43:22Z</time>
      </trkpt>
      <trkpt lat="62.632266835908" lon="17.969488789627">
        <ele>83.4</ele>
        <time>2018-02-26T18:43:23Z</time>
      </trkpt>
      <trkpt lat="62.63229265216" lon="17.969487448523">
        <ele>83.4</ele>
        <time>2018-02-26T18:43:24Z</time>
      </trkpt>
      <trkpt lat="62.632318216955" lon="17.969484263401">
        <ele>83.4</ele>
        <time>2018-02-26T18:43:25Z</time>
      </trkpt>
      <trkpt lat="62.632347218329" lon="17.969477222605">
        <ele>83.4</ele>
        <time>2018-02-26T18:43:26Z</time>
      </trkpt>
      <trkpt lat="62.632372531667" lon="17.969481497374">
        <ele>83.4</ele>
        <time>2018-02-26T18:43:27Z</time>
      </trkpt>
      <trkpt lat="62.632402538869" lon="17.96948686179">
        <ele>83.2</ele>
        <time>2018-02-26T18:43:28Z</time>
      </trkpt>
      <trkpt lat="62.63243682084" lon="17.969483257573">
        <ele>83.2</ele>
        <time>2018-02-26T18:43:29Z</time>
      </trkpt>
      <trkpt lat="62.632465654576" lon="17.969493315853">
        <ele>83.2</ele>
        <time>2018-02-26T18:43:30Z</time>
      </trkpt>
      <trkpt lat="62.632491806104" lon="17.969502284486">
        <ele>83.2</ele>
        <time>2018-02-26T18:43:31Z</time>
      </trkpt>
      <trkpt lat="62.632519382555" lon="17.969512426585">
        <ele>83.2</ele>
        <time>2018-02-26T18:43:32Z</time>
      </trkpt>
      <trkpt lat="62.632547378101" lon="17.969516617535">
        <ele>83.2</ele>
        <time>2018-02-26T18:43:33Z</time>
      </trkpt>
      <trkpt lat="62.632572272344" lon="17.969519718838">
        <ele>83.4</ele>
        <time>2018-02-26T18:43:34Z</time>
      </trkpt>
      <trkpt lat="62.632602363365" lon="17.969527514005">
        <ele>83.4</ele>
        <time>2018-02-26T18:43:35Z</time>
      </trkpt>
      <trkpt lat="62.632632789662" lon="17.969528687471">
        <ele>83.4</ele>
        <time>2018-02-26T18:43:36Z</time>
      </trkpt>
      <trkpt lat="62.632661874855" lon="17.969530028575">
        <ele>83.4</ele>
        <time>2018-02-26T18:43:37Z</time>
      </trkpt>
      <trkpt lat="62.632689618944" lon="17.969530699127">
        <ele>83.4</ele>
        <time>2018-02-26T18:43:38Z</time>
      </trkpt>
      <trkpt lat="62.632716943938" lon="17.969525334711">
        <ele>83.4</ele>
        <time>2018-02-26T18:43:39Z</time>
      </trkpt>
      <trkpt lat="62.632744855665" lon="17.96952877129">
        <ele>83.6</ele>
        <time>2018-02-26T18:43:40Z</time>
      </trkpt>
      <trkpt lat="62.632775030505" lon="17.969534387163">
        <ele>83.6</ele>
        <time>2018-02-26T18:43:41Z</time>
      </trkpt>
      <trkpt lat="62.632803780422" lon="17.969530866765">
        <ele>83.8</ele>
        <time>2018-02-26T18:43:42Z</time>
      </trkpt>
      <trkpt lat="62.632829596674" lon="17.969529022747">
        <ele>83.8</ele>
        <time>2018-02-26T18:43:43Z</time>
      </trkpt>
      <trkpt lat="62.632853820365" lon="17.969531956412">
        <ele>84</ele>
        <time>2018-02-26T18:43:44Z</time>
      </trkpt>
      <trkpt lat="62.632880474807" lon="17.969534219525">
        <ele>84</ele>
        <time>2018-02-26T18:43:45Z</time>
      </trkpt>
      <trkpt lat="62.632906710154" lon="17.969535141534">
        <ele>84.2</ele>
        <time>2018-02-26T18:43:46Z</time>
      </trkpt>
      <trkpt lat="62.632936549718" lon="17.969536734095">
        <ele>84.4</ele>
        <time>2018-02-26T18:43:47Z</time>
      </trkpt>
      <trkpt lat="62.632963120341" lon="17.96953882957">
        <ele>84.4</ele>
        <time>2018-02-26T18:43:48Z</time>
      </trkpt>
      <trkpt lat="62.63299086443" lon="17.969547630565">
        <ele>84.4</ele>
        <time>2018-02-26T18:43:49Z</time>
      </trkpt>
      <trkpt lat="62.633013579379" lon="17.969552072972">
        <ele>84.6</ele>
        <time>2018-02-26T18:43:50Z</time>
      </trkpt>
      <trkpt lat="62.633041910201" lon="17.969559365225">
        <ele>84.6</ele>
        <time>2018-02-26T18:43:51Z</time>
      </trkpt>
      <trkpt lat="62.633068313186" lon="17.969568501496">
        <ele>84.6</ele>
        <time>2018-02-26T18:43:52Z</time>
      </trkpt>
      <trkpt lat="62.633096560189" lon="17.969586019667">
        <ele>84.4</ele>
        <time>2018-02-26T18:43:53Z</time>
      </trkpt>
      <trkpt lat="62.633124388097" lon="17.969602783467">
        <ele>84.4</ele>
        <time>2018-02-26T18:43:54Z</time>
      </trkpt>
      <trkpt lat="62.633149785254" lon="17.969616445964">
        <ele>84.6</ele>
        <time>2018-02-26T18:43:55Z</time>
      </trkpt>
      <trkpt lat="62.633180798284" lon="17.969632287755">
        <ele>84.6</ele>
        <time>2018-02-26T18:43:56Z</time>
      </trkpt>
      <trkpt lat="62.633206530717" lon="17.969656595265">
        <ele>84.6</ele>
        <time>2018-02-26T18:43:57Z</time>
      </trkpt>
      <trkpt lat="62.633229832399" lon="17.969678723481">
        <ele>84.4</ele>
        <time>2018-02-26T18:43:58Z</time>
      </trkpt>
      <trkpt lat="62.633256235384" lon="17.96970311481">
        <ele>84.6</ele>
        <time>2018-02-26T18:43:59Z</time>
      </trkpt>
      <trkpt lat="62.633279704704" lon="17.969736893867">
        <ele>84.6</ele>
        <time>2018-02-26T18:44:00Z</time>
      </trkpt>
      <trkpt lat="62.63330099473" lon="17.969780647385">
        <ele>84.6</ele>
        <time>2018-02-26T18:44:01Z</time>
      </trkpt>
      <trkpt lat="62.633314657227" lon="17.96983219607">
        <ele>84.6</ele>
        <time>2018-02-26T18:44:02Z</time>
      </trkpt>
      <trkpt lat="62.633325721335" lon="17.969878883253">
        <ele>84.8</ele>
        <time>2018-02-26T18:44:03Z</time>
      </trkpt>
      <trkpt lat="62.633332426855" lon="17.969938562381">
        <ele>85</ele>
        <time>2018-02-26T18:44:04Z</time>
      </trkpt>
      <trkpt lat="62.633337539814" lon="17.969991619808">
        <ele>85.2</ele>
        <time>2018-02-26T18:44:05Z</time>
      </trkpt>
      <trkpt lat="62.633343323325" lon="17.970049119642">
        <ele>85.2</ele>
        <time>2018-02-26T18:44:06Z</time>
      </trkpt>
      <trkpt lat="62.63334625699" lon="17.970100752146">
        <ele>85.4</ele>
        <time>2018-02-26T18:44:07Z</time>
      </trkpt>
      <trkpt lat="62.633349190655" lon="17.970155821229">
        <ele>85.6</ele>
        <time>2018-02-26T18:44:08Z</time>
      </trkpt>
      <trkpt lat="62.633352459596" lon="17.970213740158">
        <ele>85.6</ele>
        <time>2018-02-26T18:44:09Z</time>
      </trkpt>
      <trkpt lat="62.633354722709" lon="17.970267468137">
        <ele>85.6</ele>
        <time>2018-02-26T18:44:10Z</time>
      </trkpt>
      <trkpt lat="62.633359584211" lon="17.970324800333">
        <ele>85.8</ele>
        <time>2018-02-26T18:44:11Z</time>
      </trkpt>
      <trkpt lat="62.633360925315" lon="17.970385988203">
        <ele>86</ele>
        <time>2018-02-26T18:44:12Z</time>
      </trkpt>
      <trkpt lat="62.633366038274" lon="17.970439967639">
        <ele>86</ele>
        <time>2018-02-26T18:44:13Z</time>
      </trkpt>
      <trkpt lat="62.633367630835" lon="17.970498808577">
        <ele>86</ele>
        <time>2018-02-26T18:44:14Z</time>
      </trkpt>
      <trkpt lat="62.633370229224" lon="17.970553374746">
        <ele>86.2</ele>
        <time>2018-02-26T18:44:15Z</time>
      </trkpt>
      <trkpt lat="62.633377605296" lon="17.970606515992">
        <ele>86.4</ele>
        <time>2018-02-26T18:44:16Z</time>
      </trkpt>
      <trkpt lat="62.633381628608" lon="17.970666530396">
        <ele>86.6</ele>
        <time>2018-02-26T18:44:17Z</time>
      </trkpt>
      <trkpt lat="62.633385149006" lon="17.970720845108">
        <ele>86.8</ele>
        <time>2018-02-26T18:44:18Z</time>
      </trkpt>
      <trkpt lat="62.63338816649" lon="17.970778764037">
        <ele>86.8</ele>
        <time>2018-02-26T18:44:19Z</time>
      </trkpt>
      <trkpt lat="62.63339068106" lon="17.970838946079">
        <ele>87</ele>
        <time>2018-02-26T18:44:20Z</time>
      </trkpt>
      <trkpt lat="62.633395626381" lon="17.970897787017">
        <ele>87.2</ele>
        <time>2018-02-26T18:44:21Z</time>
      </trkpt>
      <trkpt lat="62.633398140951" lon="17.970960651267">
        <ele>87.2</ele>
        <time>2018-02-26T18:44:22Z</time>
      </trkpt>
      <trkpt lat="62.63340325391" lon="17.971023766974">
        <ele>87.4</ele>
        <time>2018-02-26T18:44:23Z</time>
      </trkpt>
      <trkpt lat="62.633406103756" lon="17.971079171333">
        <ele>87.6</ele>
        <time>2018-02-26T18:44:24Z</time>
      </trkpt>
      <trkpt lat="62.633407277222" lon="17.971151758587">
        <ele>87.8</ele>
        <time>2018-02-26T18:44:25Z</time>
      </trkpt>
      <trkpt lat="62.633409791792" lon="17.971217807959">
        <ele>87.6</ele>
        <time>2018-02-26T18:44:26Z</time>
      </trkpt>
      <trkpt lat="62.633408869783" lon="17.97128645572">
        <ele>87.8</ele>
        <time>2018-02-26T18:44:27Z</time>
      </trkpt>
      <trkpt lat="62.633409624154" lon="17.971340183699">
        <ele>87.8</ele>
        <time>2018-02-26T18:44:28Z</time>
      </trkpt>
      <trkpt lat="62.633408534507" lon="17.971409082917">
        <ele>88</ele>
        <time>2018-02-26T18:44:29Z</time>
      </trkpt>
      <trkpt lat="62.633406690489" lon="17.971471360434">
        <ele>88.2</ele>
        <time>2018-02-26T18:44:30Z</time>
      </trkpt>
      <trkpt lat="62.633403673005" lon="17.971538247996">
        <ele>88.2</ele>
        <time>2018-02-26T18:44:31Z</time>
      </trkpt>
      <trkpt lat="62.633399984969" lon="17.971599184409">
        <ele>88.4</ele>
        <time>2018-02-26T18:44:32Z</time>
      </trkpt>
      <trkpt lat="62.633396967485" lon="17.971659031175">
        <ele>88.4</ele>
        <time>2018-02-26T18:44:33Z</time>
      </trkpt>
      <trkpt lat="62.633393111811" lon="17.971723404167">
        <ele>88.4</ele>
        <time>2018-02-26T18:44:34Z</time>
      </trkpt>
      <trkpt lat="62.633389339956" lon="17.971780233449">
        <ele>88.4</ele>
        <time>2018-02-26T18:44:35Z</time>
      </trkpt>
      <trkpt lat="62.633382718255" lon="17.971841421319">
        <ele>88.6</ele>
        <time>2018-02-26T18:44:36Z</time>
      </trkpt>
      <trkpt lat="62.633376515649" lon="17.971899675524">
        <ele>88.6</ele>
        <time>2018-02-26T18:44:37Z</time>
      </trkpt>
      <trkpt lat="62.633370229224" lon="17.971956253349">
        <ele>88.6</ele>
        <time>2018-02-26T18:44:38Z</time>
      </trkpt>
      <trkpt lat="62.633363607523" lon="17.972014172278">
        <ele>88.6</ele>
        <time>2018-02-26T18:44:39Z</time>
      </trkpt>
      <trkpt lat="62.633357321098" lon="17.972063206393">
        <ele>88.6</ele>
        <time>2018-02-26T18:44:40Z</time>
      </trkpt>
      <trkpt lat="62.633348352465" lon="17.972127076471">
        <ele>88.8</ele>
        <time>2018-02-26T18:44:41Z</time>
      </trkpt>
      <trkpt lat="62.633342736592" lon="17.972179882441">
        <ele>88.8</ele>
        <time>2018-02-26T18:44:42Z</time>
      </trkpt>
      <trkpt lat="62.633332594493" lon="17.972231514945">
        <ele>89</ele>
        <time>2018-02-26T18:44:43Z</time>
      </trkpt>
      <trkpt lat="62.63332111129" lon="17.97229312191">
        <ele>89</ele>
        <time>2018-02-26T18:44:44Z</time>
      </trkpt>
      <trkpt lat="62.633310885372" lon="17.972344586776">
        <ele>89.2</ele>
        <time>2018-02-26T18:44:45Z</time>
      </trkpt>
      <trkpt lat="62.633300240359" lon="17.972404433542">
        <ele>89.4</ele>
        <time>2018-02-26T18:44:46Z</time>
      </trkpt>
      <trkpt lat="62.633292109916" lon="17.972464783222">
        <ele>89.4</ele>
        <time>2018-02-26T18:44:47Z</time>
      </trkpt>
      <trkpt lat="62.633282051636" lon="17.97251691864">
        <ele>89.6</ele>
        <time>2018-02-26T18:44:48Z</time>
      </trkpt>
      <trkpt lat="62.633272160994" lon="17.972571568628">
        <ele>89.6</ele>
        <time>2018-02-26T18:44:49Z</time>
      </trkpt>
      <trkpt lat="62.633262270352" lon="17.972626805349">
        <ele>89.8</ele>
        <time>2018-02-26T18:44:50Z</time>
      </trkpt>
      <trkpt lat="62.633250116597" lon="17.972687574124">
        <ele>89.8</ele>
        <time>2018-02-26T18:44:51Z</time>
      </trkpt>
      <trkpt lat="62.633239052489" lon="17.972739374266">
        <ele>89.8</ele>
        <time>2018-02-26T18:44:52Z</time>
      </trkpt>
      <trkpt lat="62.633225473811" lon="17.972805172181">
        <ele>90</ele>
        <time>2018-02-26T18:44:53Z</time>
      </trkpt>
      <trkpt lat="62.633214996436" lon="17.972858397246">
        <ele>90</ele>
        <time>2018-02-26T18:44:54Z</time>
      </trkpt>
      <trkpt lat="62.633203848509" lon="17.972913298691">
        <ele>90</ele>
        <time>2018-02-26T18:44:55Z</time>
      </trkpt>
      <trkpt lat="62.633190940383" lon="17.972973061638">
        <ele>90.2</ele>
        <time>2018-02-26T18:44:56Z</time>
      </trkpt>
      <trkpt lat="62.633179205723" lon="17.973027795445">
        <ele>90.2</ele>
        <time>2018-02-26T18:44:57Z</time>
      </trkpt>
      <trkpt lat="62.633166297597" lon="17.973081942519">
        <ele>90.4</ele>
        <time>2018-02-26T18:44:58Z</time>
      </trkpt>
      <trkpt lat="62.633157161326" lon="17.973136927783">
        <ele>90.4</ele>
        <time>2018-02-26T18:44:59Z</time>
      </trkpt>
      <trkpt lat="62.63314509139" lon="17.973189314658">
        <ele>90.6</ele>
        <time>2018-02-26T18:45:00Z</time>
      </trkpt>
      <trkpt lat="62.633132853816" lon="17.973247736501">
        <ele>90.8</ele>
        <time>2018-02-26T18:45:01Z</time>
      </trkpt>
      <trkpt lat="62.633120197147" lon="17.973304901059">
        <ele>90.8</ele>
        <time>2018-02-26T18:45:02Z</time>
      </trkpt>
      <trkpt lat="62.633106702288" lon="17.973356868839">
        <ele>90.8</ele>
        <time>2018-02-26T18:45:03Z</time>
      </trkpt>
      <trkpt lat="62.633094548533" lon="17.973401544366">
        <ele>91</ele>
        <time>2018-02-26T18:45:04Z</time>
      </trkpt>
      <trkpt lat="62.633078622923" lon="17.973456781087">
        <ele>91.2</ele>
        <time>2018-02-26T18:45:05Z</time>
      </trkpt>
      <trkpt lat="62.633062278218" lon="17.973511095799">
        <ele>91.2</ele>
        <time>2018-02-26T18:45:06Z</time>
      </trkpt>
      <trkpt lat="62.633045682056" lon="17.973564991416">
        <ele>91.2</ele>
        <time>2018-02-26T18:45:07Z</time>
      </trkpt>
      <trkpt lat="62.633031265188" lon="17.973614863721">
        <ele>91.4</ele>
        <time>2018-02-26T18:45:08Z</time>
      </trkpt>
      <trkpt lat="62.633017267415" lon="17.973665741854">
        <ele>91.2</ele>
        <time>2018-02-26T18:45:09Z</time>
      </trkpt>
      <trkpt lat="62.63300511366" lon="17.973709830648">
        <ele>91.4</ele>
        <time>2018-02-26T18:45:10Z</time>
      </trkpt>
      <trkpt lat="62.632991199706" lon="17.973770431785">
        <ele>91.4</ele>
        <time>2018-02-26T18:45:11Z</time>
      </trkpt>
      <trkpt lat="62.6329766152" lon="17.973824662678">
        <ele>91.6</ele>
        <time>2018-02-26T18:45:12Z</time>
      </trkpt>
      <trkpt lat="62.632965634911" lon="17.973877887743">
        <ele>91.6</ele>
        <time>2018-02-26T18:45:13Z</time>
      </trkpt>
      <trkpt lat="62.632951720957" lon="17.973931028989">
        <ele>91.6</ele>
        <time>2018-02-26T18:45:14Z</time>
      </trkpt>
      <trkpt lat="62.632938645193" lon="17.973983499683">
        <ele>91.8</ele>
        <time>2018-02-26T18:45:15Z</time>
      </trkpt>
      <trkpt lat="62.632926994352" lon="17.974037730576">
        <ele>92</ele>
        <time>2018-02-26T18:45:16Z</time>
      </trkpt>
      <trkpt lat="62.632912409846" lon="17.974096571514">
        <ele>92</ele>
        <time>2018-02-26T18:45:17Z</time>
      </trkpt>
      <trkpt lat="62.632899585539" lon="17.974145940905">
        <ele>92</ele>
        <time>2018-02-26T18:45:18Z</time>
      </trkpt>
      <trkpt lat="62.632883240834" lon="17.974202099635">
        <ele>92.2</ele>
        <time>2018-02-26T18:45:19Z</time>
      </trkpt>
      <trkpt lat="62.632867818138" lon="17.974251301388">
        <ele>92.2</ele>
        <time>2018-02-26T18:45:20Z</time>
      </trkpt>
      <trkpt lat="62.632853652727" lon="17.974292037422">
        <ele>92.2</ele>
        <time>2018-02-26T18:45:21Z</time>
      </trkpt>
      <trkpt lat="62.632831440692" lon="17.974353057654">
        <ele>92.4</ele>
        <time>2018-02-26T18:45:22Z</time>
      </trkpt>
      <trkpt lat="62.632814928349" lon="17.974403935787">
        <ele>92.4</ele>
        <time>2018-02-26T18:45:23Z</time>
      </trkpt>
      <trkpt lat="62.632795230884" lon="17.974446012925">
        <ele>92.4</ele>
        <time>2018-02-26T18:45:24Z</time>
      </trkpt>
      <trkpt lat="62.632778215627" lon="17.974484821122">
        <ele>92.4</ele>
        <time>2018-02-26T18:45:25Z</time>
      </trkpt>
      <trkpt lat="62.632753153746" lon="17.974519941283">
        <ele>92.6</ele>
        <time>2018-02-26T18:45:26Z</time>
      </trkpt>
      <trkpt lat="62.632728930055" lon="17.974543997336">
        <ele>92.4</ele>
        <time>2018-02-26T18:45:27Z</time>
      </trkpt>
      <trkpt lat="62.63270755621" lon="17.974550954313">
        <ele>92.4</ele>
        <time>2018-02-26T18:45:28Z</time>
      </trkpt>
      <trkpt lat="62.632686685279" lon="17.974541315128">
        <ele>92.6</ele>
        <time>2018-02-26T18:45:29Z</time>
      </trkpt>
      <trkpt lat="62.63266564671" lon="17.974515498876">
        <ele>92.4</ele>
        <time>2018-02-26T18:45:30Z</time>
      </trkpt>
      <trkpt lat="62.632640249553" lon="17.974494292669">
        <ele>92.4</ele>
        <time>2018-02-26T18:45:31Z</time>
      </trkpt>
      <trkpt lat="62.632609571799" lon="17.974481384543">
        <ele>92.4</ele>
        <time>2018-02-26T18:45:32Z</time>
      </trkpt>
      <trkpt lat="62.632590796343" lon="17.974455735929">
        <ele>92.4</ele>
        <time>2018-02-26T18:45:33Z</time>
      </trkpt>
      <trkpt lat="62.632573697267" lon="17.974431176962">
        <ele>92.4</ele>
        <time>2018-02-26T18:45:34Z</time>
      </trkpt>
      <trkpt lat="62.632552826336" lon="17.974405528348">
        <ele>92.4</ele>
        <time>2018-02-26T18:45:35Z</time>
      </trkpt>
      <trkpt lat="62.632533045052" lon="17.974384154503">
        <ele>92.4</ele>
        <time>2018-02-26T18:45:36Z</time>
      </trkpt>
      <trkpt lat="62.632510162465" lon="17.97437099492">
        <ele>92.4</ele>
        <time>2018-02-26T18:45:37Z</time>
      </trkpt>
      <trkpt lat="62.632487196059" lon="17.974343418469">
        <ele>92.6</ele>
        <time>2018-02-26T18:45:38Z</time>
      </trkpt>
      <trkpt lat="62.632468001508" lon="17.974318105131">
        <ele>92.6</ele>
        <time>2018-02-26T18:45:39Z</time>
      </trkpt>
      <trkpt lat="62.632448723138" lon="17.974296563648">
        <ele>92.6</ele>
        <time>2018-02-26T18:45:40Z</time>
      </trkpt>
      <trkpt lat="62.63242424799" lon="17.974268903378">
        <ele>92.6</ele>
        <time>2018-02-26T18:45:41Z</time>
      </trkpt>
      <trkpt lat="62.632409747303" lon="17.974251636664">
        <ele>92.4</ele>
        <time>2018-02-26T18:45:42Z</time>
      </trkpt>
      <trkpt lat="62.632388960191" lon="17.974228334982">
        <ele>92.6</ele>
        <time>2018-02-26T18:45:43Z</time>
      </trkpt>
      <trkpt lat="62.632368592174" lon="17.974202267273">
        <ele>92.6</ele>
        <time>2018-02-26T18:45:44Z</time>
      </trkpt>
      <trkpt lat="62.632346799234" lon="17.974184581464">
        <ele>92.6</ele>
        <time>2018-02-26T18:45:45Z</time>
      </trkpt>
      <trkpt lat="62.632319138964" lon="17.974161279782">
        <ele>92.6</ele>
        <time>2018-02-26T18:45:46Z</time>
      </trkpt>
      <trkpt lat="62.63229349035" lon="17.974134792978">
        <ele>92.6</ele>
        <time>2018-02-26T18:45:47Z</time>
      </trkpt>
      <trkpt lat="62.632271110677" lon="17.974115011694">
        <ele>92.6</ele>
        <time>2018-02-26T18:45:48Z</time>
      </trkpt>
      <trkpt lat="62.632246970805" lon="17.974092548202">
        <ele>92.6</ele>
        <time>2018-02-26T18:45:49Z</time>
      </trkpt>
      <trkpt lat="62.632228279168" lon="17.974067989235">
        <ele>92.6</ele>
        <time>2018-02-26T18:45:50Z</time>
      </trkpt>
      <trkpt lat="62.632202798192" lon="17.974043346449">
        <ele>92.6</ele>
        <time>2018-02-26T18:45:51Z</time>
      </trkpt>
      <trkpt lat="62.632179161234" lon="17.974015853817">
        <ele>92.6</ele>
        <time>2018-02-26T18:45:52Z</time>
      </trkpt>
      <trkpt lat="62.632156949199" lon="17.97399045666">
        <ele>92.6</ele>
        <time>2018-02-26T18:45:53Z</time>
      </trkpt>
      <trkpt lat="62.632132725508" lon="17.973962880209">
        <ele>92.4</ele>
        <time>2018-02-26T18:45:54Z</time>
      </trkpt>
      <trkpt lat="62.632114788242" lon="17.973938153604">
        <ele>92.6</ele>
        <time>2018-02-26T18:45:55Z</time>
      </trkpt>
      <trkpt lat="62.632086122144" lon="17.973914516646">
        <ele>92.6</ele>
        <time>2018-02-26T18:45:56Z</time>
      </trkpt>
      <trkpt lat="62.632056701675" lon="17.97388903567">
        <ele>92.4</ele>
        <time>2018-02-26T18:45:57Z</time>
      </trkpt>
      <trkpt lat="62.632032897079" lon="17.973864392884">
        <ele>92.6</ele>
        <time>2018-02-26T18:45:58Z</time>
      </trkpt>
      <trkpt lat="62.632009846854" lon="17.973839331003">
        <ele>92.4</ele>
        <time>2018-02-26T18:45:59Z</time>
      </trkpt>
      <trkpt lat="62.631987551" lon="17.973810078172">
        <ele>92.4</ele>
        <time>2018-02-26T18:46:00Z</time>
      </trkpt>
      <trkpt lat="62.631965255146" lon="17.973782669359">
        <ele>92.4</ele>
        <time>2018-02-26T18:46:01Z</time>
      </trkpt>
      <trkpt lat="62.631943629844" lon="17.973757607478">
        <ele>92.4</ele>
        <time>2018-02-26T18:46:02Z</time>
      </trkpt>
      <trkpt lat="62.631924602931" lon="17.973732126502">
        <ele>92.4</ele>
        <time>2018-02-26T18:46:03Z</time>
      </trkpt>
      <trkpt lat="62.631905156923" lon="17.973709327734">
        <ele>92.4</ele>
        <time>2018-02-26T18:46:04Z</time>
      </trkpt>
      <trkpt lat="62.63188529182" lon="17.973679236713">
        <ele>92.4</ele>
        <time>2018-02-26T18:46:05Z</time>
      </trkpt>
      <trkpt lat="62.631864839984" lon="17.973651073529">
        <ele>92.4</ele>
        <time>2018-02-26T18:46:06Z</time>
      </trkpt>
      <trkpt lat="62.631847489451" lon="17.973625257277">
        <ele>92.4</ele>
        <time>2018-02-26T18:46:07Z</time>
      </trkpt>
      <trkpt lat="62.631826031787" lon="17.973593489876">
        <ele>92.4</ele>
        <time>2018-02-26T18:46:08Z</time>
      </trkpt>
      <trkpt lat="62.631806334322" lon="17.973569266185">
        <ele>92.2</ele>
        <time>2018-02-26T18:46:09Z</time>
      </trkpt>
      <trkpt lat="62.631785882486" lon="17.97354537777">
        <ele>92.2</ele>
        <time>2018-02-26T18:46:10Z</time>
      </trkpt>
      <trkpt lat="62.631762580804" lon="17.973506234297">
        <ele>92.2</ele>
        <time>2018-02-26T18:46:11Z</time>
      </trkpt>
      <trkpt lat="62.6317444759" lon="17.973475221267">
        <ele>92.4</ele>
        <time>2018-02-26T18:46:12Z</time>
      </trkpt>
      <trkpt lat="62.631720838942" lon="17.973447560997">
        <ele>92.2</ele>
        <time>2018-02-26T18:46:13Z</time>
      </trkpt>
      <trkpt lat="62.631694687414" lon="17.973422247659">
        <ele>92.4</ele>
        <time>2018-02-26T18:46:14Z</time>
      </trkpt>
      <trkpt lat="62.631673481207" lon="17.973402466375">
        <ele>92.2</ele>
        <time>2018-02-26T18:46:15Z</time>
      </trkpt>
      <trkpt lat="62.631648754602" lon="17.973372542992">
        <ele>92</ele>
        <time>2018-02-26T18:46:16Z</time>
      </trkpt>
      <trkpt lat="62.631626374929" lon="17.973339685944">
        <ele>92</ele>
        <time>2018-02-26T18:46:17Z</time>
      </trkpt>
      <trkpt lat="62.631607180378" lon="17.973304733421">
        <ele>92</ele>
        <time>2018-02-26T18:46:18Z</time>
      </trkpt>
      <trkpt lat="62.631586644723" lon="17.973263578292">
        <ele>92</ele>
        <time>2018-02-26T18:46:19Z</time>
      </trkpt>
      <trkpt lat="62.631572814588" lon="17.973222423163">
        <ele>92</ele>
        <time>2018-02-26T18:46:20Z</time>
      </trkpt>
      <trkpt lat="62.631560660833" lon="17.973175316885">
        <ele>92</ele>
        <time>2018-02-26T18:46:21Z</time>
      </trkpt>
      <trkpt lat="62.631547417431" lon="17.973127037141">
        <ele>91.8</ele>
        <time>2018-02-26T18:46:22Z</time>
      </trkpt>
      <trkpt lat="62.631528977251" lon="17.973081104329">
        <ele>91.8</ele>
        <time>2018-02-26T18:46:23Z</time>
      </trkpt>
      <trkpt lat="62.631509531243" lon="17.973033495137">
        <ele>91.6</ele>
        <time>2018-02-26T18:46:24Z</time>
      </trkpt>
      <trkpt lat="62.631492096891" lon="17.972990831266">
        <ele>91.4</ele>
        <time>2018-02-26T18:46:25Z</time>
      </trkpt>
      <trkpt lat="62.631473991987" lon="17.972938863486">
        <ele>91.2</ele>
        <time>2018-02-26T18:46:26Z</time>
      </trkpt>
      <trkpt lat="62.631454043065" lon="17.972889577914">
        <ele>91.2</ele>
        <time>2018-02-26T18:46:27Z</time>
      </trkpt>
      <trkpt lat="62.631435770523" lon="17.972845153844">
        <ele>91</ele>
        <time>2018-02-26T18:46:28Z</time>
      </trkpt>
      <trkpt lat="62.631413726126" lon="17.972794946263">
        <ele>90.8</ele>
        <time>2018-02-26T18:46:29Z</time>
      </trkpt>
      <trkpt lat="62.631398638706" lon="17.972746331243">
        <ele>90.6</ele>
        <time>2018-02-26T18:46:30Z</time>
      </trkpt>
      <trkpt lat="62.631381120535" lon="17.972699727879">
        <ele>90.4</ele>
        <time>2018-02-26T18:46:31Z</time>
      </trkpt>
      <trkpt lat="62.631362847993" lon="17.972652621601">
        <ele>90.2</ele>
        <time>2018-02-26T18:46:32Z</time>
      </trkpt>
      <trkpt lat="62.631345246003" lon="17.972602581658">
        <ele>90</ele>
        <time>2018-02-26T18:46:33Z</time>
      </trkpt>
      <trkpt lat="62.631327392556" lon="17.972558576683">
        <ele>90</ele>
        <time>2018-02-26T18:46:34Z</time>
      </trkpt>
      <trkpt lat="62.631309874385" lon="17.972506944179">
        <ele>89.8</ele>
        <time>2018-02-26T18:46:35Z</time>
      </trkpt>
      <trkpt lat="62.631291434205" lon="17.972457323331">
        <ele>89.6</ele>
        <time>2018-02-26T18:46:36Z</time>
      </trkpt>
      <trkpt lat="62.631273161663" lon="17.972409965596">
        <ele>89.4</ele>
        <time>2018-02-26T18:46:37Z</time>
      </trkpt>
      <trkpt lat="62.631257990424" lon="17.972356572893">
        <ele>89.2</ele>
        <time>2018-02-26T18:46:38Z</time>
      </trkpt>
      <trkpt lat="62.631241645719" lon="17.972308544606">
        <ele>89.2</ele>
        <time>2018-02-26T18:46:39Z</time>
      </trkpt>
      <trkpt lat="62.631228569955" lon="17.97226546164">
        <ele>89</ele>
        <time>2018-02-26T18:46:40Z</time>
      </trkpt>
      <trkpt lat="62.631210967965" lon="17.972205447236">
        <ele>89</ele>
        <time>2018-02-26T18:46:41Z</time>
      </trkpt>
      <trkpt lat="62.631195042355" lon="17.972155407293">
        <ele>88.8</ele>
        <time>2018-02-26T18:46:42Z</time>
      </trkpt>
      <trkpt lat="62.631177524184" lon="17.972100254391">
        <ele>88.8</ele>
        <time>2018-02-26T18:46:43Z</time>
      </trkpt>
      <trkpt lat="62.631160844203" lon="17.972040910539">
        <ele>88.4</ele>
        <time>2018-02-26T18:46:44Z</time>
      </trkpt>
      <trkpt lat="62.631146594973" lon="17.971994558632">
        <ele>88.4</ele>
        <time>2018-02-26T18:46:45Z</time>
      </trkpt>
      <trkpt lat="62.631129998811" lon="17.971934628047">
        <ele>88.4</ele>
        <time>2018-02-26T18:46:46Z</time>
      </trkpt>
      <trkpt lat="62.631117174504" lon="17.971882576448">
        <ele>88.4</ele>
        <time>2018-02-26T18:46:47Z</time>
      </trkpt>
      <trkpt lat="62.631103931102" lon="17.971831195401">
        <ele>88.2</ele>
        <time>2018-02-26T18:46:48Z</time>
      </trkpt>
      <trkpt lat="62.631093621365" lon="17.971777048327">
        <ele>88</ele>
        <time>2018-02-26T18:46:49Z</time>
      </trkpt>
      <trkpt lat="62.631082389619" lon="17.971731618429">
        <ele>88</ele>
        <time>2018-02-26T18:46:50Z</time>
      </trkpt>
      <trkpt lat="62.631069984407" lon="17.97167872864">
        <ele>87.8</ele>
        <time>2018-02-26T18:46:51Z</time>
      </trkpt>
      <trkpt lat="62.63105967467" lon="17.971628688697">
        <ele>87.6</ele>
        <time>2018-02-26T18:46:52Z</time>
      </trkpt>
      <trkpt lat="62.631048610562" lon="17.971576301822">
        <ele>87.4</ele>
        <time>2018-02-26T18:46:53Z</time>
      </trkpt>
      <trkpt lat="62.631040983033" lon="17.971520897463">
        <ele>87.2</ele>
        <time>2018-02-26T18:46:54Z</time>
      </trkpt>
      <trkpt lat="62.631033858418" lon="17.971473036814">
        <ele>87</ele>
        <time>2018-02-26T18:46:55Z</time>
      </trkpt>
      <trkpt lat="62.631024722147" lon="17.971413692962">
        <ele>87</ele>
        <time>2018-02-26T18:46:56Z</time>
      </trkpt>
      <trkpt lat="62.631016675523" lon="17.97135183454">
        <ele>86.8</ele>
        <time>2018-02-26T18:46:57Z</time>
      </trkpt>
      <trkpt lat="62.631008377442" lon="17.971293328878">
        <ele>86.8</ele>
        <time>2018-02-26T18:46:58Z</time>
      </trkpt>
      <trkpt lat="62.630997229515" lon="17.971236415777">
        <ele>86.8</ele>
        <time>2018-02-26T18:46:59Z</time>
      </trkpt>
      <trkpt lat="62.630988596158" lon="17.971178664486">
        <ele>86.6</ele>
        <time>2018-02-26T18:47:00Z</time>
      </trkpt>
      <trkpt lat="62.630982812647" lon="17.971118063349">
        <ele>86.6</ele>
        <time>2018-02-26T18:47:01Z</time>
      </trkpt>
      <trkpt lat="62.630974849842" lon="17.971058970954">
        <ele>86.4</ele>
        <time>2018-02-26T18:47:02Z</time>
      </trkpt>
      <trkpt lat="62.630968731055" lon="17.970992418668">
        <ele>86.4</ele>
        <time>2018-02-26T18:47:03Z</time>
      </trkpt>
      <trkpt lat="62.630960684431" lon="17.970934918834">
        <ele>86.2</ele>
        <time>2018-02-26T18:47:04Z</time>
      </trkpt>
      <trkpt lat="62.630955403834" lon="17.970875994077">
        <ele>86.4</ele>
        <time>2018-02-26T18:47:05Z</time>
      </trkpt>
      <trkpt lat="62.630946183744" lon="17.970811956361">
        <ele>86.2</ele>
        <time>2018-02-26T18:47:06Z</time>
      </trkpt>
      <trkpt lat="62.630938807672" lon="17.970756803459">
        <ele>86</ele>
        <time>2018-02-26T18:47:07Z</time>
      </trkpt>
      <trkpt lat="62.630930341953" lon="17.970693687752">
        <ele>86.2</ele>
        <time>2018-02-26T18:47:08Z</time>
      </trkpt>
      <trkpt lat="62.630922714424" lon="17.970632918977">
        <ele>86.2</ele>
        <time>2018-02-26T18:47:09Z</time>
      </trkpt>
      <trkpt lat="62.630917433827" lon="17.970579610093">
        <ele>86</ele>
        <time>2018-02-26T18:47:10Z</time>
      </trkpt>
      <trkpt lat="62.630909303384" lon="17.970505011183">
        <ele>85.8</ele>
        <time>2018-02-26T18:47:11Z</time>
      </trkpt>
      <trkpt lat="62.630902681683" lon="17.970445834969">
        <ele>85.4</ele>
        <time>2018-02-26T18:47:12Z</time>
      </trkpt>
      <trkpt lat="62.630899077466" lon="17.97038456328">
        <ele>85.4</ele>
        <time>2018-02-26T18:47:13Z</time>
      </trkpt>
      <trkpt lat="62.630898993647" lon="17.970322956315">
        <ele>85</ele>
        <time>2018-02-26T18:47:14Z</time>
      </trkpt>
      <trkpt lat="62.630900670027" lon="17.97023536546">
        <ele>85.2</ele>
        <time>2018-02-26T18:47:16Z</time>
      </trkpt>
      <trkpt lat="62.63090209495" lon="17.970205358258">
        <ele>85.4</ele>
        <time>2018-02-26T18:47:17Z</time>
      </trkpt>
      <trkpt lat="62.630904944796" lon="17.97018423587">
        <ele>85.2</ele>
        <time>2018-02-26T18:47:18Z</time>
      </trkpt>
      <trkpt lat="62.630906034443" lon="17.970165208957">
        <ele>85.2</ele>
        <time>2018-02-26T18:47:19Z</time>
      </trkpt>
      <trkpt lat="62.630905196253" lon="17.970150624451">
        <ele>85</ele>
        <time>2018-02-26T18:47:20Z</time>
      </trkpt>
      <trkpt lat="62.630904106606" lon="17.970138889791">
        <ele>84.8</ele>
        <time>2018-02-26T18:47:21Z</time>
      </trkpt>
      <trkpt lat="62.630903268416" lon="17.970125981665">
        <ele>84.8</ele>
        <time>2018-02-26T18:47:22Z</time>
      </trkpt>
      <trkpt lat="62.630901424398" lon="17.970121036344">
        <ele>84.8</ele>
        <time>2018-02-26T18:47:23Z</time>
      </trkpt>
      <trkpt lat="62.630903687511" lon="17.970122964181">
        <ele>84.8</ele>
        <time>2018-02-26T18:47:24Z</time>
      </trkpt>
      <trkpt lat="62.631126478413" lon="17.970043503769">
        <ele>84</ele>
        <time>2018-02-26T18:49:07Z</time>
      </trkpt>
      <trkpt lat="62.631150283009" lon="17.970031936747">
        <ele>84.2</ele>
        <time>2018-02-26T18:49:08Z</time>
      </trkpt>
      <trkpt lat="62.631174003786" lon="17.970017855155">
        <ele>84</ele>
        <time>2018-02-26T18:49:09Z</time>
      </trkpt>
      <trkpt lat="62.631196634916" lon="17.970004527934">
        <ele>83.8</ele>
        <time>2018-02-26T18:49:10Z</time>
      </trkpt>
      <trkpt lat="62.631221948254" lon="17.969991787446">
        <ele>83.6</ele>
        <time>2018-02-26T18:49:11Z</time>
      </trkpt>
      <trkpt lat="62.631245836669" lon="17.969977705854">
        <ele>83.6</ele>
        <time>2018-02-26T18:49:12Z</time>
      </trkpt>
      <trkpt lat="62.631267881066" lon="17.96996630647">
        <ele>83.4</ele>
        <time>2018-02-26T18:49:13Z</time>
      </trkpt>
      <trkpt lat="62.631292440033" lon="17.969952141059">
        <ele>83.6</ele>
        <time>2018-02-26T18:49:14Z</time>
      </trkpt>
      <trkpt lat="62.63131448443" lon="17.96993780801">
        <ele>83.6</ele>
        <time>2018-02-26T18:49:15Z</time>
      </trkpt>
      <trkpt lat="62.631337199379" lon="17.969921463305">
        <ele>83.6</ele>
        <time>2018-02-26T18:49:16Z</time>
      </trkpt>
      <trkpt lat="62.631361590708" lon="17.969906459704">
        <ele>83.6</ele>
        <time>2018-02-26T18:49:17Z</time>
      </trkpt>
      <trkpt lat="62.631385898218" lon="17.969891456103">
        <ele>83.6</ele>
        <time>2018-02-26T18:49:18Z</time>
      </trkpt>
      <trkpt lat="62.631410624823" lon="17.969877793606">
        <ele>83.6</ele>
        <time>2018-02-26T18:49:19Z</time>
      </trkpt>
      <trkpt lat="62.631432166306" lon="17.969865304575">
        <ele>83.6</ele>
        <time>2018-02-26T18:49:20Z</time>
      </trkpt>
      <trkpt lat="62.631455551807" lon="17.969852061173">
        <ele>83.4</ele>
        <time>2018-02-26T18:49:21Z</time>
      </trkpt>
      <trkpt lat="62.631479104946" lon="17.969837392848">
        <ele>83.4</ele>
        <time>2018-02-26T18:49:22Z</time>
      </trkpt>
      <trkpt lat="62.631506849035" lon="17.969822640704">
        <ele>83.4</ele>
        <time>2018-02-26T18:49:23Z</time>
      </trkpt>
      <trkpt lat="62.631531994735" lon="17.96981040313">
        <ele>83.4</ele>
        <time>2018-02-26T18:49:24Z</time>
      </trkpt>
      <trkpt lat="62.631554961141" lon="17.969797578823">
        <ele>83.4</ele>
        <time>2018-02-26T18:49:25Z</time>
      </trkpt>
      <trkpt lat="62.631580693574" lon="17.969782491403">
        <ele>83.2</ele>
        <time>2018-02-26T18:49:26Z</time>
      </trkpt>
      <trkpt lat="62.631604581989" lon="17.96976681725">
        <ele>83.2</ele>
        <time>2018-02-26T18:49:27Z</time>
      </trkpt>
      <trkpt lat="62.63162796749" lon="17.969750472545">
        <ele>83.2</ele>
        <time>2018-02-26T18:49:28Z</time>
      </trkpt>
      <trkpt lat="62.631654538113" lon="17.969729182519">
        <ele>83.2</ele>
        <time>2018-02-26T18:49:29Z</time>
      </trkpt>
      <trkpt lat="62.631675995777" lon="17.969708563045">
        <ele>83</ele>
        <time>2018-02-26T18:49:30Z</time>
      </trkpt>
      <trkpt lat="62.631699548916" lon="17.969683668802">
        <ele>82.8</ele>
        <time>2018-02-26T18:49:31Z</time>
      </trkpt>
      <trkpt lat="62.631720000752" lon="17.969658523102">
        <ele>82.8</ele>
        <time>2018-02-26T18:49:32Z</time>
      </trkpt>
      <trkpt lat="62.631743134796" lon="17.969631784841">
        <ele>82.6</ele>
        <time>2018-02-26T18:49:33Z</time>
      </trkpt>
      <trkpt lat="62.631764927736" lon="17.969609824263">
        <ele>82.4</ele>
        <time>2018-02-26T18:49:34Z</time>
      </trkpt>
      <trkpt lat="62.631787642685" lon="17.969593647196">
        <ele>82.2</ele>
        <time>2018-02-26T18:49:35Z</time>
      </trkpt>
      <trkpt lat="62.63181236929" lon="17.969584846201">
        <ele>82.2</ele>
        <time>2018-02-26T18:49:36Z</time>
      </trkpt>
      <trkpt lat="62.631835419515" lon="17.969580906708">
        <ele>82.2</ele>
        <time>2018-02-26T18:49:37Z</time>
      </trkpt>
      <trkpt lat="62.631858888835" lon="17.969580068518">
        <ele>82.2</ele>
        <time>2018-02-26T18:49:38Z</time>
      </trkpt>
      <trkpt lat="62.63188193906" lon="17.969581409622">
        <ele>82.2</ele>
        <time>2018-02-26T18:49:39Z</time>
      </trkpt>
      <trkpt lat="62.631901971801" lon="17.969581409622">
        <ele>82.2</ele>
        <time>2018-02-26T18:49:40Z</time>
      </trkpt>
      <trkpt lat="62.631927871872" lon="17.969581912536">
        <ele>82.2</ele>
        <time>2018-02-26T18:49:41Z</time>
      </trkpt>
      <trkpt lat="62.631950335364" lon="17.969579146509">
        <ele>82.4</ele>
        <time>2018-02-26T18:49:42Z</time>
      </trkpt>
      <trkpt lat="62.631975313426" lon="17.969577805405">
        <ele>82.4</ele>
        <time>2018-02-26T18:49:43Z</time>
      </trkpt>
      <trkpt lat="62.631999872393" lon="17.969576380482">
        <ele>82.4</ele>
        <time>2018-02-26T18:49:44Z</time>
      </trkpt>
      <trkpt lat="62.632022838799" lon="17.969573279179">
        <ele>82.4</ele>
        <time>2018-02-26T18:49:45Z</time>
      </trkpt>
      <trkpt lat="62.63204706249" lon="17.969572608627">
        <ele>82.4</ele>
        <time>2018-02-26T18:49:46Z</time>
      </trkpt>
      <trkpt lat="62.632070783267" lon="17.96956648984">
        <ele>82.6</ele>
        <time>2018-02-26T18:49:47Z</time>
      </trkpt>
      <trkpt lat="62.632097018614" lon="17.96955559337">
        <ele>82.6</ele>
        <time>2018-02-26T18:49:48Z</time>
      </trkpt>
      <trkpt lat="62.632122667228" lon="17.969545702728">
        <ele>82.6</ele>
        <time>2018-02-26T18:49:49Z</time>
      </trkpt>
      <trkpt lat="62.632147142376" lon="17.969539919217">
        <ele>82.8</ele>
        <time>2018-02-26T18:49:50Z</time>
      </trkpt>
      <trkpt lat="62.63217446737" lon="17.969533046059">
        <ele>82.8</ele>
        <time>2018-02-26T18:49:51Z</time>
      </trkpt>
      <trkpt lat="62.6321970985" lon="17.969522233408">
        <ele>82.8</ele>
        <time>2018-02-26T18:49:52Z</time>
      </trkpt>
      <trkpt lat="62.632223166209" lon="17.969512761861">
        <ele>82.8</ele>
        <time>2018-02-26T18:49:53Z</time>
      </trkpt>
      <trkpt lat="62.632246803167" lon="17.969504631418">
        <ele>82.8</ele>
        <time>2018-02-26T18:49:54Z</time>
      </trkpt>
      <trkpt lat="62.632270523944" lon="17.969498428812">
        <ele>82.8</ele>
        <time>2018-02-26T18:49:55Z</time>
      </trkpt>
      <trkpt lat="62.632297010748" lon="17.969495076052">
        <ele>82.6</ele>
        <time>2018-02-26T18:49:56Z</time>
      </trkpt>
      <trkpt lat="62.632320480068" lon="17.969490298369">
        <ele>82.6</ele>
        <time>2018-02-26T18:49:57Z</time>
      </trkpt>
      <trkpt lat="62.632344200845" lon="17.969487867618">
        <ele>82.6</ele>
        <time>2018-02-26T18:49:58Z</time>
      </trkpt>
      <trkpt lat="62.632369849459" lon="17.969487113247">
        <ele>82.6</ele>
        <time>2018-02-26T18:49:59Z</time>
      </trkpt>
      <trkpt lat="62.632392648227" lon="17.969490298369">
        <ele>82.8</ele>
        <time>2018-02-26T18:50:00Z</time>
      </trkpt>
      <trkpt lat="62.632420476135" lon="17.969491220378">
        <ele>82.6</ele>
        <time>2018-02-26T18:50:01Z</time>
      </trkpt>
      <trkpt lat="62.632445118921" lon="17.969489543998">
        <ele>82.6</ele>
        <time>2018-02-26T18:50:02Z</time>
      </trkpt>
      <trkpt lat="62.632473198286" lon="17.969490633645">
        <ele>82.6</ele>
        <time>2018-02-26T18:50:03Z</time>
      </trkpt>
      <trkpt lat="62.632497757253" lon="17.969493902586">
        <ele>82.8</ele>
        <time>2018-02-26T18:50:04Z</time>
      </trkpt>
      <trkpt lat="62.632523824962" lon="17.969500189011">
        <ele>82.8</ele>
        <time>2018-02-26T18:50:05Z</time>
      </trkpt>
      <trkpt lat="62.632549892671" lon="17.969506307798">
        <ele>82.8</ele>
        <time>2018-02-26T18:50:06Z</time>
      </trkpt>
      <trkpt lat="62.632575206009" lon="17.969515444069">
        <ele>82.6</ele>
        <time>2018-02-26T18:50:07Z</time>
      </trkpt>
      <trkpt lat="62.632599597338" lon="17.969528603652">
        <ele>82.6</ele>
        <time>2018-02-26T18:50:08Z</time>
      </trkpt>
      <trkpt lat="62.632622479925" lon="17.969538494294">
        <ele>82.6</ele>
        <time>2018-02-26T18:50:09Z</time>
      </trkpt>
      <trkpt lat="62.632643602313" lon="17.969544193986">
        <ele>82.6</ele>
        <time>2018-02-26T18:50:10Z</time>
      </trkpt>
      <trkpt lat="62.632669418565" lon="17.96954553509">
        <ele>82.6</ele>
        <time>2018-02-26T18:50:11Z</time>
      </trkpt>
      <trkpt lat="62.632693726075" lon="17.969550815687">
        <ele>82.6</ele>
        <time>2018-02-26T18:50:12Z</time>
      </trkpt>
      <trkpt lat="62.63271761449" lon="17.969555509551">
        <ele>82.8</ele>
        <time>2018-02-26T18:50:13Z</time>
      </trkpt>
      <trkpt lat="62.632740329439" lon="17.969557102112">
        <ele>82.8</ele>
        <time>2018-02-26T18:50:14Z</time>
      </trkpt>
      <trkpt lat="62.632764134035" lon="17.969559029949">
        <ele>82.8</ele>
        <time>2018-02-26T18:50:15Z</time>
      </trkpt>
      <trkpt lat="62.632788609183" lon="17.969558443216">
        <ele>82.8</ele>
        <time>2018-02-26T18:50:16Z</time>
      </trkpt>
      <trkpt lat="62.632811575589" lon="17.969557018293">
        <ele>82.8</ele>
        <time>2018-02-26T18:50:17Z</time>
      </trkpt>
      <trkpt lat="62.632837308022" lon="17.969557018293">
        <ele>83</ele>
        <time>2018-02-26T18:50:18Z</time>
      </trkpt>
      <trkpt lat="62.632861112618" lon="17.969561041605">
        <ele>83</ele>
        <time>2018-02-26T18:50:19Z</time>
      </trkpt>
      <trkpt lat="62.632883995205" lon="17.969568501496">
        <ele>83.2</ele>
        <time>2018-02-26T18:50:20Z</time>
      </trkpt>
      <trkpt lat="62.632908554172" lon="17.969575290835">
        <ele>83.2</ele>
        <time>2018-02-26T18:50:21Z</time>
      </trkpt>
      <trkpt lat="62.632931688216" lon="17.969581409622">
        <ele>83.4</ele>
        <time>2018-02-26T18:50:22Z</time>
      </trkpt>
      <trkpt lat="62.632957085373" lon="17.969586019667">
        <ele>83.4</ele>
        <time>2018-02-26T18:50:23Z</time>
      </trkpt>
      <trkpt lat="62.632980722331" lon="17.969588953332">
        <ele>83.4</ele>
        <time>2018-02-26T18:50:24Z</time>
      </trkpt>
      <trkpt lat="62.633002850547" lon="17.969594233929">
        <ele>83.4</ele>
        <time>2018-02-26T18:50:25Z</time>
      </trkpt>
      <trkpt lat="62.633027577152" lon="17.969598005784">
        <ele>83.6</ele>
        <time>2018-02-26T18:50:26Z</time>
      </trkpt>
      <trkpt lat="62.633050208282" lon="17.969600520354">
        <ele>83.6</ele>
        <time>2018-02-26T18:50:27Z</time>
      </trkpt>
      <trkpt lat="62.633073174688" lon="17.969605130399">
        <ele>83.6</ele>
        <time>2018-02-26T18:50:28Z</time>
      </trkpt>
      <trkpt lat="62.633097901293" lon="17.969612087376">
        <ele>83.6</ele>
        <time>2018-02-26T18:50:29Z</time>
      </trkpt>
      <trkpt lat="62.633122627898" lon="17.96961426667">
        <ele>83.6</ele>
        <time>2018-02-26T18:50:30Z</time>
      </trkpt>
      <trkpt lat="62.633150036711" lon="17.969619882543">
        <ele>83.6</ele>
        <time>2018-02-26T18:50:31Z</time>
      </trkpt>
      <trkpt lat="62.633172500203" lon="17.969624995502">
        <ele>83.8</ele>
        <time>2018-02-26T18:50:32Z</time>
      </trkpt>
      <trkpt lat="62.633199992835" lon="17.969629102633">
        <ele>84</ele>
        <time>2018-02-26T18:50:33Z</time>
      </trkpt>
      <trkpt lat="62.633223545974" lon="17.969629102633">
        <ele>83.8</ele>
        <time>2018-02-26T18:50:34Z</time>
      </trkpt>
      <trkpt lat="62.633246763837" lon="17.969627761529">
        <ele>84</ele>
        <time>2018-02-26T18:50:35Z</time>
      </trkpt>
      <trkpt lat="62.633273418279" lon="17.969620217819">
        <ele>84</ele>
        <time>2018-02-26T18:50:36Z</time>
      </trkpt>
      <trkpt lat="62.633295378857" lon="17.969604292209">
        <ele>84</ele>
        <time>2018-02-26T18:50:37Z</time>
      </trkpt>
      <trkpt lat="62.633314908684" lon="17.969578475957">
        <ele>84</ele>
        <time>2018-02-26T18:50:38Z</time>
      </trkpt>
      <trkpt lat="62.633330247561" lon="17.969544864538">
        <ele>84</ele>
        <time>2018-02-26T18:50:39Z</time>
      </trkpt>
      <trkpt lat="62.633340892574" lon="17.969503960866">
        <ele>84</ele>
        <time>2018-02-26T18:50:40Z</time>
      </trkpt>
      <trkpt lat="62.633353297786" lon="17.969446041937">
        <ele>84</ele>
        <time>2018-02-26T18:50:41Z</time>
      </trkpt>
      <trkpt lat="62.633364026618" lon="17.969398935659">
        <ele>83.8</ele>
        <time>2018-02-26T18:50:42Z</time>
      </trkpt>
      <trkpt lat="62.633377605296" lon="17.969354176313">
        <ele>83.8</ele>
        <time>2018-02-26T18:50:43Z</time>
      </trkpt>
      <trkpt lat="62.633389507594" lon="17.969309249329">
        <ele>83.8</ele>
        <time>2018-02-26T18:50:44Z</time>
      </trkpt>
      <trkpt lat="62.633399649693" lon="17.969266920734">
        <ele>83.8</ele>
        <time>2018-02-26T18:50:45Z</time>
      </trkpt>
      <trkpt lat="62.633410378525" lon="17.969219646818">
        <ele>83.4</ele>
        <time>2018-02-26T18:50:46Z</time>
      </trkpt>
      <trkpt lat="62.633417084045" lon="17.969170277427">
        <ele>83.4</ele>
        <time>2018-02-26T18:50:47Z</time>
      </trkpt>
      <trkpt lat="62.633422951375" lon="17.969114621611">
        <ele>83.2</ele>
        <time>2018-02-26T18:50:48Z</time>
      </trkpt>
      <trkpt lat="62.633427896696" lon="17.969060558356">
        <ele>83</ele>
        <time>2018-02-26T18:50:49Z</time>
      </trkpt>
      <trkpt lat="62.63343259056" lon="17.969011188965">
        <ele>82.8</ele>
        <time>2018-02-26T18:50:50Z</time>
      </trkpt>
      <trkpt lat="62.633439463718" lon="17.968953353855">
        <ele>82.8</ele>
        <time>2018-02-26T18:50:51Z</time>
      </trkpt>
      <trkpt lat="62.633445498686" lon="17.968904822654">
        <ele>82.6</ele>
        <time>2018-02-26T18:50:52Z</time>
      </trkpt>
      <trkpt lat="62.6334543835" lon="17.968850088847">
        <ele>82.4</ele>
        <time>2018-02-26T18:50:53Z</time>
      </trkpt>
      <trkpt lat="62.633463184495" lon="17.968795438859">
        <ele>82.2</ele>
        <time>2018-02-26T18:50:54Z</time>
      </trkpt>
      <trkpt lat="62.633469303282" lon="17.968747410572">
        <ele>82.2</ele>
        <time>2018-02-26T18:50:55Z</time>
      </trkpt>
      <trkpt lat="62.633477433725" lon="17.968689240186">
        <ele>81.8</ele>
        <time>2018-02-26T18:50:56Z</time>
      </trkpt>
      <trkpt lat="62.633484390702" lon="17.968637607682">
        <ele>81.6</ele>
        <time>2018-02-26T18:50:57Z</time>
      </trkpt>
      <trkpt lat="62.633491431498" lon="17.968587232463">
        <ele>81.6</ele>
        <time>2018-02-26T18:50:58Z</time>
      </trkpt>
      <trkpt lat="62.633499478122" lon="17.968529229715">
        <ele>81.4</ele>
        <time>2018-02-26T18:50:59Z</time>
      </trkpt>
      <trkpt lat="62.633506099823" lon="17.968476088469">
        <ele>81.2</ele>
        <time>2018-02-26T18:51:00Z</time>
      </trkpt>
      <trkpt lat="62.633515655189" lon="17.96841733135">
        <ele>81</ele>
        <time>2018-02-26T18:51:01Z</time>
      </trkpt>
      <trkpt lat="62.633523701813" lon="17.968367626683">
        <ele>80.8</ele>
        <time>2018-02-26T18:51:02Z</time>
      </trkpt>
      <trkpt lat="62.633533089541" lon="17.968310965039">
        <ele>80.6</ele>
        <time>2018-02-26T18:51:03Z</time>
      </trkpt>
      <trkpt lat="62.633540884708" lon="17.96826058982">
        <ele>80.6</ele>
        <time>2018-02-26T18:51:04Z</time>
      </trkpt>
      <trkpt lat="62.633547590228" lon="17.968209627868">
        <ele>80.2</ele>
        <time>2018-02-26T18:51:05Z</time>
      </trkpt>
      <trkpt lat="62.633555217757" lon="17.968151038387">
        <ele>80</ele>
        <time>2018-02-26T18:51:06Z</time>
      </trkpt>
      <trkpt lat="62.633562426191" lon="17.968099154426">
        <ele>80</ele>
        <time>2018-02-26T18:51:07Z</time>
      </trkpt>
      <trkpt lat="62.633571394824" lon="17.968047019008">
        <ele>79.8</ele>
        <time>2018-02-26T18:51:08Z</time>
      </trkpt>
      <trkpt lat="62.633580614914" lon="17.967994213038">
        <ele>79.8</ele>
        <time>2018-02-26T18:51:09Z</time>
      </trkpt>
      <trkpt lat="62.633587236615" lon="17.967948196407">
        <ele>79.4</ele>
        <time>2018-02-26T18:51:10Z</time>
      </trkpt>
      <trkpt lat="62.633595953791" lon="17.967887008537">
        <ele>79.2</ele>
        <time>2018-02-26T18:51:11Z</time>
      </trkpt>
      <trkpt lat="62.633603329863" lon="17.967834118748">
        <ele>79</ele>
        <time>2018-02-26T18:51:12Z</time>
      </trkpt>
      <trkpt lat="62.633612047039" lon="17.967779049665">
        <ele>78.6</ele>
        <time>2018-02-26T18:51:13Z</time>
      </trkpt>
      <trkpt lat="62.63361950693" lon="17.967724399677">
        <ele>78.4</ele>
        <time>2018-02-26T18:51:14Z</time>
      </trkpt>
      <trkpt lat="62.633625877174" lon="17.967673940639">
        <ele>78.2</ele>
        <time>2018-02-26T18:51:15Z</time>
      </trkpt>
      <trkpt lat="62.633635181083" lon="17.967618452461">
        <ele>78</ele>
        <time>2018-02-26T18:51:16Z</time>
      </trkpt>
      <trkpt lat="62.633643143888" lon="17.96756321574">
        <ele>77.8</ele>
        <time>2018-02-26T18:51:17Z</time>
      </trkpt>
      <trkpt lat="62.633651106693" lon="17.967503117517">
        <ele>77.4</ele>
        <time>2018-02-26T18:51:18Z</time>
      </trkpt>
      <trkpt lat="62.633657979851" lon="17.967444025122">
        <ele>77.4</ele>
        <time>2018-02-26T18:51:19Z</time>
      </trkpt>
      <trkpt lat="62.63366476919" lon="17.967395661559">
        <ele>77</ele>
        <time>2018-02-26T18:51:20Z</time>
      </trkpt>
      <trkpt lat="62.633673486366" lon="17.967338245544">
        <ele>76.6</ele>
        <time>2018-02-26T18:51:21Z</time>
      </trkpt>
      <trkpt lat="62.633681030076" lon="17.96728912761">
        <ele>76.4</ele>
        <time>2018-02-26T18:51:22Z</time>
      </trkpt>
      <trkpt lat="62.633688825243" lon="17.967239506762">
        <ele>76.4</ele>
        <time>2018-02-26T18:51:23Z</time>
      </trkpt>
      <trkpt lat="62.6336974586" lon="17.967176055779">
        <ele>76.2</ele>
        <time>2018-02-26T18:51:24Z</time>
      </trkpt>
      <trkpt lat="62.63370332593" lon="17.967126602569">
        <ele>75.8</ele>
        <time>2018-02-26T18:51:25Z</time>
      </trkpt>
      <trkpt lat="62.633711372554" lon="17.967068180726">
        <ele>75.8</ele>
        <time>2018-02-26T18:51:26Z</time>
      </trkpt>
      <trkpt lat="62.633718245712" lon="17.967014033652">
        <ele>75.6</ele>
        <time>2018-02-26T18:51:27Z</time>
      </trkpt>
      <trkpt lat="62.633725202689" lon="17.96696390989">
        <ele>75.4</ele>
        <time>2018-02-26T18:51:28Z</time>
      </trkpt>
      <trkpt lat="62.633732914037" lon="17.96690523659">
        <ele>75.2</ele>
        <time>2018-02-26T18:51:29Z</time>
      </trkpt>
      <trkpt lat="62.633738362272" lon="17.966855951018">
        <ele>75</ele>
        <time>2018-02-26T18:51:30Z</time>
      </trkpt>
      <trkpt lat="62.63374607362" lon="17.96679962465">
        <ele>74.6</ele>
        <time>2018-02-26T18:51:31Z</time>
      </trkpt>
      <trkpt lat="62.63375361733" lon="17.96674598049">
        <ele>74.4</ele>
        <time>2018-02-26T18:51:32Z</time>
      </trkpt>
      <trkpt lat="62.633759736117" lon="17.966691162864">
        <ele>74.2</ele>
        <time>2018-02-26T18:51:33Z</time>
      </trkpt>
      <trkpt lat="62.633767196008" lon="17.966636512876">
        <ele>74</ele>
        <time>2018-02-26T18:51:34Z</time>
      </trkpt>
      <trkpt lat="62.63377541027" lon="17.966584628915">
        <ele>73.8</ele>
        <time>2018-02-26T18:51:35Z</time>
      </trkpt>
      <trkpt lat="62.633783037799" lon="17.966525620339">
        <ele>73.4</ele>
        <time>2018-02-26T18:51:36Z</time>
      </trkpt>
      <trkpt lat="62.633789240405" lon="17.966471473265">
        <ele>73.2</ele>
        <time>2018-02-26T18:51:37Z</time>
      </trkpt>
      <trkpt lat="62.633795694468" lon="17.966418080562">
        <ele>73</ele>
        <time>2018-02-26T18:51:38Z</time>
      </trkpt>
      <trkpt lat="62.633803238178" lon="17.966362173289">
        <ele>73</ele>
        <time>2018-02-26T18:51:39Z</time>
      </trkpt>
      <trkpt lat="62.633807680585" lon="17.966307858577">
        <ele>72.6</ele>
        <time>2018-02-26T18:51:40Z</time>
      </trkpt>
      <trkpt lat="62.633813296458" lon="17.966243485585">
        <ele>72.4</ele>
        <time>2018-02-26T18:51:41Z</time>
      </trkpt>
      <trkpt lat="62.633818409417" lon="17.966184896104">
        <ele>72.4</ele>
        <time>2018-02-26T18:51:42Z</time>
      </trkpt>
      <trkpt lat="62.633825114937" lon="17.966131503401">
        <ele>72</ele>
        <time>2018-02-26T18:51:43Z</time>
      </trkpt>
      <trkpt lat="62.633833664475" lon="17.966074087386">
        <ele>71.8</ele>
        <time>2018-02-26T18:51:44Z</time>
      </trkpt>
      <trkpt lat="62.633837184873" lon="17.966022119606">
        <ele>71.6</ele>
        <time>2018-02-26T18:51:45Z</time>
      </trkpt>
      <trkpt lat="62.633841040547" lon="17.965963278668">
        <ele>71.6</ele>
        <time>2018-02-26T18:51:46Z</time>
      </trkpt>
      <trkpt lat="62.633846572601" lon="17.965904102454">
        <ele>71.2</ele>
        <time>2018-02-26T18:51:47Z</time>
      </trkpt>
      <trkpt lat="62.633848751895" lon="17.965848530457">
        <ele>70.8</ele>
        <time>2018-02-26T18:51:48Z</time>
      </trkpt>
      <trkpt lat="62.633850428275" lon="17.96579128208">
        <ele>70.6</ele>
        <time>2018-02-26T18:51:49Z</time>
      </trkpt>
      <trkpt lat="62.633849254809" lon="17.965740403947">
        <ele>70.6</ele>
        <time>2018-02-26T18:51:50Z</time>
      </trkpt>
      <trkpt lat="62.633845734411" lon="17.965679299896">
        <ele>70.6</ele>
        <time>2018-02-26T18:51:51Z</time>
      </trkpt>
      <trkpt lat="62.633841208185" lon="17.965622302976">
        <ele>70.4</ele>
        <time>2018-02-26T18:51:52Z</time>
      </trkpt>
      <trkpt lat="62.633836179045" lon="17.965564467866">
        <ele>70.2</ele>
        <time>2018-02-26T18:51:53Z</time>
      </trkpt>
      <trkpt lat="62.63383240719" lon="17.965508979688">
        <ele>70</ele>
        <time>2018-02-26T18:51:54Z</time>
      </trkpt>
      <trkpt lat="62.633829557344" lon="17.965451228397">
        <ele>69.8</ele>
        <time>2018-02-26T18:51:55Z</time>
      </trkpt>
      <trkpt lat="62.633826456041" lon="17.965392136002">
        <ele>69.6</ele>
        <time>2018-02-26T18:51:56Z</time>
      </trkpt>
      <trkpt lat="62.633823606195" lon="17.965333462702">
        <ele>69.2</ele>
        <time>2018-02-26T18:51:57Z</time>
      </trkpt>
      <trkpt lat="62.633820923987" lon="17.965279483266">
        <ele>69</ele>
        <time>2018-02-26T18:51:58Z</time>
      </trkpt>
      <trkpt lat="62.633818325598" lon="17.965214523541">
        <ele>68.8</ele>
        <time>2018-02-26T18:51:59Z</time>
      </trkpt>
      <trkpt lat="62.633815475752" lon="17.965157275164">
        <ele>68.4</ele>
        <time>2018-02-26T18:52:00Z</time>
      </trkpt>
      <trkpt lat="62.633812793544" lon="17.965094243276">
        <ele>68.2</ele>
        <time>2018-02-26T18:52:01Z</time>
      </trkpt>
      <trkpt lat="62.633811955354" lon="17.965035821433">
        <ele>67.8</ele>
        <time>2018-02-26T18:52:02Z</time>
      </trkpt>
      <trkpt lat="62.633812039173" lon="17.964983853653">
        <ele>67.6</ele>
        <time>2018-02-26T18:52:03Z</time>
      </trkpt>
      <trkpt lat="62.633815811028" lon="17.964933562253">
        <ele>67.6</ele>
        <time>2018-02-26T18:52:04Z</time>
      </trkpt>
      <trkpt lat="62.633825534032" lon="17.96487933136">
        <ele>67.2</ele>
        <time>2018-02-26T18:52:05Z</time>
      </trkpt>
      <trkpt lat="62.633839615624" lon="17.964827615037">
        <ele>67</ele>
        <time>2018-02-26T18:52:06Z</time>
      </trkpt>
      <trkpt lat="62.633856044148" lon="17.964781179311">
        <ele>66.8</ele>
        <time>2018-02-26T18:52:07Z</time>
      </trkpt>
      <trkpt lat="62.633874484328" lon="17.964742203476">
        <ele>66.8</ele>
        <time>2018-02-26T18:52:08Z</time>
      </trkpt>
      <trkpt lat="62.633893511241" lon="17.964708256781">
        <ele>66.8</ele>
        <time>2018-02-26T18:52:09Z</time>
      </trkpt>
      <trkpt lat="62.633916645285" lon="17.964700377795">
        <ele>66.6</ele>
        <time>2018-02-26T18:52:10Z</time>
      </trkpt>
      <trkpt lat="62.633942796813" lon="17.964689648963">
        <ele>66.4</ele>
        <time>2018-02-26T18:52:11Z</time>
      </trkpt>
      <trkpt lat="62.633966769047" lon="17.964686799117">
        <ele>66.4</ele>
        <time>2018-02-26T18:52:12Z</time>
      </trkpt>
      <trkpt lat="62.633989064901" lon="17.964687637307">
        <ele>66.2</ele>
        <time>2018-02-26T18:52:13Z</time>
      </trkpt>
      <trkpt lat="62.634011528393" lon="17.964684955099">
        <ele>66</ele>
        <time>2018-02-26T18:52:14Z</time>
      </trkpt>
      <trkpt lat="62.634033656609" lon="17.96468235671">
        <ele>65.8</ele>
        <time>2018-02-26T18:52:15Z</time>
      </trkpt>
      <trkpt lat="62.634058215576" lon="17.964677746665">
        <ele>65.8</ele>
        <time>2018-02-26T18:52:16Z</time>
      </trkpt>
      <trkpt lat="62.634081936353" lon="17.964677495208">
        <ele>65.8</ele>
        <time>2018-02-26T18:52:17Z</time>
      </trkpt>
      <trkpt lat="62.634103729293" lon="17.964676908475">
        <ele>65.6</ele>
        <time>2018-02-26T18:52:18Z</time>
      </trkpt>
      <trkpt lat="62.634127533889" lon="17.964677076113">
        <ele>65.6</ele>
        <time>2018-02-26T18:52:19Z</time>
      </trkpt>
      <trkpt lat="62.634150751752" lon="17.964675818828">
        <ele>65.6</ele>
        <time>2018-02-26T18:52:20Z</time>
      </trkpt>
      <trkpt lat="62.634174304891" lon="17.964675399733">
        <ele>65.6</ele>
        <time>2018-02-26T18:52:21Z</time>
      </trkpt>
      <trkpt lat="62.634197438935" lon="17.964679590683">
        <ele>65.4</ele>
        <time>2018-02-26T18:52:22Z</time>
      </trkpt>
      <trkpt lat="62.634222416997" lon="17.964684368366">
        <ele>65.4</ele>
        <time>2018-02-26T18:52:23Z</time>
      </trkpt>
      <trkpt lat="62.63424563486" lon="17.964682775805">
        <ele>65.4</ele>
        <time>2018-02-26T18:52:24Z</time>
      </trkpt>
      <trkpt lat="62.634272373121" lon="17.9646831949">
        <ele>65.4</ele>
        <time>2018-02-26T18:52:25Z</time>
      </trkpt>
      <trkpt lat="62.634298608468" lon="17.964683111081">
        <ele>65.4</ele>
        <time>2018-02-26T18:52:26Z</time>
      </trkpt>
      <trkpt lat="62.634325095272" lon="17.964681015606">
        <ele>65.4</ele>
        <time>2018-02-26T18:52:27Z</time>
      </trkpt>
      <trkpt lat="62.634349821877" lon="17.964680512692">
        <ele>65.2</ele>
        <time>2018-02-26T18:52:28Z</time>
      </trkpt>
      <trkpt lat="62.63437555431" lon="17.964678501036">
        <ele>65.2</ele>
        <time>2018-02-26T18:52:29Z</time>
      </trkpt>
      <trkpt lat="62.634398688354" lon="17.964681686158">
        <ele>65.2</ele>
        <time>2018-02-26T18:52:30Z</time>
      </trkpt>
      <trkpt lat="62.634425342796" lon="17.964685541832">
        <ele>65.2</ele>
        <time>2018-02-26T18:52:31Z</time>
      </trkpt>
      <trkpt lat="62.634449901763" lon="17.96468990042">
        <ele>65.2</ele>
        <time>2018-02-26T18:52:32Z</time>
      </trkpt>
      <trkpt lat="62.634473119626" lon="17.964690487153">
        <ele>65.2</ele>
        <time>2018-02-26T18:52:33Z</time>
      </trkpt>
      <trkpt lat="62.634496505127" lon="17.964689313687">
        <ele>65</ele>
        <time>2018-02-26T18:52:34Z</time>
      </trkpt>
      <trkpt lat="62.634521231732" lon="17.964690990067">
        <ele>65</ele>
        <time>2018-02-26T18:52:35Z</time>
      </trkpt>
      <trkpt lat="62.634547215622" lon="17.964690403334">
        <ele>65</ele>
        <time>2018-02-26T18:52:36Z</time>
      </trkpt>
      <trkpt lat="62.634573534788" lon="17.96468990042">
        <ele>65</ele>
        <time>2018-02-26T18:52:37Z</time>
      </trkpt>
      <trkpt lat="62.63460018923" lon="17.96469073861">
        <ele>64.6</ele>
        <time>2018-02-26T18:52:38Z</time>
      </trkpt>
      <trkpt lat="62.634625502568" lon="17.964690570972">
        <ele>64.6</ele>
        <time>2018-02-26T18:52:39Z</time>
      </trkpt>
      <trkpt lat="62.634650564449" lon="17.964690319515">
        <ele>64.6</ele>
        <time>2018-02-26T18:52:40Z</time>
      </trkpt>
      <trkpt lat="62.634679482004" lon="17.964688391678">
        <ele>64.6</ele>
        <time>2018-02-26T18:52:41Z</time>
      </trkpt>
      <trkpt lat="62.634706806998" lon="17.96468738585">
        <ele>64.4</ele>
        <time>2018-02-26T18:52:42Z</time>
      </trkpt>
      <trkpt lat="62.634733209983" lon="17.964681099425">
        <ele>64.4</ele>
        <time>2018-02-26T18:52:43Z</time>
      </trkpt>
      <trkpt lat="62.634760954072" lon="17.964678920131">
        <ele>64.4</ele>
        <time>2018-02-26T18:52:44Z</time>
      </trkpt>
      <trkpt lat="62.634784674849" lon="17.964682440529">
        <ele>64.4</ele>
        <time>2018-02-26T18:52:45Z</time>
      </trkpt>
      <trkpt lat="62.634805881056" lon="17.964689397506">
        <ele>64.4</ele>
        <time>2018-02-26T18:52:46Z</time>
      </trkpt>
      <trkpt lat="62.63483404424" lon="17.964694259008">
        <ele>64.4</ele>
        <time>2018-02-26T18:52:47Z</time>
      </trkpt>
      <trkpt lat="62.63485918994" lon="17.964694007551">
        <ele>64.6</ele>
        <time>2018-02-26T18:52:48Z</time>
      </trkpt>
      <trkpt lat="62.634883916545" lon="17.964694426646">
        <ele>64.4</ele>
        <time>2018-02-26T18:52:49Z</time>
      </trkpt>
      <trkpt lat="62.634907385865" lon="17.964693588456">
        <ele>64.6</ele>
        <time>2018-02-26T18:52:50Z</time>
      </trkpt>
      <trkpt lat="62.634932447746" lon="17.964688894592">
        <ele>64.4</ele>
        <time>2018-02-26T18:52:51Z</time>
      </trkpt>
      <trkpt lat="62.63495558179" lon="17.964686966755">
        <ele>64.4</ele>
        <time>2018-02-26T18:52:52Z</time>
      </trkpt>
      <trkpt lat="62.634981062766" lon="17.964687218212">
        <ele>64.2</ele>
        <time>2018-02-26T18:52:53Z</time>
      </trkpt>
      <trkpt lat="62.635004783543" lon="17.964686212384">
        <ele>64.4</ele>
        <time>2018-02-26T18:52:54Z</time>
      </trkpt>
      <trkpt lat="62.635029510148" lon="17.964681434701">
        <ele>64.4</ele>
        <time>2018-02-26T18:52:55Z</time>
      </trkpt>
      <trkpt lat="62.635057254237" lon="17.964675818828">
        <ele>64.2</ele>
        <time>2018-02-26T18:52:56Z</time>
      </trkpt>
      <trkpt lat="62.635081729385" lon="17.964671292602">
        <ele>64.2</ele>
        <time>2018-02-26T18:52:57Z</time>
      </trkpt>
      <trkpt lat="62.635104025239" lon="17.964665257634">
        <ele>64</ele>
        <time>2018-02-26T18:52:58Z</time>
      </trkpt>
      <trkpt lat="62.635131517871" lon="17.964653606793">
        <ele>64.2</ele>
        <time>2018-02-26T18:52:59Z</time>
      </trkpt>
      <trkpt lat="62.635155741562" lon="17.964641536857">
        <ele>64.2</ele>
        <time>2018-02-26T18:53:00Z</time>
      </trkpt>
      <trkpt lat="62.635182982737" lon="17.964631478577">
        <ele>63.8</ele>
        <time>2018-02-26T18:53:01Z</time>
      </trkpt>
      <trkpt lat="62.635209301903" lon="17.964621252659">
        <ele>63.8</ele>
        <time>2018-02-26T18:53:02Z</time>
      </trkpt>
      <trkpt lat="62.635238219458" lon="17.964616558795">
        <ele>63.8</ele>
        <time>2018-02-26T18:53:03Z</time>
      </trkpt>
      <trkpt lat="62.635264203348" lon="17.964610859103">
        <ele>63.6</ele>
        <time>2018-02-26T18:53:04Z</time>
      </trkpt>
      <trkpt lat="62.635290187238" lon="17.964597028968">
        <ele>63.6</ele>
        <time>2018-02-26T18:53:05Z</time>
      </trkpt>
      <trkpt lat="62.635318350422" lon="17.964581941548">
        <ele>63.6</ele>
        <time>2018-02-26T18:53:06Z</time>
      </trkpt>
      <trkpt lat="62.635342993208" lon="17.964568111413">
        <ele>63.6</ele>
        <time>2018-02-26T18:53:07Z</time>
      </trkpt>
      <trkpt lat="62.635367887451" lon="17.964554281278">
        <ele>63.6</ele>
        <time>2018-02-26T18:53:08Z</time>
      </trkpt>
      <trkpt lat="62.635392111142" lon="17.964538020392">
        <ele>63.6</ele>
        <time>2018-02-26T18:53:09Z</time>
      </trkpt>
      <trkpt lat="62.635417089204" lon="17.964519664031">
        <ele>63.4</ele>
        <time>2018-02-26T18:53:10Z</time>
      </trkpt>
      <trkpt lat="62.635445252388" lon="17.96450466043">
        <ele>63.4</ele>
        <time>2018-02-26T18:53:11Z</time>
      </trkpt>
      <trkpt lat="62.635469811355" lon="17.964487812811">
        <ele>63.4</ele>
        <time>2018-02-26T18:53:12Z</time>
      </trkpt>
      <trkpt lat="62.635496801073" lon="17.964469791726">
        <ele>63.4</ele>
        <time>2018-02-26T18:53:13Z</time>
      </trkpt>
      <trkpt lat="62.635524293705" lon="17.964454033754">
        <ele>63.2</ele>
        <time>2018-02-26T18:53:14Z</time>
      </trkpt>
      <trkpt lat="62.635547679206" lon="17.964439449248">
        <ele>63.2</ele>
        <time>2018-02-26T18:53:15Z</time>
      </trkpt>
      <trkpt lat="62.635573998372" lon="17.964425367656">
        <ele>63.2</ele>
        <time>2018-02-26T18:53:16Z</time>
      </trkpt>
      <trkpt lat="62.635599395529" lon="17.96441413591">
        <ele>63.2</ele>
        <time>2018-02-26T18:53:17Z</time>
      </trkpt>
      <trkpt lat="62.635621356107" lon="17.964402568888">
        <ele>63.2</ele>
        <time>2018-02-26T18:53:18Z</time>
      </trkpt>
      <trkpt lat="62.635642813771" lon="17.96438899021">
        <ele>63.2</ele>
        <time>2018-02-26T18:53:19Z</time>
      </trkpt>
      <trkpt lat="62.635661421589" lon="17.964372058772">
        <ele>63.2</ele>
        <time>2018-02-26T18:53:20Z</time>
      </trkpt>
      <trkpt lat="62.635685561461" lon="17.96434959528">
        <ele>63.4</ele>
        <time>2018-02-26T18:53:21Z</time>
      </trkpt>
      <trkpt lat="62.635705594202" lon="17.964329394901">
        <ele>63.2</ele>
        <time>2018-02-26T18:53:22Z</time>
      </trkpt>
      <trkpt lat="62.635728476789" lon="17.964305003572">
        <ele>63</ele>
        <time>2018-02-26T18:53:23Z</time>
      </trkpt>
      <trkpt lat="62.635750605005" lon="17.964287233944">
        <ele>63</ele>
        <time>2018-02-26T18:53:24Z</time>
      </trkpt>
      <trkpt lat="62.635775247791" lon="17.964268709945">
        <ele>63</ele>
        <time>2018-02-26T18:53:25Z</time>
      </trkpt>
      <trkpt lat="62.635802656604" lon="17.964251107955">
        <ele>62.8</ele>
        <time>2018-02-26T18:53:26Z</time>
      </trkpt>
      <trkpt lat="62.635826377381" lon="17.96423560144">
        <ele>62.8</ele>
        <time>2018-02-26T18:53:27Z</time>
      </trkpt>
      <trkpt lat="62.635846074846" lon="17.964219340554">
        <ele>62.8</ele>
        <time>2018-02-26T18:53:28Z</time>
      </trkpt>
      <trkpt lat="62.635870466175" lon="17.964203163487">
        <ele>62.6</ele>
        <time>2018-02-26T18:53:29Z</time>
      </trkpt>
      <trkpt lat="62.635892929667" lon="17.964193440483">
        <ele>62.4</ele>
        <time>2018-02-26T18:53:30Z</time>
      </trkpt>
      <trkpt lat="62.635922936869" lon="17.96419453013">
        <ele>62.4</ele>
        <time>2018-02-26T18:53:31Z</time>
      </trkpt>
      <trkpt lat="62.635952441157" lon="17.964188578981">
        <ele>62.2</ele>
        <time>2018-02-26T18:53:32Z</time>
      </trkpt>
      <trkpt lat="62.635979179418" lon="17.964177011959">
        <ele>62.2</ele>
        <time>2018-02-26T18:53:33Z</time>
      </trkpt>
      <trkpt lat="62.636003906023" lon="17.964165277299">
        <ele>62.2</ele>
        <time>2018-02-26T18:53:34Z</time>
      </trkpt>
      <trkpt lat="62.636028800266" lon="17.964150692793">
        <ele>62.2</ele>
        <time>2018-02-26T18:53:35Z</time>
      </trkpt>
      <trkpt lat="62.636054784156" lon="17.964139544866">
        <ele>62.2</ele>
        <time>2018-02-26T18:53:36Z</time>
      </trkpt>
      <trkpt lat="62.63607708001" lon="17.964133090803">
        <ele>62.4</ele>
        <time>2018-02-26T18:53:37Z</time>
      </trkpt>
      <trkpt lat="62.636100046416" lon="17.964131498242">
        <ele>62.2</ele>
        <time>2018-02-26T18:53:38Z</time>
      </trkpt>
      <trkpt lat="62.636120162976" lon="17.964138706676">
        <ele>62.2</ele>
        <time>2018-02-26T18:53:39Z</time>
      </trkpt>
      <trkpt lat="62.636137764966" lon="17.964153039725">
        <ele>62</ele>
        <time>2018-02-26T18:53:40Z</time>
      </trkpt>
      <trkpt lat="62.636157462431" lon="17.964182376375">
        <ele>62</ele>
        <time>2018-02-26T18:53:41Z</time>
      </trkpt>
      <trkpt lat="62.636177495172" lon="17.964214479052">
        <ele>62</ele>
        <time>2018-02-26T18:53:42Z</time>
      </trkpt>
      <trkpt lat="62.636198952836" lon="17.964243564245">
        <ele>61.8</ele>
        <time>2018-02-26T18:53:43Z</time>
      </trkpt>
      <trkpt lat="62.636222422156" lon="17.964265943918">
        <ele>61.8</ele>
        <time>2018-02-26T18:53:44Z</time>
      </trkpt>
      <trkpt lat="62.636246226752" lon="17.964281366614">
        <ele>61.8</ele>
        <time>2018-02-26T18:53:45Z</time>
      </trkpt>
      <trkpt lat="62.636270869538" lon="17.964287653039">
        <ele>62</ele>
        <time>2018-02-26T18:53:46Z</time>
      </trkpt>
      <trkpt lat="62.636298529808" lon="17.96427080542">
        <ele>62</ele>
        <time>2018-02-26T18:53:47Z</time>
      </trkpt>
      <trkpt lat="62.636323675508" lon="17.964246833186">
        <ele>62</ele>
        <time>2018-02-26T18:53:48Z</time>
      </trkpt>
      <trkpt lat="62.636346725733" lon="17.964222274219">
        <ele>62</ele>
        <time>2018-02-26T18:53:49Z</time>
      </trkpt>
      <trkpt lat="62.636368183397" lon="17.964200146003">
        <ele>62</ele>
        <time>2018-02-26T18:53:50Z</time>
      </trkpt>
      <trkpt lat="62.636391317441" lon="17.964173994475">
        <ele>62</ele>
        <time>2018-02-26T18:53:51Z</time>
      </trkpt>
      <trkpt lat="62.636408919431" lon="17.964153123544">
        <ele>61.8</ele>
        <time>2018-02-26T18:53:52Z</time>
      </trkpt>
      <trkpt lat="62.636431969656" lon="17.964123870713">
        <ele>61.8</ele>
        <time>2018-02-26T18:53:53Z</time>
      </trkpt>
      <trkpt lat="62.636450577474" lon="17.964098557375">
        <ele>61.8</ele>
        <time>2018-02-26T18:53:54Z</time>
      </trkpt>
      <trkpt lat="62.6364718675" lon="17.96407047801">
        <ele>61.8</ele>
        <time>2018-02-26T18:53:55Z</time>
      </trkpt>
      <trkpt lat="62.63649617501" lon="17.964041895731">
        <ele>61.6</ele>
        <time>2018-02-26T18:53:56Z</time>
      </trkpt>
      <trkpt lat="62.63651880614" lon="17.964017839678">
        <ele>61.6</ele>
        <time>2018-02-26T18:53:57Z</time>
      </trkpt>
      <trkpt lat="62.636543448926" lon="17.963997974575">
        <ele>61.6</ele>
        <time>2018-02-26T18:53:58Z</time>
      </trkpt>
      <trkpt lat="62.636571193015" lon="17.963984814992">
        <ele>61.6</ele>
        <time>2018-02-26T18:53:59Z</time>
      </trkpt>
      <trkpt lat="62.636597093086" lon="17.963986994286">
        <ele>61.4</ele>
        <time>2018-02-26T18:54:00Z</time>
      </trkpt>
      <trkpt lat="62.636627435564" lon="17.964008116674">
        <ele>61.4</ele>
        <time>2018-02-26T18:54:01Z</time>
      </trkpt>
      <trkpt lat="62.636652413626" lon="17.964029993433">
        <ele>61.4</ele>
        <time>2018-02-26T18:54:02Z</time>
      </trkpt>
      <trkpt lat="62.636677140231" lon="17.964046002862">
        <ele>61.4</ele>
        <time>2018-02-26T18:54:03Z</time>
      </trkpt>
      <trkpt lat="62.636700190456" lon="17.964055725866">
        <ele>61.4</ele>
        <time>2018-02-26T18:54:04Z</time>
      </trkpt>
      <trkpt lat="62.636724581785" lon="17.96406461068">
        <ele>61.2</ele>
        <time>2018-02-26T18:54:05Z</time>
      </trkpt>
      <trkpt lat="62.636751152408" lon="17.964077099711">
        <ele>61.2</ele>
        <time>2018-02-26T18:54:06Z</time>
      </trkpt>
      <trkpt lat="62.636772526253" lon="17.964100066117">
        <ele>61</ele>
        <time>2018-02-26T18:54:07Z</time>
      </trkpt>
      <trkpt lat="62.636788284225" lon="17.964132084975">
        <ele>61</ele>
        <time>2018-02-26T18:54:08Z</time>
      </trkpt>
      <trkpt lat="62.636802701093" lon="17.964165947851">
        <ele>61</ele>
        <time>2018-02-26T18:54:09Z</time>
      </trkpt>
      <trkpt lat="62.636819297255" lon="17.964199810727">
        <ele>61</ele>
        <time>2018-02-26T18:54:10Z</time>
      </trkpt>
      <trkpt lat="62.636839665272" lon="17.964236858725">
        <ele>61</ele>
        <time>2018-02-26T18:54:11Z</time>
      </trkpt>
      <trkpt lat="62.636859027461" lon="17.964267536479">
        <ele>61</ele>
        <time>2018-02-26T18:54:12Z</time>
      </trkpt>
      <trkpt lat="62.636879563116" lon="17.964288575048">
        <ele>60.8</ele>
        <time>2018-02-26T18:54:13Z</time>
      </trkpt>
      <trkpt lat="62.636901607513" lon="17.964310284169">
        <ele>60.8</ele>
        <time>2018-02-26T18:54:14Z</time>
      </trkpt>
      <trkpt lat="62.636921891711" lon="17.964331909471">
        <ele>60.8</ele>
        <time>2018-02-26T18:54:15Z</time>
      </trkpt>
      <trkpt lat="62.636943349375" lon="17.964355797886">
        <ele>60.6</ele>
        <time>2018-02-26T18:54:16Z</time>
      </trkpt>
      <trkpt lat="62.636968997989" lon="17.964379434844">
        <ele>60.6</ele>
        <time>2018-02-26T18:54:17Z</time>
      </trkpt>
      <trkpt lat="62.636992886404" lon="17.964393348798">
        <ele>60.4</ele>
        <time>2018-02-26T18:54:18Z</time>
      </trkpt>
      <trkpt lat="62.637014511706" lon="17.964398126481">
        <ele>60.6</ele>
        <time>2018-02-26T18:54:19Z</time>
      </trkpt>
      <trkpt lat="62.637036220827" lon="17.96439401935">
        <ele>60.4</ele>
        <time>2018-02-26T18:54:20Z</time>
      </trkpt>
      <trkpt lat="62.63705776231" lon="17.964373651333">
        <ele>60.2</ele>
        <time>2018-02-26T18:54:21Z</time>
      </trkpt>
      <trkpt lat="62.637076370128" lon="17.964353534773">
        <ele>60.2</ele>
        <time>2018-02-26T18:54:22Z</time>
      </trkpt>
      <trkpt lat="62.637096654326" lon="17.964334926955">
        <ele>60.2</ele>
        <time>2018-02-26T18:54:23Z</time>
      </trkpt>
      <trkpt lat="62.637112077022" lon="17.96430181845">
        <ele>60.2</ele>
        <time>2018-02-26T18:54:24Z</time>
      </trkpt>
      <trkpt lat="62.637131774487" lon="17.96426912904">
        <ele>60</ele>
        <time>2018-02-26T18:54:25Z</time>
      </trkpt>
      <trkpt lat="62.63715163959" lon="17.964236942544">
        <ele>60.2</ele>
        <time>2018-02-26T18:54:26Z</time>
      </trkpt>
      <trkpt lat="62.637168990123" lon="17.964206180971">
        <ele>60</ele>
        <time>2018-02-26T18:54:27Z</time>
      </trkpt>
      <trkpt lat="62.637187765579" lon="17.96417357538">
        <ele>60</ele>
        <time>2018-02-26T18:54:28Z</time>
      </trkpt>
      <trkpt lat="62.637208301234" lon="17.964142310893">
        <ele>60</ele>
        <time>2018-02-26T18:54:29Z</time>
      </trkpt>
      <trkpt lat="62.637230513269" lon="17.964118171021">
        <ele>60</ele>
        <time>2018-02-26T18:54:30Z</time>
      </trkpt>
      <trkpt lat="62.637256078064" lon="17.964093360597">
        <ele>59.8</ele>
        <time>2018-02-26T18:54:31Z</time>
      </trkpt>
      <trkpt lat="62.637280050298" lon="17.964072908761">
        <ele>59.8</ele>
        <time>2018-02-26T18:54:32Z</time>
      </trkpt>
      <trkpt lat="62.637305363636" lon="17.964057653703">
        <ele>59.6</ele>
        <time>2018-02-26T18:54:33Z</time>
      </trkpt>
      <trkpt lat="62.637329587327" lon="17.964047092509">
        <ele>59.6</ele>
        <time>2018-02-26T18:54:34Z</time>
      </trkpt>
      <trkpt lat="62.637352721371" lon="17.96404700869">
        <ele>59.4</ele>
        <time>2018-02-26T18:54:35Z</time>
      </trkpt>
      <trkpt lat="62.637378369985" lon="17.964053295115">
        <ele>59</ele>
        <time>2018-02-26T18:54:36Z</time>
      </trkpt>
      <trkpt lat="62.637397899812" lon="17.964056647875">
        <ele>58.8</ele>
        <time>2018-02-26T18:54:37Z</time>
      </trkpt>
      <trkpt lat="62.637412987232" lon="17.96405622878">
        <ele>58.8</ele>
        <time>2018-02-26T18:54:38Z</time>
      </trkpt>
      <trkpt lat="62.637425476263" lon="17.96405874335">
        <ele>58.8</ele>
        <time>2018-02-26T18:54:39Z</time>
      </trkpt>
      <trkpt lat="62.637438635846" lon="17.964067209069">
        <ele>58.8</ele>
        <time>2018-02-26T18:54:40Z</time>
      </trkpt>
      <trkpt lat="62.637452633619" lon="17.964079362824">
        <ele>58.8</ele>
        <time>2018-02-26T18:54:41Z</time>
      </trkpt>
      <trkpt lat="62.637465541745" lon="17.964086487439">
        <ele>58.8</ele>
        <time>2018-02-26T18:54:42Z</time>
      </trkpt>
      <trkpt lat="62.6374776955" lon="17.964091348941">
        <ele>59</ele>
        <time>2018-02-26T18:54:43Z</time>
      </trkpt>
      <trkpt lat="62.637489094884" lon="17.964096126624">
        <ele>58.8</ele>
        <time>2018-02-26T18:54:44Z</time>
      </trkpt>
      <trkpt lat="62.637499236983" lon="17.964100149936">
        <ele>58.8</ele>
        <time>2018-02-26T18:54:45Z</time>
      </trkpt>
      <trkpt lat="62.637510636367" lon="17.964107190732">
        <ele>58.6</ele>
        <time>2018-02-26T18:54:46Z</time>
      </trkpt>
      <trkpt lat="62.637520527009" lon="17.964121188505">
        <ele>58.4</ele>
        <time>2018-02-26T18:54:47Z</time>
      </trkpt>
      <trkpt lat="62.637526059063" lon="17.964139377228">
        <ele>58.4</ele>
        <time>2018-02-26T18:54:48Z</time>
      </trkpt>
      <trkpt lat="62.637529244185" lon="17.964155889571">
        <ele>58.4</ele>
        <time>2018-02-26T18:54:49Z</time>
      </trkpt>
      <trkpt lat="62.637529998556" lon="17.964167456593">
        <ele>58.4</ele>
        <time>2018-02-26T18:54:50Z</time>
      </trkpt>
      <trkpt lat="62.637529328004" lon="17.96416770805">
        <ele>58.4</ele>
        <time>2018-02-26T18:54:51Z</time>
      </trkpt>
    </trkseg>
  </trk>
</gpx>